<?xml version="1.0" encoding="UTF-8" standalone="no" ?>
<gpx xmlns="http://www.topografix.com/GPX/1/1" xmlns:xsi="http://www.w3.org/2001/XMLSchema-instance" xsi:schemaLocation="http://www.topografix.com/GPX/1/1 http://www.topografix.com/GPX/1/1/gpx.xsd" version="1.1" creator="VisuGPX - https://www.visugpx.com">
  <metadata>
    <name>Course à pied le midi</name>
  </metadata>
  <trk>
    <name><![CDATA[Course à pied le midi_1]]></name>
    <trkseg>
      <trkpt lat="43.64762" lon="1.37621">
        <ele>151</ele>
        <time>2024-12-16T11:06:42Z</time>
      </trkpt>
      <trkpt lat="43.64763" lon="1.37618">
        <ele>151</ele>
        <time>2024-12-16T11:06:43Z</time>
      </trkpt>
      <trkpt lat="43.64763" lon="1.37618">
        <ele>151</ele>
        <time>2024-12-16T11:06:44Z</time>
      </trkpt>
      <trkpt lat="43.64765" lon="1.37613">
        <ele>151</ele>
        <time>2024-12-16T11:06:45Z</time>
      </trkpt>
      <trkpt lat="43.64767" lon="1.37611">
        <ele>150</ele>
        <time>2024-12-16T11:06:46Z</time>
      </trkpt>
      <trkpt lat="43.64769" lon="1.3761">
        <ele>150</ele>
        <time>2024-12-16T11:06:47Z</time>
      </trkpt>
      <trkpt lat="43.64769" lon="1.3761">
        <ele>150</ele>
        <time>2024-12-16T11:06:48Z</time>
      </trkpt>
      <trkpt lat="43.64773" lon="1.37607">
        <ele>150</ele>
        <time>2024-12-16T11:06:49Z</time>
      </trkpt>
      <trkpt lat="43.64775" lon="1.37606">
        <ele>150</ele>
        <time>2024-12-16T11:06:50Z</time>
      </trkpt>
      <trkpt lat="43.64775" lon="1.37606">
        <ele>150</ele>
        <time>2024-12-16T11:06:51Z</time>
      </trkpt>
      <trkpt lat="43.64779" lon="1.37604">
        <ele>150</ele>
        <time>2024-12-16T11:06:52Z</time>
      </trkpt>
      <trkpt lat="43.64779" lon="1.37604">
        <ele>151</ele>
        <time>2024-12-16T11:06:53Z</time>
      </trkpt>
      <trkpt lat="43.64784" lon="1.37602">
        <ele>151</ele>
        <time>2024-12-16T11:06:54Z</time>
      </trkpt>
      <trkpt lat="43.64786" lon="1.37602">
        <ele>150</ele>
        <time>2024-12-16T11:06:55Z</time>
      </trkpt>
      <trkpt lat="43.64788" lon="1.37601">
        <ele>150</ele>
        <time>2024-12-16T11:06:56Z</time>
      </trkpt>
      <trkpt lat="43.6479" lon="1.376">
        <ele>150</ele>
        <time>2024-12-16T11:06:57Z</time>
      </trkpt>
      <trkpt lat="43.6479" lon="1.376">
        <ele>150</ele>
        <time>2024-12-16T11:06:58Z</time>
      </trkpt>
      <trkpt lat="43.64794" lon="1.37599">
        <ele>150</ele>
        <time>2024-12-16T11:06:59Z</time>
      </trkpt>
      <trkpt lat="43.64796" lon="1.37598">
        <ele>150</ele>
        <time>2024-12-16T11:07:00Z</time>
      </trkpt>
      <trkpt lat="43.64796" lon="1.37598">
        <ele>150</ele>
        <time>2024-12-16T11:07:01Z</time>
      </trkpt>
      <trkpt lat="43.648" lon="1.37598">
        <ele>150</ele>
        <time>2024-12-16T11:07:02Z</time>
      </trkpt>
      <trkpt lat="43.648" lon="1.37598">
        <ele>150</ele>
        <time>2024-12-16T11:07:03Z</time>
      </trkpt>
      <trkpt lat="43.64805" lon="1.37599">
        <ele>150</ele>
        <time>2024-12-16T11:07:04Z</time>
      </trkpt>
      <trkpt lat="43.64808" lon="1.37601">
        <ele>150</ele>
        <time>2024-12-16T11:07:05Z</time>
      </trkpt>
      <trkpt lat="43.64808" lon="1.37601">
        <ele>150</ele>
        <time>2024-12-16T11:07:06Z</time>
      </trkpt>
      <trkpt lat="43.6481" lon="1.37602">
        <ele>150</ele>
        <time>2024-12-16T11:07:07Z</time>
      </trkpt>
      <trkpt lat="43.6481" lon="1.37602">
        <ele>150</ele>
        <time>2024-12-16T11:07:08Z</time>
      </trkpt>
      <trkpt lat="43.64815" lon="1.37604">
        <ele>150</ele>
        <time>2024-12-16T11:07:09Z</time>
      </trkpt>
      <trkpt lat="43.64817" lon="1.37605">
        <ele>150</ele>
        <time>2024-12-16T11:07:10Z</time>
      </trkpt>
      <trkpt lat="43.64819" lon="1.37606">
        <ele>150</ele>
        <time>2024-12-16T11:07:11Z</time>
      </trkpt>
      <trkpt lat="43.64819" lon="1.37606">
        <ele>150</ele>
        <time>2024-12-16T11:07:12Z</time>
      </trkpt>
      <trkpt lat="43.64822" lon="1.37608">
        <ele>150</ele>
        <time>2024-12-16T11:07:13Z</time>
      </trkpt>
      <trkpt lat="43.64826" lon="1.37611">
        <ele>150</ele>
        <time>2024-12-16T11:07:14Z</time>
      </trkpt>
      <trkpt lat="43.64826" lon="1.37611">
        <ele>150</ele>
        <time>2024-12-16T11:07:15Z</time>
      </trkpt>
      <trkpt lat="43.64831" lon="1.37613">
        <ele>150</ele>
        <time>2024-12-16T11:07:16Z</time>
      </trkpt>
      <trkpt lat="43.64831" lon="1.37613">
        <ele>150</ele>
        <time>2024-12-16T11:07:17Z</time>
      </trkpt>
      <trkpt lat="43.64835" lon="1.37615">
        <ele>150</ele>
        <time>2024-12-16T11:07:18Z</time>
      </trkpt>
      <trkpt lat="43.64835" lon="1.37615">
        <ele>150</ele>
        <time>2024-12-16T11:07:19Z</time>
      </trkpt>
      <trkpt lat="43.6484" lon="1.37618">
        <ele>150</ele>
        <time>2024-12-16T11:07:20Z</time>
      </trkpt>
      <trkpt lat="43.64842" lon="1.3762">
        <ele>150</ele>
        <time>2024-12-16T11:07:21Z</time>
      </trkpt>
      <trkpt lat="43.64842" lon="1.3762">
        <ele>151</ele>
        <time>2024-12-16T11:07:22Z</time>
      </trkpt>
      <trkpt lat="43.64848" lon="1.37625">
        <ele>151</ele>
        <time>2024-12-16T11:07:23Z</time>
      </trkpt>
      <trkpt lat="43.64848" lon="1.37625">
        <ele>151</ele>
        <time>2024-12-16T11:07:24Z</time>
      </trkpt>
      <trkpt lat="43.64851" lon="1.37627">
        <ele>150</ele>
        <time>2024-12-16T11:07:25Z</time>
      </trkpt>
      <trkpt lat="43.64856" lon="1.37633">
        <ele>150</ele>
        <time>2024-12-16T11:07:26Z</time>
      </trkpt>
      <trkpt lat="43.64856" lon="1.37633">
        <ele>150</ele>
        <time>2024-12-16T11:07:27Z</time>
      </trkpt>
      <trkpt lat="43.6486" lon="1.37637">
        <ele>150</ele>
        <time>2024-12-16T11:07:28Z</time>
      </trkpt>
      <trkpt lat="43.64862" lon="1.3764">
        <ele>150</ele>
        <time>2024-12-16T11:07:29Z</time>
      </trkpt>
      <trkpt lat="43.64862" lon="1.3764">
        <ele>150</ele>
        <time>2024-12-16T11:07:30Z</time>
      </trkpt>
      <trkpt lat="43.64866" lon="1.37643">
        <ele>150</ele>
        <time>2024-12-16T11:07:31Z</time>
      </trkpt>
      <trkpt lat="43.64866" lon="1.37643">
        <ele>150</ele>
        <time>2024-12-16T11:07:32Z</time>
      </trkpt>
      <trkpt lat="43.64871" lon="1.37647">
        <ele>150</ele>
        <time>2024-12-16T11:07:33Z</time>
      </trkpt>
      <trkpt lat="43.64873" lon="1.3765">
        <ele>150</ele>
        <time>2024-12-16T11:07:34Z</time>
      </trkpt>
      <trkpt lat="43.64875" lon="1.37653">
        <ele>150</ele>
        <time>2024-12-16T11:07:35Z</time>
      </trkpt>
      <trkpt lat="43.64875" lon="1.37653">
        <ele>150</ele>
        <time>2024-12-16T11:07:36Z</time>
      </trkpt>
      <trkpt lat="43.64877" lon="1.37656">
        <ele>150</ele>
        <time>2024-12-16T11:07:37Z</time>
      </trkpt>
      <trkpt lat="43.64878" lon="1.37659">
        <ele>150</ele>
        <time>2024-12-16T11:07:38Z</time>
      </trkpt>
      <trkpt lat="43.64879" lon="1.37662">
        <ele>150</ele>
        <time>2024-12-16T11:07:39Z</time>
      </trkpt>
      <trkpt lat="43.6488" lon="1.37666">
        <ele>150</ele>
        <time>2024-12-16T11:07:40Z</time>
      </trkpt>
      <trkpt lat="43.64881" lon="1.37672">
        <ele>150</ele>
        <time>2024-12-16T11:07:41Z</time>
      </trkpt>
      <trkpt lat="43.64881" lon="1.37672">
        <ele>150</ele>
        <time>2024-12-16T11:07:42Z</time>
      </trkpt>
      <trkpt lat="43.64882" lon="1.37676">
        <ele>150</ele>
        <time>2024-12-16T11:07:43Z</time>
      </trkpt>
      <trkpt lat="43.64883" lon="1.37682">
        <ele>150</ele>
        <time>2024-12-16T11:07:44Z</time>
      </trkpt>
      <trkpt lat="43.64883" lon="1.37682">
        <ele>150</ele>
        <time>2024-12-16T11:07:45Z</time>
      </trkpt>
      <trkpt lat="43.64884" lon="1.37688">
        <ele>150</ele>
        <time>2024-12-16T11:07:46Z</time>
      </trkpt>
      <trkpt lat="43.64884" lon="1.37691">
        <ele>150</ele>
        <time>2024-12-16T11:07:47Z</time>
      </trkpt>
      <trkpt lat="43.64884" lon="1.37691">
        <ele>150</ele>
        <time>2024-12-16T11:07:48Z</time>
      </trkpt>
      <trkpt lat="43.64886" lon="1.37698">
        <ele>150</ele>
        <time>2024-12-16T11:07:49Z</time>
      </trkpt>
      <trkpt lat="43.64886" lon="1.37698">
        <ele>150</ele>
        <time>2024-12-16T11:07:50Z</time>
      </trkpt>
      <trkpt lat="43.64888" lon="1.37705">
        <ele>150</ele>
        <time>2024-12-16T11:07:51Z</time>
      </trkpt>
      <trkpt lat="43.64888" lon="1.37705">
        <ele>150</ele>
        <time>2024-12-16T11:07:52Z</time>
      </trkpt>
      <trkpt lat="43.6489" lon="1.37711">
        <ele>150</ele>
        <time>2024-12-16T11:07:53Z</time>
      </trkpt>
      <trkpt lat="43.64891" lon="1.37714">
        <ele>150</ele>
        <time>2024-12-16T11:07:54Z</time>
      </trkpt>
      <trkpt lat="43.64891" lon="1.37714">
        <ele>150</ele>
        <time>2024-12-16T11:07:55Z</time>
      </trkpt>
      <trkpt lat="43.64892" lon="1.37721">
        <ele>150</ele>
        <time>2024-12-16T11:07:56Z</time>
      </trkpt>
      <trkpt lat="43.64892" lon="1.37721">
        <ele>150</ele>
        <time>2024-12-16T11:07:57Z</time>
      </trkpt>
      <trkpt lat="43.64894" lon="1.37727">
        <ele>150</ele>
        <time>2024-12-16T11:07:58Z</time>
      </trkpt>
      <trkpt lat="43.64894" lon="1.37727">
        <ele>150</ele>
        <time>2024-12-16T11:07:59Z</time>
      </trkpt>
      <trkpt lat="43.64896" lon="1.37733">
        <ele>150</ele>
        <time>2024-12-16T11:08:00Z</time>
      </trkpt>
      <trkpt lat="43.64896" lon="1.37733">
        <ele>150</ele>
        <time>2024-12-16T11:08:01Z</time>
      </trkpt>
      <trkpt lat="43.64897" lon="1.37737">
        <ele>150</ele>
        <time>2024-12-16T11:08:02Z</time>
      </trkpt>
      <trkpt lat="43.64898" lon="1.37743">
        <ele>150</ele>
        <time>2024-12-16T11:08:03Z</time>
      </trkpt>
      <trkpt lat="43.64899" lon="1.37746">
        <ele>150</ele>
        <time>2024-12-16T11:08:04Z</time>
      </trkpt>
      <trkpt lat="43.649" lon="1.37749">
        <ele>150</ele>
        <time>2024-12-16T11:08:05Z</time>
      </trkpt>
      <trkpt lat="43.64901" lon="1.37752">
        <ele>150</ele>
        <time>2024-12-16T11:08:06Z</time>
      </trkpt>
      <trkpt lat="43.64901" lon="1.37755">
        <ele>150</ele>
        <time>2024-12-16T11:08:07Z</time>
      </trkpt>
      <trkpt lat="43.64901" lon="1.37755">
        <ele>150</ele>
        <time>2024-12-16T11:08:08Z</time>
      </trkpt>
      <trkpt lat="43.64902" lon="1.37758">
        <ele>150</ele>
        <time>2024-12-16T11:08:09Z</time>
      </trkpt>
      <trkpt lat="43.64902" lon="1.37761">
        <ele>150</ele>
        <time>2024-12-16T11:08:10Z</time>
      </trkpt>
      <trkpt lat="43.64903" lon="1.37767">
        <ele>150</ele>
        <time>2024-12-16T11:08:11Z</time>
      </trkpt>
      <trkpt lat="43.64904" lon="1.37771">
        <ele>150</ele>
        <time>2024-12-16T11:08:12Z</time>
      </trkpt>
      <trkpt lat="43.64905" lon="1.37774">
        <ele>149</ele>
        <time>2024-12-16T11:08:13Z</time>
      </trkpt>
      <trkpt lat="43.64905" lon="1.37774">
        <ele>149</ele>
        <time>2024-12-16T11:08:14Z</time>
      </trkpt>
      <trkpt lat="43.64906" lon="1.37777">
        <ele>149</ele>
        <time>2024-12-16T11:08:15Z</time>
      </trkpt>
      <trkpt lat="43.64907" lon="1.3778">
        <ele>149</ele>
        <time>2024-12-16T11:08:16Z</time>
      </trkpt>
      <trkpt lat="43.64909" lon="1.37787">
        <ele>149</ele>
        <time>2024-12-16T11:08:17Z</time>
      </trkpt>
      <trkpt lat="43.64909" lon="1.37787">
        <ele>149</ele>
        <time>2024-12-16T11:08:18Z</time>
      </trkpt>
      <trkpt lat="43.64909" lon="1.3779">
        <ele>149</ele>
        <time>2024-12-16T11:08:19Z</time>
      </trkpt>
      <trkpt lat="43.64911" lon="1.37792">
        <ele>149</ele>
        <time>2024-12-16T11:08:20Z</time>
      </trkpt>
      <trkpt lat="43.64912" lon="1.37799">
        <ele>149</ele>
        <time>2024-12-16T11:08:21Z</time>
      </trkpt>
      <trkpt lat="43.64913" lon="1.37802">
        <ele>149</ele>
        <time>2024-12-16T11:08:22Z</time>
      </trkpt>
      <trkpt lat="43.64913" lon="1.37805">
        <ele>149</ele>
        <time>2024-12-16T11:08:23Z</time>
      </trkpt>
      <trkpt lat="43.64914" lon="1.37807">
        <ele>149</ele>
        <time>2024-12-16T11:08:24Z</time>
      </trkpt>
      <trkpt lat="43.64914" lon="1.37807">
        <ele>149</ele>
        <time>2024-12-16T11:08:25Z</time>
      </trkpt>
      <trkpt lat="43.64915" lon="1.37811">
        <ele>149</ele>
        <time>2024-12-16T11:08:26Z</time>
      </trkpt>
      <trkpt lat="43.64915" lon="1.37814">
        <ele>149</ele>
        <time>2024-12-16T11:08:27Z</time>
      </trkpt>
      <trkpt lat="43.64916" lon="1.3782">
        <ele>149</ele>
        <time>2024-12-16T11:08:28Z</time>
      </trkpt>
      <trkpt lat="43.64916" lon="1.3782">
        <ele>149</ele>
        <time>2024-12-16T11:08:29Z</time>
      </trkpt>
      <trkpt lat="43.64918" lon="1.37826">
        <ele>149</ele>
        <time>2024-12-16T11:08:30Z</time>
      </trkpt>
      <trkpt lat="43.64918" lon="1.37826">
        <ele>149</ele>
        <time>2024-12-16T11:08:31Z</time>
      </trkpt>
      <trkpt lat="43.6492" lon="1.37833">
        <ele>149</ele>
        <time>2024-12-16T11:08:32Z</time>
      </trkpt>
      <trkpt lat="43.6492" lon="1.37833">
        <ele>149</ele>
        <time>2024-12-16T11:08:33Z</time>
      </trkpt>
      <trkpt lat="43.64921" lon="1.37836">
        <ele>149</ele>
        <time>2024-12-16T11:08:34Z</time>
      </trkpt>
      <trkpt lat="43.64921" lon="1.3784">
        <ele>149</ele>
        <time>2024-12-16T11:08:35Z</time>
      </trkpt>
      <trkpt lat="43.64923" lon="1.37846">
        <ele>149</ele>
        <time>2024-12-16T11:08:36Z</time>
      </trkpt>
      <trkpt lat="43.64923" lon="1.37846">
        <ele>149</ele>
        <time>2024-12-16T11:08:37Z</time>
      </trkpt>
      <trkpt lat="43.64924" lon="1.3785">
        <ele>149</ele>
        <time>2024-12-16T11:08:38Z</time>
      </trkpt>
      <trkpt lat="43.64924" lon="1.37853">
        <ele>149</ele>
        <time>2024-12-16T11:08:39Z</time>
      </trkpt>
      <trkpt lat="43.64926" lon="1.37859">
        <ele>149</ele>
        <time>2024-12-16T11:08:40Z</time>
      </trkpt>
      <trkpt lat="43.64926" lon="1.37859">
        <ele>149</ele>
        <time>2024-12-16T11:08:41Z</time>
      </trkpt>
      <trkpt lat="43.64928" lon="1.37865">
        <ele>149</ele>
        <time>2024-12-16T11:08:42Z</time>
      </trkpt>
      <trkpt lat="43.64929" lon="1.37868">
        <ele>149</ele>
        <time>2024-12-16T11:08:43Z</time>
      </trkpt>
      <trkpt lat="43.64929" lon="1.37868">
        <ele>149</ele>
        <time>2024-12-16T11:08:44Z</time>
      </trkpt>
      <trkpt lat="43.6493" lon="1.37874">
        <ele>149</ele>
        <time>2024-12-16T11:08:45Z</time>
      </trkpt>
      <trkpt lat="43.6493" lon="1.37878">
        <ele>149</ele>
        <time>2024-12-16T11:08:46Z</time>
      </trkpt>
      <trkpt lat="43.64931" lon="1.37881">
        <ele>149</ele>
        <time>2024-12-16T11:08:47Z</time>
      </trkpt>
      <trkpt lat="43.64931" lon="1.37881">
        <ele>149</ele>
        <time>2024-12-16T11:08:48Z</time>
      </trkpt>
      <trkpt lat="43.64932" lon="1.37884">
        <ele>149</ele>
        <time>2024-12-16T11:08:49Z</time>
      </trkpt>
      <trkpt lat="43.64933" lon="1.37887">
        <ele>149</ele>
        <time>2024-12-16T11:08:50Z</time>
      </trkpt>
      <trkpt lat="43.64934" lon="1.37893">
        <ele>149</ele>
        <time>2024-12-16T11:08:51Z</time>
      </trkpt>
      <trkpt lat="43.64934" lon="1.37893">
        <ele>149</ele>
        <time>2024-12-16T11:08:52Z</time>
      </trkpt>
      <trkpt lat="43.64936" lon="1.37899">
        <ele>149</ele>
        <time>2024-12-16T11:08:53Z</time>
      </trkpt>
      <trkpt lat="43.64936" lon="1.37899">
        <ele>149</ele>
        <time>2024-12-16T11:08:54Z</time>
      </trkpt>
      <trkpt lat="43.64938" lon="1.37906">
        <ele>149</ele>
        <time>2024-12-16T11:08:55Z</time>
      </trkpt>
      <trkpt lat="43.64938" lon="1.37906">
        <ele>149</ele>
        <time>2024-12-16T11:08:56Z</time>
      </trkpt>
      <trkpt lat="43.6494" lon="1.37913">
        <ele>149</ele>
        <time>2024-12-16T11:08:57Z</time>
      </trkpt>
      <trkpt lat="43.6494" lon="1.37913">
        <ele>149</ele>
        <time>2024-12-16T11:08:58Z</time>
      </trkpt>
      <trkpt lat="43.64941" lon="1.37916">
        <ele>148</ele>
        <time>2024-12-16T11:08:59Z</time>
      </trkpt>
      <trkpt lat="43.64943" lon="1.37923">
        <ele>148</ele>
        <time>2024-12-16T11:09:00Z</time>
      </trkpt>
      <trkpt lat="43.64943" lon="1.37923">
        <ele>148</ele>
        <time>2024-12-16T11:09:01Z</time>
      </trkpt>
      <trkpt lat="43.64945" lon="1.37929">
        <ele>149</ele>
        <time>2024-12-16T11:09:02Z</time>
      </trkpt>
      <trkpt lat="43.64945" lon="1.37929">
        <ele>149</ele>
        <time>2024-12-16T11:09:03Z</time>
      </trkpt>
      <trkpt lat="43.64946" lon="1.37935">
        <ele>149</ele>
        <time>2024-12-16T11:09:04Z</time>
      </trkpt>
      <trkpt lat="43.64947" lon="1.37938">
        <ele>149</ele>
        <time>2024-12-16T11:09:05Z</time>
      </trkpt>
      <trkpt lat="43.64947" lon="1.37938">
        <ele>149</ele>
        <time>2024-12-16T11:09:06Z</time>
      </trkpt>
      <trkpt lat="43.64947" lon="1.37941">
        <ele>149</ele>
        <time>2024-12-16T11:09:07Z</time>
      </trkpt>
      <trkpt lat="43.64948" lon="1.37947">
        <ele>149</ele>
        <time>2024-12-16T11:09:08Z</time>
      </trkpt>
      <trkpt lat="43.64949" lon="1.3795">
        <ele>149</ele>
        <time>2024-12-16T11:09:09Z</time>
      </trkpt>
      <trkpt lat="43.64949" lon="1.3795">
        <ele>149</ele>
        <time>2024-12-16T11:09:10Z</time>
      </trkpt>
      <trkpt lat="43.6495" lon="1.37957">
        <ele>149</ele>
        <time>2024-12-16T11:09:11Z</time>
      </trkpt>
      <trkpt lat="43.6495" lon="1.37957">
        <ele>149</ele>
        <time>2024-12-16T11:09:12Z</time>
      </trkpt>
      <trkpt lat="43.64951" lon="1.37963">
        <ele>149</ele>
        <time>2024-12-16T11:09:13Z</time>
      </trkpt>
      <trkpt lat="43.64951" lon="1.37966">
        <ele>148</ele>
        <time>2024-12-16T11:09:14Z</time>
      </trkpt>
      <trkpt lat="43.64951" lon="1.37966">
        <ele>148</ele>
        <time>2024-12-16T11:09:15Z</time>
      </trkpt>
      <trkpt lat="43.64952" lon="1.37973">
        <ele>148</ele>
        <time>2024-12-16T11:09:16Z</time>
      </trkpt>
      <trkpt lat="43.64952" lon="1.37973">
        <ele>148</ele>
        <time>2024-12-16T11:09:17Z</time>
      </trkpt>
      <trkpt lat="43.64953" lon="1.3798">
        <ele>148</ele>
        <time>2024-12-16T11:09:18Z</time>
      </trkpt>
      <trkpt lat="43.64953" lon="1.3798">
        <ele>147</ele>
        <time>2024-12-16T11:09:19Z</time>
      </trkpt>
      <trkpt lat="43.64954" lon="1.37988">
        <ele>147</ele>
        <time>2024-12-16T11:09:20Z</time>
      </trkpt>
      <trkpt lat="43.64954" lon="1.37988">
        <ele>147</ele>
        <time>2024-12-16T11:09:21Z</time>
      </trkpt>
      <trkpt lat="43.64955" lon="1.37991">
        <ele>148</ele>
        <time>2024-12-16T11:09:22Z</time>
      </trkpt>
      <trkpt lat="43.64959" lon="1.37995">
        <ele>148</ele>
        <time>2024-12-16T11:09:23Z</time>
      </trkpt>
      <trkpt lat="43.64959" lon="1.37995">
        <ele>147</ele>
        <time>2024-12-16T11:09:24Z</time>
      </trkpt>
      <trkpt lat="43.64961" lon="1.38">
        <ele>147</ele>
        <time>2024-12-16T11:09:25Z</time>
      </trkpt>
      <trkpt lat="43.64961" lon="1.38">
        <ele>147</ele>
        <time>2024-12-16T11:09:26Z</time>
      </trkpt>
      <trkpt lat="43.64964" lon="1.38006">
        <ele>148</ele>
        <time>2024-12-16T11:09:27Z</time>
      </trkpt>
      <trkpt lat="43.64965" lon="1.38009">
        <ele>148</ele>
        <time>2024-12-16T11:09:28Z</time>
      </trkpt>
      <trkpt lat="43.64965" lon="1.38009">
        <ele>148</ele>
        <time>2024-12-16T11:09:29Z</time>
      </trkpt>
      <trkpt lat="43.64967" lon="1.38015">
        <ele>148</ele>
        <time>2024-12-16T11:09:30Z</time>
      </trkpt>
      <trkpt lat="43.64967" lon="1.38015">
        <ele>148</ele>
        <time>2024-12-16T11:09:31Z</time>
      </trkpt>
      <trkpt lat="43.64969" lon="1.38022">
        <ele>148</ele>
        <time>2024-12-16T11:09:32Z</time>
      </trkpt>
      <trkpt lat="43.6497" lon="1.38025">
        <ele>148</ele>
        <time>2024-12-16T11:09:33Z</time>
      </trkpt>
      <trkpt lat="43.6497" lon="1.38025">
        <ele>148</ele>
        <time>2024-12-16T11:09:34Z</time>
      </trkpt>
      <trkpt lat="43.64971" lon="1.38028">
        <ele>148</ele>
        <time>2024-12-16T11:09:35Z</time>
      </trkpt>
      <trkpt lat="43.64973" lon="1.38034">
        <ele>147</ele>
        <time>2024-12-16T11:09:36Z</time>
      </trkpt>
      <trkpt lat="43.64973" lon="1.38034">
        <ele>147</ele>
        <time>2024-12-16T11:09:37Z</time>
      </trkpt>
      <trkpt lat="43.64973" lon="1.38036">
        <ele>147</ele>
        <time>2024-12-16T11:09:38Z</time>
      </trkpt>
      <trkpt lat="43.64975" lon="1.38043">
        <ele>147</ele>
        <time>2024-12-16T11:09:39Z</time>
      </trkpt>
      <trkpt lat="43.64976" lon="1.38046">
        <ele>147</ele>
        <time>2024-12-16T11:09:40Z</time>
      </trkpt>
      <trkpt lat="43.64977" lon="1.3805">
        <ele>147</ele>
        <time>2024-12-16T11:09:41Z</time>
      </trkpt>
      <trkpt lat="43.64978" lon="1.38054">
        <ele>148</ele>
        <time>2024-12-16T11:09:42Z</time>
      </trkpt>
      <trkpt lat="43.6498" lon="1.38057">
        <ele>148</ele>
        <time>2024-12-16T11:09:43Z</time>
      </trkpt>
      <trkpt lat="43.6498" lon="1.38057">
        <ele>148</ele>
        <time>2024-12-16T11:09:44Z</time>
      </trkpt>
      <trkpt lat="43.64982" lon="1.3806">
        <ele>148</ele>
        <time>2024-12-16T11:09:45Z</time>
      </trkpt>
      <trkpt lat="43.64985" lon="1.38065">
        <ele>148</ele>
        <time>2024-12-16T11:09:46Z</time>
      </trkpt>
      <trkpt lat="43.64986" lon="1.38068">
        <ele>148</ele>
        <time>2024-12-16T11:09:47Z</time>
      </trkpt>
      <trkpt lat="43.64987" lon="1.38072">
        <ele>148</ele>
        <time>2024-12-16T11:09:48Z</time>
      </trkpt>
      <trkpt lat="43.64988" lon="1.38075">
        <ele>148</ele>
        <time>2024-12-16T11:09:49Z</time>
      </trkpt>
      <trkpt lat="43.6499" lon="1.38079">
        <ele>149</ele>
        <time>2024-12-16T11:09:50Z</time>
      </trkpt>
      <trkpt lat="43.6499" lon="1.38079">
        <ele>149</ele>
        <time>2024-12-16T11:09:51Z</time>
      </trkpt>
      <trkpt lat="43.64993" lon="1.38085">
        <ele>149</ele>
        <time>2024-12-16T11:09:52Z</time>
      </trkpt>
      <trkpt lat="43.64993" lon="1.38085">
        <ele>149</ele>
        <time>2024-12-16T11:09:53Z</time>
      </trkpt>
      <trkpt lat="43.64995" lon="1.38091">
        <ele>149</ele>
        <time>2024-12-16T11:09:54Z</time>
      </trkpt>
      <trkpt lat="43.64995" lon="1.38091">
        <ele>149</ele>
        <time>2024-12-16T11:09:55Z</time>
      </trkpt>
      <trkpt lat="43.64997" lon="1.38098">
        <ele>149</ele>
        <time>2024-12-16T11:09:56Z</time>
      </trkpt>
      <trkpt lat="43.64998" lon="1.38101">
        <ele>149</ele>
        <time>2024-12-16T11:09:57Z</time>
      </trkpt>
      <trkpt lat="43.64999" lon="1.38104">
        <ele>149</ele>
        <time>2024-12-16T11:09:58Z</time>
      </trkpt>
      <trkpt lat="43.65001" lon="1.38108">
        <ele>149</ele>
        <time>2024-12-16T11:09:59Z</time>
      </trkpt>
      <trkpt lat="43.65001" lon="1.38108">
        <ele>149</ele>
        <time>2024-12-16T11:10:00Z</time>
      </trkpt>
      <trkpt lat="43.65003" lon="1.38114">
        <ele>149</ele>
        <time>2024-12-16T11:10:01Z</time>
      </trkpt>
      <trkpt lat="43.65003" lon="1.38114">
        <ele>149</ele>
        <time>2024-12-16T11:10:02Z</time>
      </trkpt>
      <trkpt lat="43.65005" lon="1.38121">
        <ele>149</ele>
        <time>2024-12-16T11:10:03Z</time>
      </trkpt>
      <trkpt lat="43.65005" lon="1.38121">
        <ele>149</ele>
        <time>2024-12-16T11:10:04Z</time>
      </trkpt>
      <trkpt lat="43.65008" lon="1.38128">
        <ele>149</ele>
        <time>2024-12-16T11:10:05Z</time>
      </trkpt>
      <trkpt lat="43.65009" lon="1.38131">
        <ele>149</ele>
        <time>2024-12-16T11:10:06Z</time>
      </trkpt>
      <trkpt lat="43.65009" lon="1.38131">
        <ele>149</ele>
        <time>2024-12-16T11:10:07Z</time>
      </trkpt>
      <trkpt lat="43.65011" lon="1.38138">
        <ele>149</ele>
        <time>2024-12-16T11:10:08Z</time>
      </trkpt>
      <trkpt lat="43.65011" lon="1.38142">
        <ele>149</ele>
        <time>2024-12-16T11:10:09Z</time>
      </trkpt>
      <trkpt lat="43.6501" lon="1.38146">
        <ele>149</ele>
        <time>2024-12-16T11:10:10Z</time>
      </trkpt>
      <trkpt lat="43.6501" lon="1.3815">
        <ele>149</ele>
        <time>2024-12-16T11:10:11Z</time>
      </trkpt>
      <trkpt lat="43.6501" lon="1.3815">
        <ele>149</ele>
        <time>2024-12-16T11:10:12Z</time>
      </trkpt>
      <trkpt lat="43.65006" lon="1.38157">
        <ele>149</ele>
        <time>2024-12-16T11:10:13Z</time>
      </trkpt>
      <trkpt lat="43.65006" lon="1.38157">
        <ele>149</ele>
        <time>2024-12-16T11:10:14Z</time>
      </trkpt>
      <trkpt lat="43.65003" lon="1.38164">
        <ele>148</ele>
        <time>2024-12-16T11:10:15Z</time>
      </trkpt>
      <trkpt lat="43.65003" lon="1.38164">
        <ele>148</ele>
        <time>2024-12-16T11:10:16Z</time>
      </trkpt>
      <trkpt lat="43.65002" lon="1.38168">
        <ele>149</ele>
        <time>2024-12-16T11:10:17Z</time>
      </trkpt>
      <trkpt lat="43.65001" lon="1.38172">
        <ele>150</ele>
        <time>2024-12-16T11:10:18Z</time>
      </trkpt>
      <trkpt lat="43.65001" lon="1.38175">
        <ele>150</ele>
        <time>2024-12-16T11:10:19Z</time>
      </trkpt>
      <trkpt lat="43.65001" lon="1.38179">
        <ele>150</ele>
        <time>2024-12-16T11:10:20Z</time>
      </trkpt>
      <trkpt lat="43.65001" lon="1.38179">
        <ele>150</ele>
        <time>2024-12-16T11:10:21Z</time>
      </trkpt>
      <trkpt lat="43.65002" lon="1.38184">
        <ele>149</ele>
        <time>2024-12-16T11:10:22Z</time>
      </trkpt>
      <trkpt lat="43.65004" lon="1.38186">
        <ele>149</ele>
        <time>2024-12-16T11:10:23Z</time>
      </trkpt>
      <trkpt lat="43.65004" lon="1.38186">
        <ele>149</ele>
        <time>2024-12-16T11:10:24Z</time>
      </trkpt>
      <trkpt lat="43.65006" lon="1.3819">
        <ele>149</ele>
        <time>2024-12-16T11:10:25Z</time>
      </trkpt>
      <trkpt lat="43.65008" lon="1.38192">
        <ele>148</ele>
        <time>2024-12-16T11:10:26Z</time>
      </trkpt>
      <trkpt lat="43.65008" lon="1.38192">
        <ele>148</ele>
        <time>2024-12-16T11:10:27Z</time>
      </trkpt>
      <trkpt lat="43.65009" lon="1.38195">
        <ele>148</ele>
        <time>2024-12-16T11:10:28Z</time>
      </trkpt>
      <trkpt lat="43.65011" lon="1.38199">
        <ele>148</ele>
        <time>2024-12-16T11:10:29Z</time>
      </trkpt>
      <trkpt lat="43.65015" lon="1.38206">
        <ele>148</ele>
        <time>2024-12-16T11:10:30Z</time>
      </trkpt>
      <trkpt lat="43.65015" lon="1.38206">
        <ele>148</ele>
        <time>2024-12-16T11:10:31Z</time>
      </trkpt>
      <trkpt lat="43.65016" lon="1.38209">
        <ele>148</ele>
        <time>2024-12-16T11:10:32Z</time>
      </trkpt>
      <trkpt lat="43.65017" lon="1.38212">
        <ele>148</ele>
        <time>2024-12-16T11:10:33Z</time>
      </trkpt>
      <trkpt lat="43.65018" lon="1.38218">
        <ele>149</ele>
        <time>2024-12-16T11:10:34Z</time>
      </trkpt>
      <trkpt lat="43.65019" lon="1.38221">
        <ele>149</ele>
        <time>2024-12-16T11:10:35Z</time>
      </trkpt>
      <trkpt lat="43.6502" lon="1.38225">
        <ele>149</ele>
        <time>2024-12-16T11:10:36Z</time>
      </trkpt>
      <trkpt lat="43.6502" lon="1.38228">
        <ele>149</ele>
        <time>2024-12-16T11:10:37Z</time>
      </trkpt>
      <trkpt lat="43.6502" lon="1.38228">
        <ele>149</ele>
        <time>2024-12-16T11:10:38Z</time>
      </trkpt>
      <trkpt lat="43.65021" lon="1.38231">
        <ele>149</ele>
        <time>2024-12-16T11:10:39Z</time>
      </trkpt>
      <trkpt lat="43.65021" lon="1.38234">
        <ele>149</ele>
        <time>2024-12-16T11:10:40Z</time>
      </trkpt>
      <trkpt lat="43.65022" lon="1.3824">
        <ele>149</ele>
        <time>2024-12-16T11:10:41Z</time>
      </trkpt>
      <trkpt lat="43.65022" lon="1.3824">
        <ele>149</ele>
        <time>2024-12-16T11:10:42Z</time>
      </trkpt>
      <trkpt lat="43.65023" lon="1.38245">
        <ele>149</ele>
        <time>2024-12-16T11:10:43Z</time>
      </trkpt>
      <trkpt lat="43.65023" lon="1.38245">
        <ele>149</ele>
        <time>2024-12-16T11:10:44Z</time>
      </trkpt>
      <trkpt lat="43.65025" lon="1.38251">
        <ele>149</ele>
        <time>2024-12-16T11:10:45Z</time>
      </trkpt>
      <trkpt lat="43.65026" lon="1.38255">
        <ele>149</ele>
        <time>2024-12-16T11:10:46Z</time>
      </trkpt>
      <trkpt lat="43.65027" lon="1.38258">
        <ele>149</ele>
        <time>2024-12-16T11:10:47Z</time>
      </trkpt>
      <trkpt lat="43.65027" lon="1.38258">
        <ele>150</ele>
        <time>2024-12-16T11:10:48Z</time>
      </trkpt>
      <trkpt lat="43.6503" lon="1.38265">
        <ele>150</ele>
        <time>2024-12-16T11:10:49Z</time>
      </trkpt>
      <trkpt lat="43.6503" lon="1.38265">
        <ele>150</ele>
        <time>2024-12-16T11:10:50Z</time>
      </trkpt>
      <trkpt lat="43.65033" lon="1.38272">
        <ele>150</ele>
        <time>2024-12-16T11:10:51Z</time>
      </trkpt>
      <trkpt lat="43.65033" lon="1.38272">
        <ele>150</ele>
        <time>2024-12-16T11:10:52Z</time>
      </trkpt>
      <trkpt lat="43.65034" lon="1.38278">
        <ele>150</ele>
        <time>2024-12-16T11:10:53Z</time>
      </trkpt>
      <trkpt lat="43.65035" lon="1.38281">
        <ele>149</ele>
        <time>2024-12-16T11:10:54Z</time>
      </trkpt>
      <trkpt lat="43.65035" lon="1.38281">
        <ele>149</ele>
        <time>2024-12-16T11:10:55Z</time>
      </trkpt>
      <trkpt lat="43.65036" lon="1.38284">
        <ele>149</ele>
        <time>2024-12-16T11:10:56Z</time>
      </trkpt>
      <trkpt lat="43.65037" lon="1.38288">
        <ele>150</ele>
        <time>2024-12-16T11:10:57Z</time>
      </trkpt>
      <trkpt lat="43.65039" lon="1.38295">
        <ele>150</ele>
        <time>2024-12-16T11:10:58Z</time>
      </trkpt>
      <trkpt lat="43.65039" lon="1.38295">
        <ele>149</ele>
        <time>2024-12-16T11:10:59Z</time>
      </trkpt>
      <trkpt lat="43.65041" lon="1.38301">
        <ele>149</ele>
        <time>2024-12-16T11:11:00Z</time>
      </trkpt>
      <trkpt lat="43.65041" lon="1.38301">
        <ele>149</ele>
        <time>2024-12-16T11:11:01Z</time>
      </trkpt>
      <trkpt lat="43.65044" lon="1.38308">
        <ele>149</ele>
        <time>2024-12-16T11:11:02Z</time>
      </trkpt>
      <trkpt lat="43.65044" lon="1.38308">
        <ele>149</ele>
        <time>2024-12-16T11:11:03Z</time>
      </trkpt>
      <trkpt lat="43.65046" lon="1.38315">
        <ele>149</ele>
        <time>2024-12-16T11:11:04Z</time>
      </trkpt>
      <trkpt lat="43.65047" lon="1.38318">
        <ele>149</ele>
        <time>2024-12-16T11:11:05Z</time>
      </trkpt>
      <trkpt lat="43.65048" lon="1.38321">
        <ele>149</ele>
        <time>2024-12-16T11:11:06Z</time>
      </trkpt>
      <trkpt lat="43.6505" lon="1.38324">
        <ele>149</ele>
        <time>2024-12-16T11:11:07Z</time>
      </trkpt>
      <trkpt lat="43.65051" lon="1.38328">
        <ele>149</ele>
        <time>2024-12-16T11:11:08Z</time>
      </trkpt>
      <trkpt lat="43.65051" lon="1.38328">
        <ele>149</ele>
        <time>2024-12-16T11:11:09Z</time>
      </trkpt>
      <trkpt lat="43.65053" lon="1.38334">
        <ele>148</ele>
        <time>2024-12-16T11:11:10Z</time>
      </trkpt>
      <trkpt lat="43.65053" lon="1.38334">
        <ele>149</ele>
        <time>2024-12-16T11:11:11Z</time>
      </trkpt>
      <trkpt lat="43.65055" lon="1.38341">
        <ele>149</ele>
        <time>2024-12-16T11:11:12Z</time>
      </trkpt>
      <trkpt lat="43.65055" lon="1.38341">
        <ele>149</ele>
        <time>2024-12-16T11:11:13Z</time>
      </trkpt>
      <trkpt lat="43.65056" lon="1.38344">
        <ele>149</ele>
        <time>2024-12-16T11:11:14Z</time>
      </trkpt>
      <trkpt lat="43.65058" lon="1.3835">
        <ele>149</ele>
        <time>2024-12-16T11:11:15Z</time>
      </trkpt>
      <trkpt lat="43.65058" lon="1.3835">
        <ele>149</ele>
        <time>2024-12-16T11:11:16Z</time>
      </trkpt>
      <trkpt lat="43.6506" lon="1.38356">
        <ele>149</ele>
        <time>2024-12-16T11:11:17Z</time>
      </trkpt>
      <trkpt lat="43.6506" lon="1.38356">
        <ele>149</ele>
        <time>2024-12-16T11:11:18Z</time>
      </trkpt>
      <trkpt lat="43.65063" lon="1.38362">
        <ele>149</ele>
        <time>2024-12-16T11:11:19Z</time>
      </trkpt>
      <trkpt lat="43.65064" lon="1.38366">
        <ele>149</ele>
        <time>2024-12-16T11:11:20Z</time>
      </trkpt>
      <trkpt lat="43.65064" lon="1.38366">
        <ele>149</ele>
        <time>2024-12-16T11:11:21Z</time>
      </trkpt>
      <trkpt lat="43.65066" lon="1.38372">
        <ele>149</ele>
        <time>2024-12-16T11:11:22Z</time>
      </trkpt>
      <trkpt lat="43.65066" lon="1.38372">
        <ele>149</ele>
        <time>2024-12-16T11:11:23Z</time>
      </trkpt>
      <trkpt lat="43.65068" lon="1.38379">
        <ele>149</ele>
        <time>2024-12-16T11:11:24Z</time>
      </trkpt>
      <trkpt lat="43.65069" lon="1.38383">
        <ele>149</ele>
        <time>2024-12-16T11:11:25Z</time>
      </trkpt>
      <trkpt lat="43.6507" lon="1.38386">
        <ele>148</ele>
        <time>2024-12-16T11:11:26Z</time>
      </trkpt>
      <trkpt lat="43.65071" lon="1.38389">
        <ele>148</ele>
        <time>2024-12-16T11:11:27Z</time>
      </trkpt>
      <trkpt lat="43.65071" lon="1.38389">
        <ele>148</ele>
        <time>2024-12-16T11:11:28Z</time>
      </trkpt>
      <trkpt lat="43.65072" lon="1.38392">
        <ele>148</ele>
        <time>2024-12-16T11:11:29Z</time>
      </trkpt>
      <trkpt lat="43.65072" lon="1.38395">
        <ele>149</ele>
        <time>2024-12-16T11:11:30Z</time>
      </trkpt>
      <trkpt lat="43.65073" lon="1.38398">
        <ele>150</ele>
        <time>2024-12-16T11:11:31Z</time>
      </trkpt>
      <trkpt lat="43.65075" lon="1.38404">
        <ele>150</ele>
        <time>2024-12-16T11:11:32Z</time>
      </trkpt>
      <trkpt lat="43.65075" lon="1.38404">
        <ele>150</ele>
        <time>2024-12-16T11:11:33Z</time>
      </trkpt>
      <trkpt lat="43.65077" lon="1.38411">
        <ele>150</ele>
        <time>2024-12-16T11:11:34Z</time>
      </trkpt>
      <trkpt lat="43.65077" lon="1.38411">
        <ele>150</ele>
        <time>2024-12-16T11:11:35Z</time>
      </trkpt>
      <trkpt lat="43.65078" lon="1.38414">
        <ele>150</ele>
        <time>2024-12-16T11:11:36Z</time>
      </trkpt>
      <trkpt lat="43.6508" lon="1.38421">
        <ele>150</ele>
        <time>2024-12-16T11:11:37Z</time>
      </trkpt>
      <trkpt lat="43.6508" lon="1.38421">
        <ele>150</ele>
        <time>2024-12-16T11:11:38Z</time>
      </trkpt>
      <trkpt lat="43.65082" lon="1.38427">
        <ele>150</ele>
        <time>2024-12-16T11:11:39Z</time>
      </trkpt>
      <trkpt lat="43.65082" lon="1.38427">
        <ele>150</ele>
        <time>2024-12-16T11:11:40Z</time>
      </trkpt>
      <trkpt lat="43.65083" lon="1.38432">
        <ele>150</ele>
        <time>2024-12-16T11:11:41Z</time>
      </trkpt>
      <trkpt lat="43.65084" lon="1.38435">
        <ele>150</ele>
        <time>2024-12-16T11:11:42Z</time>
      </trkpt>
      <trkpt lat="43.65085" lon="1.38439">
        <ele>150</ele>
        <time>2024-12-16T11:11:43Z</time>
      </trkpt>
      <trkpt lat="43.65086" lon="1.38441">
        <ele>149</ele>
        <time>2024-12-16T11:11:44Z</time>
      </trkpt>
      <trkpt lat="43.65087" lon="1.38444">
        <ele>149</ele>
        <time>2024-12-16T11:11:45Z</time>
      </trkpt>
      <trkpt lat="43.65087" lon="1.38444">
        <ele>149</ele>
        <time>2024-12-16T11:11:46Z</time>
      </trkpt>
      <trkpt lat="43.65089" lon="1.38447">
        <ele>149</ele>
        <time>2024-12-16T11:11:47Z</time>
      </trkpt>
      <trkpt lat="43.65091" lon="1.38454">
        <ele>149</ele>
        <time>2024-12-16T11:11:48Z</time>
      </trkpt>
      <trkpt lat="43.65091" lon="1.38454">
        <ele>149</ele>
        <time>2024-12-16T11:11:49Z</time>
      </trkpt>
      <trkpt lat="43.65093" lon="1.3846">
        <ele>149</ele>
        <time>2024-12-16T11:11:50Z</time>
      </trkpt>
      <trkpt lat="43.65094" lon="1.38463">
        <ele>149</ele>
        <time>2024-12-16T11:11:51Z</time>
      </trkpt>
      <trkpt lat="43.65094" lon="1.38463">
        <ele>149</ele>
        <time>2024-12-16T11:11:52Z</time>
      </trkpt>
      <trkpt lat="43.65097" lon="1.3847">
        <ele>149</ele>
        <time>2024-12-16T11:11:53Z</time>
      </trkpt>
      <trkpt lat="43.65098" lon="1.38473">
        <ele>149</ele>
        <time>2024-12-16T11:11:54Z</time>
      </trkpt>
      <trkpt lat="43.65099" lon="1.38477">
        <ele>149</ele>
        <time>2024-12-16T11:11:55Z</time>
      </trkpt>
      <trkpt lat="43.651" lon="1.3848">
        <ele>149</ele>
        <time>2024-12-16T11:11:56Z</time>
      </trkpt>
      <trkpt lat="43.651" lon="1.3848">
        <ele>149</ele>
        <time>2024-12-16T11:11:57Z</time>
      </trkpt>
      <trkpt lat="43.65102" lon="1.38486">
        <ele>148</ele>
        <time>2024-12-16T11:11:58Z</time>
      </trkpt>
      <trkpt lat="43.65102" lon="1.38486">
        <ele>148</ele>
        <time>2024-12-16T11:11:59Z</time>
      </trkpt>
      <trkpt lat="43.65104" lon="1.38492">
        <ele>148</ele>
        <time>2024-12-16T11:12:00Z</time>
      </trkpt>
      <trkpt lat="43.65105" lon="1.38495">
        <ele>148</ele>
        <time>2024-12-16T11:12:01Z</time>
      </trkpt>
      <trkpt lat="43.65106" lon="1.38498">
        <ele>148</ele>
        <time>2024-12-16T11:12:02Z</time>
      </trkpt>
      <trkpt lat="43.65106" lon="1.38498">
        <ele>148</ele>
        <time>2024-12-16T11:12:03Z</time>
      </trkpt>
      <trkpt lat="43.65108" lon="1.38505">
        <ele>148</ele>
        <time>2024-12-16T11:12:04Z</time>
      </trkpt>
      <trkpt lat="43.65109" lon="1.38508">
        <ele>148</ele>
        <time>2024-12-16T11:12:05Z</time>
      </trkpt>
      <trkpt lat="43.65109" lon="1.38508">
        <ele>148</ele>
        <time>2024-12-16T11:12:06Z</time>
      </trkpt>
      <trkpt lat="43.65107" lon="1.38515">
        <ele>148</ele>
        <time>2024-12-16T11:12:07Z</time>
      </trkpt>
      <trkpt lat="43.65107" lon="1.38515">
        <ele>148</ele>
        <time>2024-12-16T11:12:08Z</time>
      </trkpt>
      <trkpt lat="43.65105" lon="1.38522">
        <ele>148</ele>
        <time>2024-12-16T11:12:09Z</time>
      </trkpt>
      <trkpt lat="43.65104" lon="1.38525">
        <ele>148</ele>
        <time>2024-12-16T11:12:10Z</time>
      </trkpt>
      <trkpt lat="43.65104" lon="1.38528">
        <ele>148</ele>
        <time>2024-12-16T11:12:11Z</time>
      </trkpt>
      <trkpt lat="43.65103" lon="1.38531">
        <ele>148</ele>
        <time>2024-12-16T11:12:12Z</time>
      </trkpt>
      <trkpt lat="43.65103" lon="1.38531">
        <ele>148</ele>
        <time>2024-12-16T11:12:13Z</time>
      </trkpt>
      <trkpt lat="43.65103" lon="1.38533">
        <ele>148</ele>
        <time>2024-12-16T11:12:14Z</time>
      </trkpt>
      <trkpt lat="43.65106" lon="1.38539">
        <ele>148</ele>
        <time>2024-12-16T11:12:15Z</time>
      </trkpt>
      <trkpt lat="43.65106" lon="1.38539">
        <ele>148</ele>
        <time>2024-12-16T11:12:16Z</time>
      </trkpt>
      <trkpt lat="43.65107" lon="1.38541">
        <ele>148</ele>
        <time>2024-12-16T11:12:17Z</time>
      </trkpt>
      <trkpt lat="43.65112" lon="1.38543">
        <ele>148</ele>
        <time>2024-12-16T11:12:18Z</time>
      </trkpt>
      <trkpt lat="43.65112" lon="1.38543">
        <ele>148</ele>
        <time>2024-12-16T11:12:19Z</time>
      </trkpt>
      <trkpt lat="43.65116" lon="1.38544">
        <ele>148</ele>
        <time>2024-12-16T11:12:20Z</time>
      </trkpt>
      <trkpt lat="43.65116" lon="1.38544">
        <ele>148</ele>
        <time>2024-12-16T11:12:21Z</time>
      </trkpt>
      <trkpt lat="43.65121" lon="1.38548">
        <ele>148</ele>
        <time>2024-12-16T11:12:22Z</time>
      </trkpt>
      <trkpt lat="43.65121" lon="1.38548">
        <ele>148</ele>
        <time>2024-12-16T11:12:23Z</time>
      </trkpt>
      <trkpt lat="43.65122" lon="1.38553">
        <ele>148</ele>
        <time>2024-12-16T11:12:24Z</time>
      </trkpt>
      <trkpt lat="43.65123" lon="1.38554">
        <ele>148</ele>
        <time>2024-12-16T11:12:25Z</time>
      </trkpt>
      <trkpt lat="43.65124" lon="1.38561">
        <ele>148</ele>
        <time>2024-12-16T11:12:26Z</time>
      </trkpt>
      <trkpt lat="43.65124" lon="1.38561">
        <ele>148</ele>
        <time>2024-12-16T11:12:27Z</time>
      </trkpt>
      <trkpt lat="43.65126" lon="1.38568">
        <ele>148</ele>
        <time>2024-12-16T11:12:28Z</time>
      </trkpt>
      <trkpt lat="43.65126" lon="1.38572">
        <ele>148</ele>
        <time>2024-12-16T11:12:29Z</time>
      </trkpt>
      <trkpt lat="43.65126" lon="1.38572">
        <ele>148</ele>
        <time>2024-12-16T11:12:30Z</time>
      </trkpt>
      <trkpt lat="43.65127" lon="1.38575">
        <ele>148</ele>
        <time>2024-12-16T11:12:31Z</time>
      </trkpt>
      <trkpt lat="43.65128" lon="1.38579">
        <ele>148</ele>
        <time>2024-12-16T11:12:32Z</time>
      </trkpt>
      <trkpt lat="43.65128" lon="1.38582">
        <ele>148</ele>
        <time>2024-12-16T11:12:33Z</time>
      </trkpt>
      <trkpt lat="43.65129" lon="1.38585">
        <ele>148</ele>
        <time>2024-12-16T11:12:34Z</time>
      </trkpt>
      <trkpt lat="43.65131" lon="1.38592">
        <ele>148</ele>
        <time>2024-12-16T11:12:35Z</time>
      </trkpt>
      <trkpt lat="43.65131" lon="1.38595">
        <ele>148</ele>
        <time>2024-12-16T11:12:36Z</time>
      </trkpt>
      <trkpt lat="43.65132" lon="1.38598">
        <ele>148</ele>
        <time>2024-12-16T11:12:37Z</time>
      </trkpt>
      <trkpt lat="43.65133" lon="1.38602">
        <ele>148</ele>
        <time>2024-12-16T11:12:38Z</time>
      </trkpt>
      <trkpt lat="43.65133" lon="1.38602">
        <ele>148</ele>
        <time>2024-12-16T11:12:39Z</time>
      </trkpt>
      <trkpt lat="43.65133" lon="1.38605">
        <ele>148</ele>
        <time>2024-12-16T11:12:40Z</time>
      </trkpt>
      <trkpt lat="43.65134" lon="1.38608">
        <ele>148</ele>
        <time>2024-12-16T11:12:41Z</time>
      </trkpt>
      <trkpt lat="43.65136" lon="1.38615">
        <ele>148</ele>
        <time>2024-12-16T11:12:42Z</time>
      </trkpt>
      <trkpt lat="43.65136" lon="1.38618">
        <ele>148</ele>
        <time>2024-12-16T11:12:43Z</time>
      </trkpt>
      <trkpt lat="43.65136" lon="1.38618">
        <ele>148</ele>
        <time>2024-12-16T11:12:44Z</time>
      </trkpt>
      <trkpt lat="43.65138" lon="1.38624">
        <ele>148</ele>
        <time>2024-12-16T11:12:45Z</time>
      </trkpt>
      <trkpt lat="43.65139" lon="1.38627">
        <ele>147</ele>
        <time>2024-12-16T11:12:46Z</time>
      </trkpt>
      <trkpt lat="43.6514" lon="1.38629">
        <ele>147</ele>
        <time>2024-12-16T11:12:47Z</time>
      </trkpt>
      <trkpt lat="43.65141" lon="1.38632">
        <ele>147</ele>
        <time>2024-12-16T11:12:48Z</time>
      </trkpt>
      <trkpt lat="43.65142" lon="1.38635">
        <ele>147</ele>
        <time>2024-12-16T11:12:49Z</time>
      </trkpt>
      <trkpt lat="43.65143" lon="1.38639">
        <ele>147</ele>
        <time>2024-12-16T11:12:50Z</time>
      </trkpt>
      <trkpt lat="43.65143" lon="1.38639">
        <ele>147</ele>
        <time>2024-12-16T11:12:51Z</time>
      </trkpt>
      <trkpt lat="43.65144" lon="1.38642">
        <ele>147</ele>
        <time>2024-12-16T11:12:52Z</time>
      </trkpt>
      <trkpt lat="43.65145" lon="1.38644">
        <ele>147</ele>
        <time>2024-12-16T11:12:53Z</time>
      </trkpt>
      <trkpt lat="43.65148" lon="1.3865">
        <ele>147</ele>
        <time>2024-12-16T11:12:54Z</time>
      </trkpt>
      <trkpt lat="43.6515" lon="1.38653">
        <ele>147</ele>
        <time>2024-12-16T11:12:55Z</time>
      </trkpt>
      <trkpt lat="43.65151" lon="1.38656">
        <ele>147</ele>
        <time>2024-12-16T11:12:56Z</time>
      </trkpt>
      <trkpt lat="43.65151" lon="1.38656">
        <ele>147</ele>
        <time>2024-12-16T11:12:57Z</time>
      </trkpt>
      <trkpt lat="43.65152" lon="1.38659">
        <ele>147</ele>
        <time>2024-12-16T11:12:58Z</time>
      </trkpt>
      <trkpt lat="43.65154" lon="1.38666">
        <ele>147</ele>
        <time>2024-12-16T11:12:59Z</time>
      </trkpt>
      <trkpt lat="43.65154" lon="1.38666">
        <ele>147</ele>
        <time>2024-12-16T11:13:00Z</time>
      </trkpt>
      <trkpt lat="43.65156" lon="1.38672">
        <ele>148</ele>
        <time>2024-12-16T11:13:01Z</time>
      </trkpt>
      <trkpt lat="43.65156" lon="1.38675">
        <ele>148</ele>
        <time>2024-12-16T11:13:02Z</time>
      </trkpt>
      <trkpt lat="43.65156" lon="1.38675">
        <ele>148</ele>
        <time>2024-12-16T11:13:03Z</time>
      </trkpt>
      <trkpt lat="43.65158" lon="1.38681">
        <ele>148</ele>
        <time>2024-12-16T11:13:04Z</time>
      </trkpt>
      <trkpt lat="43.65159" lon="1.38684">
        <ele>148</ele>
        <time>2024-12-16T11:13:05Z</time>
      </trkpt>
      <trkpt lat="43.65159" lon="1.38687">
        <ele>148</ele>
        <time>2024-12-16T11:13:06Z</time>
      </trkpt>
      <trkpt lat="43.65159" lon="1.38687">
        <ele>148</ele>
        <time>2024-12-16T11:13:07Z</time>
      </trkpt>
      <trkpt lat="43.6516" lon="1.3869">
        <ele>149</ele>
        <time>2024-12-16T11:13:08Z</time>
      </trkpt>
      <trkpt lat="43.65161" lon="1.38693">
        <ele>149</ele>
        <time>2024-12-16T11:13:09Z</time>
      </trkpt>
      <trkpt lat="43.65162" lon="1.38698">
        <ele>149</ele>
        <time>2024-12-16T11:13:10Z</time>
      </trkpt>
      <trkpt lat="43.65162" lon="1.38698">
        <ele>149</ele>
        <time>2024-12-16T11:13:11Z</time>
      </trkpt>
      <trkpt lat="43.65165" lon="1.38704">
        <ele>148</ele>
        <time>2024-12-16T11:13:12Z</time>
      </trkpt>
      <trkpt lat="43.65167" lon="1.38707">
        <ele>148</ele>
        <time>2024-12-16T11:13:13Z</time>
      </trkpt>
      <trkpt lat="43.65168" lon="1.3871">
        <ele>148</ele>
        <time>2024-12-16T11:13:14Z</time>
      </trkpt>
      <trkpt lat="43.65169" lon="1.38713">
        <ele>148</ele>
        <time>2024-12-16T11:13:15Z</time>
      </trkpt>
      <trkpt lat="43.65169" lon="1.38713">
        <ele>148</ele>
        <time>2024-12-16T11:13:16Z</time>
      </trkpt>
      <trkpt lat="43.6517" lon="1.38716">
        <ele>148</ele>
        <time>2024-12-16T11:13:17Z</time>
      </trkpt>
      <trkpt lat="43.65171" lon="1.38719">
        <ele>148</ele>
        <time>2024-12-16T11:13:18Z</time>
      </trkpt>
      <trkpt lat="43.65173" lon="1.38725">
        <ele>148</ele>
        <time>2024-12-16T11:13:19Z</time>
      </trkpt>
      <trkpt lat="43.65174" lon="1.38728">
        <ele>148</ele>
        <time>2024-12-16T11:13:20Z</time>
      </trkpt>
      <trkpt lat="43.65174" lon="1.38728">
        <ele>148</ele>
        <time>2024-12-16T11:13:21Z</time>
      </trkpt>
      <trkpt lat="43.65176" lon="1.38734">
        <ele>148</ele>
        <time>2024-12-16T11:13:22Z</time>
      </trkpt>
      <trkpt lat="43.65177" lon="1.38738">
        <ele>148</ele>
        <time>2024-12-16T11:13:23Z</time>
      </trkpt>
      <trkpt lat="43.65177" lon="1.38738">
        <ele>148</ele>
        <time>2024-12-16T11:13:24Z</time>
      </trkpt>
      <trkpt lat="43.65178" lon="1.38741">
        <ele>148</ele>
        <time>2024-12-16T11:13:25Z</time>
      </trkpt>
      <trkpt lat="43.6518" lon="1.38747">
        <ele>148</ele>
        <time>2024-12-16T11:13:26Z</time>
      </trkpt>
      <trkpt lat="43.6518" lon="1.38747">
        <ele>148</ele>
        <time>2024-12-16T11:13:27Z</time>
      </trkpt>
      <trkpt lat="43.65182" lon="1.38754">
        <ele>148</ele>
        <time>2024-12-16T11:13:28Z</time>
      </trkpt>
      <trkpt lat="43.65184" lon="1.38758">
        <ele>148</ele>
        <time>2024-12-16T11:13:29Z</time>
      </trkpt>
      <trkpt lat="43.65184" lon="1.38758">
        <ele>148</ele>
        <time>2024-12-16T11:13:30Z</time>
      </trkpt>
      <trkpt lat="43.65188" lon="1.38765">
        <ele>148</ele>
        <time>2024-12-16T11:13:31Z</time>
      </trkpt>
      <trkpt lat="43.65188" lon="1.38765">
        <ele>148</ele>
        <time>2024-12-16T11:13:32Z</time>
      </trkpt>
      <trkpt lat="43.65191" lon="1.38771">
        <ele>148</ele>
        <time>2024-12-16T11:13:33Z</time>
      </trkpt>
      <trkpt lat="43.65193" lon="1.38774">
        <ele>148</ele>
        <time>2024-12-16T11:13:34Z</time>
      </trkpt>
      <trkpt lat="43.65195" lon="1.38777">
        <ele>147</ele>
        <time>2024-12-16T11:13:35Z</time>
      </trkpt>
      <trkpt lat="43.65195" lon="1.38777">
        <ele>147</ele>
        <time>2024-12-16T11:13:36Z</time>
      </trkpt>
      <trkpt lat="43.65196" lon="1.38778">
        <ele>147</ele>
        <time>2024-12-16T11:13:37Z</time>
      </trkpt>
      <trkpt lat="43.652" lon="1.38783">
        <ele>147</ele>
        <time>2024-12-16T11:13:38Z</time>
      </trkpt>
      <trkpt lat="43.652" lon="1.38783">
        <ele>148</ele>
        <time>2024-12-16T11:13:39Z</time>
      </trkpt>
      <trkpt lat="43.65202" lon="1.38788">
        <ele>148</ele>
        <time>2024-12-16T11:13:40Z</time>
      </trkpt>
      <trkpt lat="43.65202" lon="1.38788">
        <ele>148</ele>
        <time>2024-12-16T11:13:41Z</time>
      </trkpt>
      <trkpt lat="43.65206" lon="1.38793">
        <ele>148</ele>
        <time>2024-12-16T11:13:42Z</time>
      </trkpt>
      <trkpt lat="43.65207" lon="1.38795">
        <ele>148</ele>
        <time>2024-12-16T11:13:43Z</time>
      </trkpt>
      <trkpt lat="43.65209" lon="1.38797">
        <ele>148</ele>
        <time>2024-12-16T11:13:44Z</time>
      </trkpt>
      <trkpt lat="43.65211" lon="1.388">
        <ele>148</ele>
        <time>2024-12-16T11:13:45Z</time>
      </trkpt>
      <trkpt lat="43.65213" lon="1.38802">
        <ele>148</ele>
        <time>2024-12-16T11:13:46Z</time>
      </trkpt>
      <trkpt lat="43.65215" lon="1.38805">
        <ele>148</ele>
        <time>2024-12-16T11:13:47Z</time>
      </trkpt>
      <trkpt lat="43.65217" lon="1.38807">
        <ele>148</ele>
        <time>2024-12-16T11:13:48Z</time>
      </trkpt>
      <trkpt lat="43.65217" lon="1.38807">
        <ele>147</ele>
        <time>2024-12-16T11:13:49Z</time>
      </trkpt>
      <trkpt lat="43.65219" lon="1.3881">
        <ele>147</ele>
        <time>2024-12-16T11:13:50Z</time>
      </trkpt>
      <trkpt lat="43.6522" lon="1.38813">
        <ele>147</ele>
        <time>2024-12-16T11:13:51Z</time>
      </trkpt>
      <trkpt lat="43.65224" lon="1.38818">
        <ele>147</ele>
        <time>2024-12-16T11:13:52Z</time>
      </trkpt>
      <trkpt lat="43.65224" lon="1.38818">
        <ele>147</ele>
        <time>2024-12-16T11:13:53Z</time>
      </trkpt>
      <trkpt lat="43.65227" lon="1.38823">
        <ele>147</ele>
        <time>2024-12-16T11:13:54Z</time>
      </trkpt>
      <trkpt lat="43.65227" lon="1.38823">
        <ele>147</ele>
        <time>2024-12-16T11:13:55Z</time>
      </trkpt>
      <trkpt lat="43.65229" lon="1.38826">
        <ele>147</ele>
        <time>2024-12-16T11:13:56Z</time>
      </trkpt>
      <trkpt lat="43.65232" lon="1.38831">
        <ele>147</ele>
        <time>2024-12-16T11:13:57Z</time>
      </trkpt>
      <trkpt lat="43.65232" lon="1.38831">
        <ele>147</ele>
        <time>2024-12-16T11:13:58Z</time>
      </trkpt>
      <trkpt lat="43.65236" lon="1.38837">
        <ele>147</ele>
        <time>2024-12-16T11:13:59Z</time>
      </trkpt>
      <trkpt lat="43.65236" lon="1.38837">
        <ele>146</ele>
        <time>2024-12-16T11:14:00Z</time>
      </trkpt>
      <trkpt lat="43.6524" lon="1.38842">
        <ele>146</ele>
        <time>2024-12-16T11:14:01Z</time>
      </trkpt>
      <trkpt lat="43.6524" lon="1.38842">
        <ele>146</ele>
        <time>2024-12-16T11:14:02Z</time>
      </trkpt>
      <trkpt lat="43.65244" lon="1.38847">
        <ele>146</ele>
        <time>2024-12-16T11:14:03Z</time>
      </trkpt>
      <trkpt lat="43.65245" lon="1.3885">
        <ele>146</ele>
        <time>2024-12-16T11:14:04Z</time>
      </trkpt>
      <trkpt lat="43.65247" lon="1.38852">
        <ele>146</ele>
        <time>2024-12-16T11:14:05Z</time>
      </trkpt>
      <trkpt lat="43.65249" lon="1.38855">
        <ele>146</ele>
        <time>2024-12-16T11:14:06Z</time>
      </trkpt>
      <trkpt lat="43.65249" lon="1.38855">
        <ele>146</ele>
        <time>2024-12-16T11:14:07Z</time>
      </trkpt>
      <trkpt lat="43.65251" lon="1.38857">
        <ele>145</ele>
        <time>2024-12-16T11:14:08Z</time>
      </trkpt>
      <trkpt lat="43.65252" lon="1.38859">
        <ele>145</ele>
        <time>2024-12-16T11:14:09Z</time>
      </trkpt>
      <trkpt lat="43.65253" lon="1.38861">
        <ele>145</ele>
        <time>2024-12-16T11:14:10Z</time>
      </trkpt>
      <trkpt lat="43.65256" lon="1.38865">
        <ele>145</ele>
        <time>2024-12-16T11:14:11Z</time>
      </trkpt>
      <trkpt lat="43.65258" lon="1.38867">
        <ele>145</ele>
        <time>2024-12-16T11:14:12Z</time>
      </trkpt>
      <trkpt lat="43.65259" lon="1.38869">
        <ele>145</ele>
        <time>2024-12-16T11:14:13Z</time>
      </trkpt>
      <trkpt lat="43.65259" lon="1.38869">
        <ele>144</ele>
        <time>2024-12-16T11:14:14Z</time>
      </trkpt>
      <trkpt lat="43.65262" lon="1.38874">
        <ele>144</ele>
        <time>2024-12-16T11:14:15Z</time>
      </trkpt>
      <trkpt lat="43.65264" lon="1.38876">
        <ele>144</ele>
        <time>2024-12-16T11:14:16Z</time>
      </trkpt>
      <trkpt lat="43.65264" lon="1.38876">
        <ele>144</ele>
        <time>2024-12-16T11:14:17Z</time>
      </trkpt>
      <trkpt lat="43.65267" lon="1.38881">
        <ele>144</ele>
        <time>2024-12-16T11:14:18Z</time>
      </trkpt>
      <trkpt lat="43.65267" lon="1.38881">
        <ele>143</ele>
        <time>2024-12-16T11:14:19Z</time>
      </trkpt>
      <trkpt lat="43.65271" lon="1.38886">
        <ele>143</ele>
        <time>2024-12-16T11:14:20Z</time>
      </trkpt>
      <trkpt lat="43.65273" lon="1.38888">
        <ele>143</ele>
        <time>2024-12-16T11:14:21Z</time>
      </trkpt>
      <trkpt lat="43.65276" lon="1.38891">
        <ele>143</ele>
        <time>2024-12-16T11:14:22Z</time>
      </trkpt>
      <trkpt lat="43.65278" lon="1.38894">
        <ele>142</ele>
        <time>2024-12-16T11:14:23Z</time>
      </trkpt>
      <trkpt lat="43.65278" lon="1.38894">
        <ele>142</ele>
        <time>2024-12-16T11:14:24Z</time>
      </trkpt>
      <trkpt lat="43.65281" lon="1.38897">
        <ele>142</ele>
        <time>2024-12-16T11:14:25Z</time>
      </trkpt>
      <trkpt lat="43.65285" lon="1.38902">
        <ele>142</ele>
        <time>2024-12-16T11:14:26Z</time>
      </trkpt>
      <trkpt lat="43.65286" lon="1.38905">
        <ele>142</ele>
        <time>2024-12-16T11:14:27Z</time>
      </trkpt>
      <trkpt lat="43.65286" lon="1.38905">
        <ele>142</ele>
        <time>2024-12-16T11:14:28Z</time>
      </trkpt>
      <trkpt lat="43.65287" lon="1.38907">
        <ele>141</ele>
        <time>2024-12-16T11:14:29Z</time>
      </trkpt>
      <trkpt lat="43.65289" lon="1.38909">
        <ele>141</ele>
        <time>2024-12-16T11:14:30Z</time>
      </trkpt>
      <trkpt lat="43.65292" lon="1.38914">
        <ele>141</ele>
        <time>2024-12-16T11:14:31Z</time>
      </trkpt>
      <trkpt lat="43.65294" lon="1.38915">
        <ele>141</ele>
        <time>2024-12-16T11:14:32Z</time>
      </trkpt>
      <trkpt lat="43.65296" lon="1.38917">
        <ele>141</ele>
        <time>2024-12-16T11:14:33Z</time>
      </trkpt>
      <trkpt lat="43.65296" lon="1.38917">
        <ele>141</ele>
        <time>2024-12-16T11:14:34Z</time>
      </trkpt>
      <trkpt lat="43.65298" lon="1.38918">
        <ele>140</ele>
        <time>2024-12-16T11:14:35Z</time>
      </trkpt>
      <trkpt lat="43.65302" lon="1.3892">
        <ele>140</ele>
        <time>2024-12-16T11:14:36Z</time>
      </trkpt>
      <trkpt lat="43.65305" lon="1.38921">
        <ele>140</ele>
        <time>2024-12-16T11:14:37Z</time>
      </trkpt>
      <trkpt lat="43.65305" lon="1.38921">
        <ele>140</ele>
        <time>2024-12-16T11:14:38Z</time>
      </trkpt>
      <trkpt lat="43.6531" lon="1.38923">
        <ele>140</ele>
        <time>2024-12-16T11:14:39Z</time>
      </trkpt>
      <trkpt lat="43.6531" lon="1.38923">
        <ele>140</ele>
        <time>2024-12-16T11:14:40Z</time>
      </trkpt>
      <trkpt lat="43.65314" lon="1.38928">
        <ele>139</ele>
        <time>2024-12-16T11:14:41Z</time>
      </trkpt>
      <trkpt lat="43.65314" lon="1.38928">
        <ele>138</ele>
        <time>2024-12-16T11:14:42Z</time>
      </trkpt>
      <trkpt lat="43.65317" lon="1.38935">
        <ele>138</ele>
        <time>2024-12-16T11:14:43Z</time>
      </trkpt>
      <trkpt lat="43.65317" lon="1.38935">
        <ele>137</ele>
        <time>2024-12-16T11:14:44Z</time>
      </trkpt>
      <trkpt lat="43.65318" lon="1.38939">
        <ele>136</ele>
        <time>2024-12-16T11:14:45Z</time>
      </trkpt>
      <trkpt lat="43.6532" lon="1.38947">
        <ele>135</ele>
        <time>2024-12-16T11:14:46Z</time>
      </trkpt>
      <trkpt lat="43.6532" lon="1.38947">
        <ele>135</ele>
        <time>2024-12-16T11:14:47Z</time>
      </trkpt>
      <trkpt lat="43.65321" lon="1.38951">
        <ele>135</ele>
        <time>2024-12-16T11:14:48Z</time>
      </trkpt>
      <trkpt lat="43.65322" lon="1.38959">
        <ele>135</ele>
        <time>2024-12-16T11:14:49Z</time>
      </trkpt>
      <trkpt lat="43.65322" lon="1.38959">
        <ele>135</ele>
        <time>2024-12-16T11:14:50Z</time>
      </trkpt>
      <trkpt lat="43.65323" lon="1.38966">
        <ele>134</ele>
        <time>2024-12-16T11:14:51Z</time>
      </trkpt>
      <trkpt lat="43.65323" lon="1.38966">
        <ele>134</ele>
        <time>2024-12-16T11:14:52Z</time>
      </trkpt>
      <trkpt lat="43.65324" lon="1.38974">
        <ele>133</ele>
        <time>2024-12-16T11:14:53Z</time>
      </trkpt>
      <trkpt lat="43.65324" lon="1.38974">
        <ele>133</ele>
        <time>2024-12-16T11:14:54Z</time>
      </trkpt>
      <trkpt lat="43.65325" lon="1.38977">
        <ele>133</ele>
        <time>2024-12-16T11:14:55Z</time>
      </trkpt>
      <trkpt lat="43.65328" lon="1.38984">
        <ele>133</ele>
        <time>2024-12-16T11:14:56Z</time>
      </trkpt>
      <trkpt lat="43.65328" lon="1.38984">
        <ele>132</ele>
        <time>2024-12-16T11:14:57Z</time>
      </trkpt>
      <trkpt lat="43.6533" lon="1.3899">
        <ele>132</ele>
        <time>2024-12-16T11:14:58Z</time>
      </trkpt>
      <trkpt lat="43.65331" lon="1.38994">
        <ele>132</ele>
        <time>2024-12-16T11:14:59Z</time>
      </trkpt>
      <trkpt lat="43.65331" lon="1.38994">
        <ele>132</ele>
        <time>2024-12-16T11:15:00Z</time>
      </trkpt>
      <trkpt lat="43.6533" lon="1.39001">
        <ele>131</ele>
        <time>2024-12-16T11:15:01Z</time>
      </trkpt>
      <trkpt lat="43.6533" lon="1.39001">
        <ele>130</ele>
        <time>2024-12-16T11:15:02Z</time>
      </trkpt>
      <trkpt lat="43.65327" lon="1.39008">
        <ele>130</ele>
        <time>2024-12-16T11:15:03Z</time>
      </trkpt>
      <trkpt lat="43.65326" lon="1.39012">
        <ele>130</ele>
        <time>2024-12-16T11:15:04Z</time>
      </trkpt>
      <trkpt lat="43.65324" lon="1.39016">
        <ele>130</ele>
        <time>2024-12-16T11:15:05Z</time>
      </trkpt>
      <trkpt lat="43.65324" lon="1.39016">
        <ele>129</ele>
        <time>2024-12-16T11:15:06Z</time>
      </trkpt>
      <trkpt lat="43.65322" lon="1.39022">
        <ele>129</ele>
        <time>2024-12-16T11:15:07Z</time>
      </trkpt>
      <trkpt lat="43.65322" lon="1.39022">
        <ele>129</ele>
        <time>2024-12-16T11:15:08Z</time>
      </trkpt>
      <trkpt lat="43.6532" lon="1.39029">
        <ele>129</ele>
        <time>2024-12-16T11:15:09Z</time>
      </trkpt>
      <trkpt lat="43.6532" lon="1.39029">
        <ele>129</ele>
        <time>2024-12-16T11:15:10Z</time>
      </trkpt>
      <trkpt lat="43.65318" lon="1.39035">
        <ele>129</ele>
        <time>2024-12-16T11:15:11Z</time>
      </trkpt>
      <trkpt lat="43.65316" lon="1.39039">
        <ele>129</ele>
        <time>2024-12-16T11:15:12Z</time>
      </trkpt>
      <trkpt lat="43.65316" lon="1.39039">
        <ele>129</ele>
        <time>2024-12-16T11:15:13Z</time>
      </trkpt>
      <trkpt lat="43.65313" lon="1.39045">
        <ele>129</ele>
        <time>2024-12-16T11:15:14Z</time>
      </trkpt>
      <trkpt lat="43.65311" lon="1.39047">
        <ele>129</ele>
        <time>2024-12-16T11:15:15Z</time>
      </trkpt>
      <trkpt lat="43.65308" lon="1.39048">
        <ele>129</ele>
        <time>2024-12-16T11:15:16Z</time>
      </trkpt>
      <trkpt lat="43.65306" lon="1.39048">
        <ele>129</ele>
        <time>2024-12-16T11:15:17Z</time>
      </trkpt>
      <trkpt lat="43.65303" lon="1.39048">
        <ele>129</ele>
        <time>2024-12-16T11:15:18Z</time>
      </trkpt>
      <trkpt lat="43.65303" lon="1.39048">
        <ele>129</ele>
        <time>2024-12-16T11:15:19Z</time>
      </trkpt>
      <trkpt lat="43.653" lon="1.39047">
        <ele>129</ele>
        <time>2024-12-16T11:15:20Z</time>
      </trkpt>
      <trkpt lat="43.65295" lon="1.39045">
        <ele>129</ele>
        <time>2024-12-16T11:15:21Z</time>
      </trkpt>
      <trkpt lat="43.65295" lon="1.39045">
        <ele>129</ele>
        <time>2024-12-16T11:15:22Z</time>
      </trkpt>
      <trkpt lat="43.6529" lon="1.39042">
        <ele>129</ele>
        <time>2024-12-16T11:15:23Z</time>
      </trkpt>
      <trkpt lat="43.6529" lon="1.39042">
        <ele>129</ele>
        <time>2024-12-16T11:15:24Z</time>
      </trkpt>
      <trkpt lat="43.65285" lon="1.39042">
        <ele>129</ele>
        <time>2024-12-16T11:15:25Z</time>
      </trkpt>
      <trkpt lat="43.65285" lon="1.39042">
        <ele>129</ele>
        <time>2024-12-16T11:15:26Z</time>
      </trkpt>
      <trkpt lat="43.6528" lon="1.3904">
        <ele>129</ele>
        <time>2024-12-16T11:15:27Z</time>
      </trkpt>
      <trkpt lat="43.65277" lon="1.39039">
        <ele>129</ele>
        <time>2024-12-16T11:15:28Z</time>
      </trkpt>
      <trkpt lat="43.65277" lon="1.39039">
        <ele>129</ele>
        <time>2024-12-16T11:15:29Z</time>
      </trkpt>
      <trkpt lat="43.65272" lon="1.39038">
        <ele>129</ele>
        <time>2024-12-16T11:15:30Z</time>
      </trkpt>
      <trkpt lat="43.65269" lon="1.39038">
        <ele>129</ele>
        <time>2024-12-16T11:15:31Z</time>
      </trkpt>
      <trkpt lat="43.65267" lon="1.39038">
        <ele>129</ele>
        <time>2024-12-16T11:15:32Z</time>
      </trkpt>
      <trkpt lat="43.65264" lon="1.39039">
        <ele>129</ele>
        <time>2024-12-16T11:15:33Z</time>
      </trkpt>
      <trkpt lat="43.65264" lon="1.39039">
        <ele>129</ele>
        <time>2024-12-16T11:15:34Z</time>
      </trkpt>
      <trkpt lat="43.65259" lon="1.39039">
        <ele>129</ele>
        <time>2024-12-16T11:15:35Z</time>
      </trkpt>
      <trkpt lat="43.65257" lon="1.39039">
        <ele>129</ele>
        <time>2024-12-16T11:15:36Z</time>
      </trkpt>
      <trkpt lat="43.65254" lon="1.39039">
        <ele>129</ele>
        <time>2024-12-16T11:15:37Z</time>
      </trkpt>
      <trkpt lat="43.65254" lon="1.39039">
        <ele>129</ele>
        <time>2024-12-16T11:15:38Z</time>
      </trkpt>
      <trkpt lat="43.65249" lon="1.39038">
        <ele>129</ele>
        <time>2024-12-16T11:15:39Z</time>
      </trkpt>
      <trkpt lat="43.65246" lon="1.39036">
        <ele>129</ele>
        <time>2024-12-16T11:15:40Z</time>
      </trkpt>
      <trkpt lat="43.65246" lon="1.39036">
        <ele>129</ele>
        <time>2024-12-16T11:15:41Z</time>
      </trkpt>
      <trkpt lat="43.65241" lon="1.39033">
        <ele>129</ele>
        <time>2024-12-16T11:15:42Z</time>
      </trkpt>
      <trkpt lat="43.65239" lon="1.39031">
        <ele>129</ele>
        <time>2024-12-16T11:15:43Z</time>
      </trkpt>
      <trkpt lat="43.65236" lon="1.39029">
        <ele>129</ele>
        <time>2024-12-16T11:15:44Z</time>
      </trkpt>
      <trkpt lat="43.65234" lon="1.39027">
        <ele>129</ele>
        <time>2024-12-16T11:15:45Z</time>
      </trkpt>
      <trkpt lat="43.65232" lon="1.39025">
        <ele>129</ele>
        <time>2024-12-16T11:15:46Z</time>
      </trkpt>
      <trkpt lat="43.6523" lon="1.39023">
        <ele>129</ele>
        <time>2024-12-16T11:15:47Z</time>
      </trkpt>
      <trkpt lat="43.65227" lon="1.39022">
        <ele>129</ele>
        <time>2024-12-16T11:15:48Z</time>
      </trkpt>
      <trkpt lat="43.65225" lon="1.39021">
        <ele>129</ele>
        <time>2024-12-16T11:15:49Z</time>
      </trkpt>
      <trkpt lat="43.65225" lon="1.39021">
        <ele>129</ele>
        <time>2024-12-16T11:15:50Z</time>
      </trkpt>
      <trkpt lat="43.6522" lon="1.39019">
        <ele>129</ele>
        <time>2024-12-16T11:15:51Z</time>
      </trkpt>
      <trkpt lat="43.65217" lon="1.39019">
        <ele>129</ele>
        <time>2024-12-16T11:15:52Z</time>
      </trkpt>
      <trkpt lat="43.65215" lon="1.39019">
        <ele>129</ele>
        <time>2024-12-16T11:15:53Z</time>
      </trkpt>
      <trkpt lat="43.65212" lon="1.39019">
        <ele>129</ele>
        <time>2024-12-16T11:15:54Z</time>
      </trkpt>
      <trkpt lat="43.65212" lon="1.39019">
        <ele>129</ele>
        <time>2024-12-16T11:15:55Z</time>
      </trkpt>
      <trkpt lat="43.65207" lon="1.39019">
        <ele>129</ele>
        <time>2024-12-16T11:15:56Z</time>
      </trkpt>
      <trkpt lat="43.65204" lon="1.39019">
        <ele>129</ele>
        <time>2024-12-16T11:15:57Z</time>
      </trkpt>
      <trkpt lat="43.65202" lon="1.39019">
        <ele>129</ele>
        <time>2024-12-16T11:15:58Z</time>
      </trkpt>
      <trkpt lat="43.65199" lon="1.39019">
        <ele>129</ele>
        <time>2024-12-16T11:15:59Z</time>
      </trkpt>
      <trkpt lat="43.65199" lon="1.39019">
        <ele>129</ele>
        <time>2024-12-16T11:16:00Z</time>
      </trkpt>
      <trkpt lat="43.65194" lon="1.3902">
        <ele>129</ele>
        <time>2024-12-16T11:16:01Z</time>
      </trkpt>
      <trkpt lat="43.65194" lon="1.3902">
        <ele>129</ele>
        <time>2024-12-16T11:16:02Z</time>
      </trkpt>
      <trkpt lat="43.65188" lon="1.3902">
        <ele>129</ele>
        <time>2024-12-16T11:16:03Z</time>
      </trkpt>
      <trkpt lat="43.65186" lon="1.3902">
        <ele>129</ele>
        <time>2024-12-16T11:16:04Z</time>
      </trkpt>
      <trkpt lat="43.65186" lon="1.3902">
        <ele>129</ele>
        <time>2024-12-16T11:16:05Z</time>
      </trkpt>
      <trkpt lat="43.6518" lon="1.39019">
        <ele>129</ele>
        <time>2024-12-16T11:16:06Z</time>
      </trkpt>
      <trkpt lat="43.65178" lon="1.39019">
        <ele>129</ele>
        <time>2024-12-16T11:16:07Z</time>
      </trkpt>
      <trkpt lat="43.65175" lon="1.39018">
        <ele>129</ele>
        <time>2024-12-16T11:16:08Z</time>
      </trkpt>
      <trkpt lat="43.65175" lon="1.39018">
        <ele>129</ele>
        <time>2024-12-16T11:16:09Z</time>
      </trkpt>
      <trkpt lat="43.6517" lon="1.39017">
        <ele>129</ele>
        <time>2024-12-16T11:16:10Z</time>
      </trkpt>
      <trkpt lat="43.65168" lon="1.39017">
        <ele>129</ele>
        <time>2024-12-16T11:16:11Z</time>
      </trkpt>
      <trkpt lat="43.65168" lon="1.39017">
        <ele>129</ele>
        <time>2024-12-16T11:16:12Z</time>
      </trkpt>
      <trkpt lat="43.65163" lon="1.39018">
        <ele>129</ele>
        <time>2024-12-16T11:16:13Z</time>
      </trkpt>
      <trkpt lat="43.65161" lon="1.39018">
        <ele>129</ele>
        <time>2024-12-16T11:16:14Z</time>
      </trkpt>
      <trkpt lat="43.65158" lon="1.39018">
        <ele>129</ele>
        <time>2024-12-16T11:16:15Z</time>
      </trkpt>
      <trkpt lat="43.65156" lon="1.39019">
        <ele>129</ele>
        <time>2024-12-16T11:16:16Z</time>
      </trkpt>
      <trkpt lat="43.65153" lon="1.3902">
        <ele>129</ele>
        <time>2024-12-16T11:16:17Z</time>
      </trkpt>
      <trkpt lat="43.65151" lon="1.39021">
        <ele>129</ele>
        <time>2024-12-16T11:16:18Z</time>
      </trkpt>
      <trkpt lat="43.65148" lon="1.39021">
        <ele>129</ele>
        <time>2024-12-16T11:16:19Z</time>
      </trkpt>
      <trkpt lat="43.65145" lon="1.39022">
        <ele>129</ele>
        <time>2024-12-16T11:16:20Z</time>
      </trkpt>
      <trkpt lat="43.65143" lon="1.39021">
        <ele>129</ele>
        <time>2024-12-16T11:16:21Z</time>
      </trkpt>
      <trkpt lat="43.6514" lon="1.39021">
        <ele>129</ele>
        <time>2024-12-16T11:16:22Z</time>
      </trkpt>
      <trkpt lat="43.65137" lon="1.39021">
        <ele>129</ele>
        <time>2024-12-16T11:16:23Z</time>
      </trkpt>
      <trkpt lat="43.65135" lon="1.39021">
        <ele>129</ele>
        <time>2024-12-16T11:16:24Z</time>
      </trkpt>
      <trkpt lat="43.65132" lon="1.39021">
        <ele>129</ele>
        <time>2024-12-16T11:16:25Z</time>
      </trkpt>
      <trkpt lat="43.6513" lon="1.39021">
        <ele>129</ele>
        <time>2024-12-16T11:16:26Z</time>
      </trkpt>
      <trkpt lat="43.65127" lon="1.39021">
        <ele>129</ele>
        <time>2024-12-16T11:16:27Z</time>
      </trkpt>
      <trkpt lat="43.65124" lon="1.39021">
        <ele>129</ele>
        <time>2024-12-16T11:16:28Z</time>
      </trkpt>
      <trkpt lat="43.65124" lon="1.39021">
        <ele>129</ele>
        <time>2024-12-16T11:16:29Z</time>
      </trkpt>
      <trkpt lat="43.65122" lon="1.39021">
        <ele>129</ele>
        <time>2024-12-16T11:16:30Z</time>
      </trkpt>
      <trkpt lat="43.65117" lon="1.39021">
        <ele>129</ele>
        <time>2024-12-16T11:16:31Z</time>
      </trkpt>
      <trkpt lat="43.65117" lon="1.39021">
        <ele>129</ele>
        <time>2024-12-16T11:16:32Z</time>
      </trkpt>
      <trkpt lat="43.65111" lon="1.3902">
        <ele>129</ele>
        <time>2024-12-16T11:16:33Z</time>
      </trkpt>
      <trkpt lat="43.65111" lon="1.3902">
        <ele>129</ele>
        <time>2024-12-16T11:16:34Z</time>
      </trkpt>
      <trkpt lat="43.65106" lon="1.3902">
        <ele>129</ele>
        <time>2024-12-16T11:16:35Z</time>
      </trkpt>
      <trkpt lat="43.65106" lon="1.3902">
        <ele>129</ele>
        <time>2024-12-16T11:16:36Z</time>
      </trkpt>
      <trkpt lat="43.65101" lon="1.3902">
        <ele>129</ele>
        <time>2024-12-16T11:16:37Z</time>
      </trkpt>
      <trkpt lat="43.65098" lon="1.39021">
        <ele>129</ele>
        <time>2024-12-16T11:16:38Z</time>
      </trkpt>
      <trkpt lat="43.65098" lon="1.39021">
        <ele>129</ele>
        <time>2024-12-16T11:16:39Z</time>
      </trkpt>
      <trkpt lat="43.65093" lon="1.39022">
        <ele>129</ele>
        <time>2024-12-16T11:16:40Z</time>
      </trkpt>
      <trkpt lat="43.65093" lon="1.39022">
        <ele>129</ele>
        <time>2024-12-16T11:16:41Z</time>
      </trkpt>
      <trkpt lat="43.65088" lon="1.39024">
        <ele>129</ele>
        <time>2024-12-16T11:16:42Z</time>
      </trkpt>
      <trkpt lat="43.65086" lon="1.39025">
        <ele>129</ele>
        <time>2024-12-16T11:16:43Z</time>
      </trkpt>
      <trkpt lat="43.65083" lon="1.39027">
        <ele>129</ele>
        <time>2024-12-16T11:16:44Z</time>
      </trkpt>
      <trkpt lat="43.65081" lon="1.39028">
        <ele>129</ele>
        <time>2024-12-16T11:16:45Z</time>
      </trkpt>
      <trkpt lat="43.65081" lon="1.39028">
        <ele>129</ele>
        <time>2024-12-16T11:16:46Z</time>
      </trkpt>
      <trkpt lat="43.65077" lon="1.39032">
        <ele>129</ele>
        <time>2024-12-16T11:16:47Z</time>
      </trkpt>
      <trkpt lat="43.65077" lon="1.39032">
        <ele>129</ele>
        <time>2024-12-16T11:16:48Z</time>
      </trkpt>
      <trkpt lat="43.65073" lon="1.39037">
        <ele>129</ele>
        <time>2024-12-16T11:16:49Z</time>
      </trkpt>
      <trkpt lat="43.65071" lon="1.39041">
        <ele>129</ele>
        <time>2024-12-16T11:16:50Z</time>
      </trkpt>
      <trkpt lat="43.6507" lon="1.39044">
        <ele>129</ele>
        <time>2024-12-16T11:16:51Z</time>
      </trkpt>
      <trkpt lat="43.6507" lon="1.39044">
        <ele>129</ele>
        <time>2024-12-16T11:16:52Z</time>
      </trkpt>
      <trkpt lat="43.6507" lon="1.39047">
        <ele>129</ele>
        <time>2024-12-16T11:16:53Z</time>
      </trkpt>
      <trkpt lat="43.65071" lon="1.39054">
        <ele>129</ele>
        <time>2024-12-16T11:16:54Z</time>
      </trkpt>
      <trkpt lat="43.65071" lon="1.39058">
        <ele>129</ele>
        <time>2024-12-16T11:16:55Z</time>
      </trkpt>
      <trkpt lat="43.65072" lon="1.39061">
        <ele>129</ele>
        <time>2024-12-16T11:16:56Z</time>
      </trkpt>
      <trkpt lat="43.65072" lon="1.39065">
        <ele>129</ele>
        <time>2024-12-16T11:16:57Z</time>
      </trkpt>
      <trkpt lat="43.65072" lon="1.39065">
        <ele>129</ele>
        <time>2024-12-16T11:16:58Z</time>
      </trkpt>
      <trkpt lat="43.65072" lon="1.39072">
        <ele>129</ele>
        <time>2024-12-16T11:16:59Z</time>
      </trkpt>
      <trkpt lat="43.65072" lon="1.39076">
        <ele>129</ele>
        <time>2024-12-16T11:17:00Z</time>
      </trkpt>
      <trkpt lat="43.65072" lon="1.39076">
        <ele>130</ele>
        <time>2024-12-16T11:17:01Z</time>
      </trkpt>
      <trkpt lat="43.65072" lon="1.39079">
        <ele>130</ele>
        <time>2024-12-16T11:17:02Z</time>
      </trkpt>
      <trkpt lat="43.65072" lon="1.39083">
        <ele>130</ele>
        <time>2024-12-16T11:17:03Z</time>
      </trkpt>
      <trkpt lat="43.65073" lon="1.39086">
        <ele>130</ele>
        <time>2024-12-16T11:17:04Z</time>
      </trkpt>
      <trkpt lat="43.65073" lon="1.3909">
        <ele>130</ele>
        <time>2024-12-16T11:17:05Z</time>
      </trkpt>
      <trkpt lat="43.65074" lon="1.39098">
        <ele>130</ele>
        <time>2024-12-16T11:17:06Z</time>
      </trkpt>
      <trkpt lat="43.65074" lon="1.39101">
        <ele>130</ele>
        <time>2024-12-16T11:17:07Z</time>
      </trkpt>
      <trkpt lat="43.65074" lon="1.39101">
        <ele>130</ele>
        <time>2024-12-16T11:17:08Z</time>
      </trkpt>
      <trkpt lat="43.65075" lon="1.39108">
        <ele>130</ele>
        <time>2024-12-16T11:17:09Z</time>
      </trkpt>
      <trkpt lat="43.65075" lon="1.39112">
        <ele>130</ele>
        <time>2024-12-16T11:17:10Z</time>
      </trkpt>
      <trkpt lat="43.65075" lon="1.39115">
        <ele>130</ele>
        <time>2024-12-16T11:17:11Z</time>
      </trkpt>
      <trkpt lat="43.65075" lon="1.39115">
        <ele>130</ele>
        <time>2024-12-16T11:17:12Z</time>
      </trkpt>
      <trkpt lat="43.65075" lon="1.39122">
        <ele>130</ele>
        <time>2024-12-16T11:17:13Z</time>
      </trkpt>
      <trkpt lat="43.65075" lon="1.39122">
        <ele>130</ele>
        <time>2024-12-16T11:17:14Z</time>
      </trkpt>
      <trkpt lat="43.65074" lon="1.39126">
        <ele>130</ele>
        <time>2024-12-16T11:17:15Z</time>
      </trkpt>
      <trkpt lat="43.65073" lon="1.39129">
        <ele>130</ele>
        <time>2024-12-16T11:17:16Z</time>
      </trkpt>
      <trkpt lat="43.65072" lon="1.39132">
        <ele>130</ele>
        <time>2024-12-16T11:17:17Z</time>
      </trkpt>
      <trkpt lat="43.65069" lon="1.39138">
        <ele>130</ele>
        <time>2024-12-16T11:17:18Z</time>
      </trkpt>
      <trkpt lat="43.65067" lon="1.3914">
        <ele>130</ele>
        <time>2024-12-16T11:17:19Z</time>
      </trkpt>
      <trkpt lat="43.65064" lon="1.39143">
        <ele>130</ele>
        <time>2024-12-16T11:17:20Z</time>
      </trkpt>
      <trkpt lat="43.65062" lon="1.39144">
        <ele>130</ele>
        <time>2024-12-16T11:17:21Z</time>
      </trkpt>
      <trkpt lat="43.65062" lon="1.39144">
        <ele>130</ele>
        <time>2024-12-16T11:17:22Z</time>
      </trkpt>
      <trkpt lat="43.65059" lon="1.39145">
        <ele>130</ele>
        <time>2024-12-16T11:17:23Z</time>
      </trkpt>
      <trkpt lat="43.65057" lon="1.39146">
        <ele>130</ele>
        <time>2024-12-16T11:17:24Z</time>
      </trkpt>
      <trkpt lat="43.65052" lon="1.39148">
        <ele>130</ele>
        <time>2024-12-16T11:17:25Z</time>
      </trkpt>
      <trkpt lat="43.65052" lon="1.39148">
        <ele>130</ele>
        <time>2024-12-16T11:17:26Z</time>
      </trkpt>
      <trkpt lat="43.65046" lon="1.39149">
        <ele>130</ele>
        <time>2024-12-16T11:17:27Z</time>
      </trkpt>
      <trkpt lat="43.65044" lon="1.39149">
        <ele>130</ele>
        <time>2024-12-16T11:17:28Z</time>
      </trkpt>
      <trkpt lat="43.65044" lon="1.39149">
        <ele>131</ele>
        <time>2024-12-16T11:17:29Z</time>
      </trkpt>
      <trkpt lat="43.65042" lon="1.3915">
        <ele>131</ele>
        <time>2024-12-16T11:17:30Z</time>
      </trkpt>
      <trkpt lat="43.65039" lon="1.3915">
        <ele>131</ele>
        <time>2024-12-16T11:17:31Z</time>
      </trkpt>
      <trkpt lat="43.65034" lon="1.39151">
        <ele>131</ele>
        <time>2024-12-16T11:17:32Z</time>
      </trkpt>
      <trkpt lat="43.65034" lon="1.39151">
        <ele>131</ele>
        <time>2024-12-16T11:17:33Z</time>
      </trkpt>
      <trkpt lat="43.65029" lon="1.39151">
        <ele>131</ele>
        <time>2024-12-16T11:17:34Z</time>
      </trkpt>
      <trkpt lat="43.65029" lon="1.39151">
        <ele>131</ele>
        <time>2024-12-16T11:17:35Z</time>
      </trkpt>
      <trkpt lat="43.65024" lon="1.39152">
        <ele>131</ele>
        <time>2024-12-16T11:17:36Z</time>
      </trkpt>
      <trkpt lat="43.65024" lon="1.39152">
        <ele>130</ele>
        <time>2024-12-16T11:17:37Z</time>
      </trkpt>
      <trkpt lat="43.65019" lon="1.39153">
        <ele>130</ele>
        <time>2024-12-16T11:17:38Z</time>
      </trkpt>
      <trkpt lat="43.65019" lon="1.39153">
        <ele>130</ele>
        <time>2024-12-16T11:17:39Z</time>
      </trkpt>
      <trkpt lat="43.65017" lon="1.39154">
        <ele>131</ele>
        <time>2024-12-16T11:17:40Z</time>
      </trkpt>
      <trkpt lat="43.65011" lon="1.39155">
        <ele>131</ele>
        <time>2024-12-16T11:17:41Z</time>
      </trkpt>
      <trkpt lat="43.65011" lon="1.39155">
        <ele>131</ele>
        <time>2024-12-16T11:17:42Z</time>
      </trkpt>
      <trkpt lat="43.65006" lon="1.39156">
        <ele>131</ele>
        <time>2024-12-16T11:17:43Z</time>
      </trkpt>
      <trkpt lat="43.65006" lon="1.39156">
        <ele>131</ele>
        <time>2024-12-16T11:17:44Z</time>
      </trkpt>
      <trkpt lat="43.65001" lon="1.39158">
        <ele>131</ele>
        <time>2024-12-16T11:17:45Z</time>
      </trkpt>
      <trkpt lat="43.65001" lon="1.39158">
        <ele>131</ele>
        <time>2024-12-16T11:17:46Z</time>
      </trkpt>
      <trkpt lat="43.64996" lon="1.39159">
        <ele>131</ele>
        <time>2024-12-16T11:17:47Z</time>
      </trkpt>
      <trkpt lat="43.64994" lon="1.39159">
        <ele>132</ele>
        <time>2024-12-16T11:17:48Z</time>
      </trkpt>
      <trkpt lat="43.64991" lon="1.3916">
        <ele>132</ele>
        <time>2024-12-16T11:17:49Z</time>
      </trkpt>
      <trkpt lat="43.64991" lon="1.3916">
        <ele>132</ele>
        <time>2024-12-16T11:17:50Z</time>
      </trkpt>
      <trkpt lat="43.64986" lon="1.39161">
        <ele>132</ele>
        <time>2024-12-16T11:17:51Z</time>
      </trkpt>
      <trkpt lat="43.64984" lon="1.39162">
        <ele>132</ele>
        <time>2024-12-16T11:17:52Z</time>
      </trkpt>
      <trkpt lat="43.64981" lon="1.39163">
        <ele>132</ele>
        <time>2024-12-16T11:17:53Z</time>
      </trkpt>
      <trkpt lat="43.64981" lon="1.39163">
        <ele>132</ele>
        <time>2024-12-16T11:17:54Z</time>
      </trkpt>
      <trkpt lat="43.64976" lon="1.39164">
        <ele>131</ele>
        <time>2024-12-16T11:17:55Z</time>
      </trkpt>
      <trkpt lat="43.64974" lon="1.39165">
        <ele>131</ele>
        <time>2024-12-16T11:17:56Z</time>
      </trkpt>
      <trkpt lat="43.64974" lon="1.39165">
        <ele>131</ele>
        <time>2024-12-16T11:17:57Z</time>
      </trkpt>
      <trkpt lat="43.64971" lon="1.39165">
        <ele>131</ele>
        <time>2024-12-16T11:17:58Z</time>
      </trkpt>
      <trkpt lat="43.64966" lon="1.39165">
        <ele>131</ele>
        <time>2024-12-16T11:17:59Z</time>
      </trkpt>
      <trkpt lat="43.64966" lon="1.39165">
        <ele>131</ele>
        <time>2024-12-16T11:18:00Z</time>
      </trkpt>
      <trkpt lat="43.64961" lon="1.39163">
        <ele>131</ele>
        <time>2024-12-16T11:18:01Z</time>
      </trkpt>
      <trkpt lat="43.64958" lon="1.39161">
        <ele>131</ele>
        <time>2024-12-16T11:18:02Z</time>
      </trkpt>
      <trkpt lat="43.64956" lon="1.39157">
        <ele>131</ele>
        <time>2024-12-16T11:18:03Z</time>
      </trkpt>
      <trkpt lat="43.64955" lon="1.39154">
        <ele>131</ele>
        <time>2024-12-16T11:18:04Z</time>
      </trkpt>
      <trkpt lat="43.64953" lon="1.39151">
        <ele>131</ele>
        <time>2024-12-16T11:18:05Z</time>
      </trkpt>
      <trkpt lat="43.64953" lon="1.39151">
        <ele>131</ele>
        <time>2024-12-16T11:18:06Z</time>
      </trkpt>
      <trkpt lat="43.64952" lon="1.39147">
        <ele>131</ele>
        <time>2024-12-16T11:18:07Z</time>
      </trkpt>
      <trkpt lat="43.6495" lon="1.3914">
        <ele>131</ele>
        <time>2024-12-16T11:18:08Z</time>
      </trkpt>
      <trkpt lat="43.64949" lon="1.39137">
        <ele>131</ele>
        <time>2024-12-16T11:18:09Z</time>
      </trkpt>
      <trkpt lat="43.64949" lon="1.39137">
        <ele>131</ele>
        <time>2024-12-16T11:18:10Z</time>
      </trkpt>
      <trkpt lat="43.64948" lon="1.39133">
        <ele>131</ele>
        <time>2024-12-16T11:18:11Z</time>
      </trkpt>
      <trkpt lat="43.64947" lon="1.3913">
        <ele>131</ele>
        <time>2024-12-16T11:18:12Z</time>
      </trkpt>
      <trkpt lat="43.64946" lon="1.39127">
        <ele>131</ele>
        <time>2024-12-16T11:18:13Z</time>
      </trkpt>
      <trkpt lat="43.64942" lon="1.39122">
        <ele>131</ele>
        <time>2024-12-16T11:18:14Z</time>
      </trkpt>
      <trkpt lat="43.64942" lon="1.39122">
        <ele>132</ele>
        <time>2024-12-16T11:18:15Z</time>
      </trkpt>
      <trkpt lat="43.6494" lon="1.39121">
        <ele>132</ele>
        <time>2024-12-16T11:18:16Z</time>
      </trkpt>
      <trkpt lat="43.64934" lon="1.39119">
        <ele>132</ele>
        <time>2024-12-16T11:18:17Z</time>
      </trkpt>
      <trkpt lat="43.64934" lon="1.39119">
        <ele>132</ele>
        <time>2024-12-16T11:18:18Z</time>
      </trkpt>
      <trkpt lat="43.64929" lon="1.39118">
        <ele>132</ele>
        <time>2024-12-16T11:18:19Z</time>
      </trkpt>
      <trkpt lat="43.64927" lon="1.39118">
        <ele>132</ele>
        <time>2024-12-16T11:18:20Z</time>
      </trkpt>
      <trkpt lat="43.64924" lon="1.39118">
        <ele>132</ele>
        <time>2024-12-16T11:18:21Z</time>
      </trkpt>
      <trkpt lat="43.64922" lon="1.39118">
        <ele>132</ele>
        <time>2024-12-16T11:18:22Z</time>
      </trkpt>
      <trkpt lat="43.64922" lon="1.39118">
        <ele>131</ele>
        <time>2024-12-16T11:18:23Z</time>
      </trkpt>
      <trkpt lat="43.64917" lon="1.39118">
        <ele>131</ele>
        <time>2024-12-16T11:18:24Z</time>
      </trkpt>
      <trkpt lat="43.64914" lon="1.39118">
        <ele>132</ele>
        <time>2024-12-16T11:18:25Z</time>
      </trkpt>
      <trkpt lat="43.64911" lon="1.39118">
        <ele>132</ele>
        <time>2024-12-16T11:18:26Z</time>
      </trkpt>
      <trkpt lat="43.64909" lon="1.39118">
        <ele>132</ele>
        <time>2024-12-16T11:18:27Z</time>
      </trkpt>
      <trkpt lat="43.64906" lon="1.39119">
        <ele>132</ele>
        <time>2024-12-16T11:18:28Z</time>
      </trkpt>
      <trkpt lat="43.64906" lon="1.39119">
        <ele>132</ele>
        <time>2024-12-16T11:18:29Z</time>
      </trkpt>
      <trkpt lat="43.64901" lon="1.3912">
        <ele>132</ele>
        <time>2024-12-16T11:18:30Z</time>
      </trkpt>
      <trkpt lat="43.64901" lon="1.3912">
        <ele>132</ele>
        <time>2024-12-16T11:18:31Z</time>
      </trkpt>
      <trkpt lat="43.64896" lon="1.39121">
        <ele>132</ele>
        <time>2024-12-16T11:18:32Z</time>
      </trkpt>
      <trkpt lat="43.64893" lon="1.39122">
        <ele>132</ele>
        <time>2024-12-16T11:18:33Z</time>
      </trkpt>
      <trkpt lat="43.64891" lon="1.39122">
        <ele>132</ele>
        <time>2024-12-16T11:18:34Z</time>
      </trkpt>
      <trkpt lat="43.64891" lon="1.39122">
        <ele>132</ele>
        <time>2024-12-16T11:18:35Z</time>
      </trkpt>
      <trkpt lat="43.64888" lon="1.39123">
        <ele>132</ele>
        <time>2024-12-16T11:18:36Z</time>
      </trkpt>
      <trkpt lat="43.64886" lon="1.39124">
        <ele>132</ele>
        <time>2024-12-16T11:18:37Z</time>
      </trkpt>
      <trkpt lat="43.64881" lon="1.39125">
        <ele>132</ele>
        <time>2024-12-16T11:18:38Z</time>
      </trkpt>
      <trkpt lat="43.64881" lon="1.39125">
        <ele>132</ele>
        <time>2024-12-16T11:18:39Z</time>
      </trkpt>
      <trkpt lat="43.64876" lon="1.39127">
        <ele>131</ele>
        <time>2024-12-16T11:18:40Z</time>
      </trkpt>
      <trkpt lat="43.64873" lon="1.39128">
        <ele>131</ele>
        <time>2024-12-16T11:18:41Z</time>
      </trkpt>
      <trkpt lat="43.6487" lon="1.39128">
        <ele>131</ele>
        <time>2024-12-16T11:18:42Z</time>
      </trkpt>
      <trkpt lat="43.64868" lon="1.39129">
        <ele>131</ele>
        <time>2024-12-16T11:18:43Z</time>
      </trkpt>
      <trkpt lat="43.64865" lon="1.3913">
        <ele>131</ele>
        <time>2024-12-16T11:18:44Z</time>
      </trkpt>
      <trkpt lat="43.64863" lon="1.39131">
        <ele>131</ele>
        <time>2024-12-16T11:18:45Z</time>
      </trkpt>
      <trkpt lat="43.6486" lon="1.39132">
        <ele>132</ele>
        <time>2024-12-16T11:18:46Z</time>
      </trkpt>
      <trkpt lat="43.64857" lon="1.39133">
        <ele>132</ele>
        <time>2024-12-16T11:18:47Z</time>
      </trkpt>
      <trkpt lat="43.64857" lon="1.39133">
        <ele>132</ele>
        <time>2024-12-16T11:18:48Z</time>
      </trkpt>
      <trkpt lat="43.64855" lon="1.39134">
        <ele>131</ele>
        <time>2024-12-16T11:18:49Z</time>
      </trkpt>
      <trkpt lat="43.64852" lon="1.39135">
        <ele>131</ele>
        <time>2024-12-16T11:18:50Z</time>
      </trkpt>
      <trkpt lat="43.6485" lon="1.39136">
        <ele>131</ele>
        <time>2024-12-16T11:18:51Z</time>
      </trkpt>
      <trkpt lat="43.64845" lon="1.39137">
        <ele>131</ele>
        <time>2024-12-16T11:18:52Z</time>
      </trkpt>
      <trkpt lat="43.64845" lon="1.39137">
        <ele>131</ele>
        <time>2024-12-16T11:18:53Z</time>
      </trkpt>
      <trkpt lat="43.64842" lon="1.39138">
        <ele>132</ele>
        <time>2024-12-16T11:18:54Z</time>
      </trkpt>
      <trkpt lat="43.64837" lon="1.39142">
        <ele>132</ele>
        <time>2024-12-16T11:18:55Z</time>
      </trkpt>
      <trkpt lat="43.64837" lon="1.39142">
        <ele>132</ele>
        <time>2024-12-16T11:18:56Z</time>
      </trkpt>
      <trkpt lat="43.64833" lon="1.39145">
        <ele>132</ele>
        <time>2024-12-16T11:18:57Z</time>
      </trkpt>
      <trkpt lat="43.64833" lon="1.39145">
        <ele>132</ele>
        <time>2024-12-16T11:18:58Z</time>
      </trkpt>
      <trkpt lat="43.64828" lon="1.39149">
        <ele>132</ele>
        <time>2024-12-16T11:18:59Z</time>
      </trkpt>
      <trkpt lat="43.64826" lon="1.39151">
        <ele>132</ele>
        <time>2024-12-16T11:19:00Z</time>
      </trkpt>
      <trkpt lat="43.64826" lon="1.39151">
        <ele>132</ele>
        <time>2024-12-16T11:19:01Z</time>
      </trkpt>
      <trkpt lat="43.64823" lon="1.39152">
        <ele>132</ele>
        <time>2024-12-16T11:19:02Z</time>
      </trkpt>
      <trkpt lat="43.64821" lon="1.39154">
        <ele>132</ele>
        <time>2024-12-16T11:19:03Z</time>
      </trkpt>
      <trkpt lat="43.64818" lon="1.39156">
        <ele>132</ele>
        <time>2024-12-16T11:19:04Z</time>
      </trkpt>
      <trkpt lat="43.64816" lon="1.39158">
        <ele>131</ele>
        <time>2024-12-16T11:19:05Z</time>
      </trkpt>
      <trkpt lat="43.64814" lon="1.3916">
        <ele>131</ele>
        <time>2024-12-16T11:19:06Z</time>
      </trkpt>
      <trkpt lat="43.64812" lon="1.39161">
        <ele>132</ele>
        <time>2024-12-16T11:19:07Z</time>
      </trkpt>
      <trkpt lat="43.6481" lon="1.39163">
        <ele>132</ele>
        <time>2024-12-16T11:19:08Z</time>
      </trkpt>
      <trkpt lat="43.64807" lon="1.39165">
        <ele>132</ele>
        <time>2024-12-16T11:19:09Z</time>
      </trkpt>
      <trkpt lat="43.64805" lon="1.39166">
        <ele>132</ele>
        <time>2024-12-16T11:19:10Z</time>
      </trkpt>
      <trkpt lat="43.64801" lon="1.39169">
        <ele>132</ele>
        <time>2024-12-16T11:19:11Z</time>
      </trkpt>
      <trkpt lat="43.64798" lon="1.3917">
        <ele>132</ele>
        <time>2024-12-16T11:19:12Z</time>
      </trkpt>
      <trkpt lat="43.64796" lon="1.39171">
        <ele>132</ele>
        <time>2024-12-16T11:19:13Z</time>
      </trkpt>
      <trkpt lat="43.64796" lon="1.39171">
        <ele>132</ele>
        <time>2024-12-16T11:19:14Z</time>
      </trkpt>
      <trkpt lat="43.64794" lon="1.39173">
        <ele>132</ele>
        <time>2024-12-16T11:19:15Z</time>
      </trkpt>
      <trkpt lat="43.64792" lon="1.39174">
        <ele>132</ele>
        <time>2024-12-16T11:19:16Z</time>
      </trkpt>
      <trkpt lat="43.64789" lon="1.39176">
        <ele>132</ele>
        <time>2024-12-16T11:19:17Z</time>
      </trkpt>
      <trkpt lat="43.64785" lon="1.39179">
        <ele>132</ele>
        <time>2024-12-16T11:19:18Z</time>
      </trkpt>
      <trkpt lat="43.64782" lon="1.3918">
        <ele>132</ele>
        <time>2024-12-16T11:19:19Z</time>
      </trkpt>
      <trkpt lat="43.6478" lon="1.39181">
        <ele>132</ele>
        <time>2024-12-16T11:19:20Z</time>
      </trkpt>
      <trkpt lat="43.6478" lon="1.39181">
        <ele>132</ele>
        <time>2024-12-16T11:19:21Z</time>
      </trkpt>
      <trkpt lat="43.64776" lon="1.39184">
        <ele>132</ele>
        <time>2024-12-16T11:19:22Z</time>
      </trkpt>
      <trkpt lat="43.64774" lon="1.39185">
        <ele>132</ele>
        <time>2024-12-16T11:19:23Z</time>
      </trkpt>
      <trkpt lat="43.64771" lon="1.39187">
        <ele>132</ele>
        <time>2024-12-16T11:19:24Z</time>
      </trkpt>
      <trkpt lat="43.64769" lon="1.39188">
        <ele>132</ele>
        <time>2024-12-16T11:19:25Z</time>
      </trkpt>
      <trkpt lat="43.64769" lon="1.39188">
        <ele>132</ele>
        <time>2024-12-16T11:19:26Z</time>
      </trkpt>
      <trkpt lat="43.64767" lon="1.39189">
        <ele>132</ele>
        <time>2024-12-16T11:19:27Z</time>
      </trkpt>
      <trkpt lat="43.64765" lon="1.3919">
        <ele>132</ele>
        <time>2024-12-16T11:19:28Z</time>
      </trkpt>
      <trkpt lat="43.6476" lon="1.39193">
        <ele>132</ele>
        <time>2024-12-16T11:19:29Z</time>
      </trkpt>
      <trkpt lat="43.64758" lon="1.39194">
        <ele>132</ele>
        <time>2024-12-16T11:19:30Z</time>
      </trkpt>
      <trkpt lat="43.64756" lon="1.39195">
        <ele>132</ele>
        <time>2024-12-16T11:19:31Z</time>
      </trkpt>
      <trkpt lat="43.64754" lon="1.39197">
        <ele>132</ele>
        <time>2024-12-16T11:19:32Z</time>
      </trkpt>
      <trkpt lat="43.64754" lon="1.39197">
        <ele>132</ele>
        <time>2024-12-16T11:19:33Z</time>
      </trkpt>
      <trkpt lat="43.64752" lon="1.39198">
        <ele>132</ele>
        <time>2024-12-16T11:19:34Z</time>
      </trkpt>
      <trkpt lat="43.64749" lon="1.392">
        <ele>132</ele>
        <time>2024-12-16T11:19:35Z</time>
      </trkpt>
      <trkpt lat="43.64747" lon="1.39201">
        <ele>132</ele>
        <time>2024-12-16T11:19:36Z</time>
      </trkpt>
      <trkpt lat="43.64743" lon="1.39204">
        <ele>132</ele>
        <time>2024-12-16T11:19:37Z</time>
      </trkpt>
      <trkpt lat="43.64741" lon="1.39205">
        <ele>132</ele>
        <time>2024-12-16T11:19:38Z</time>
      </trkpt>
      <trkpt lat="43.64738" lon="1.39207">
        <ele>132</ele>
        <time>2024-12-16T11:19:39Z</time>
      </trkpt>
      <trkpt lat="43.64738" lon="1.39207">
        <ele>132</ele>
        <time>2024-12-16T11:19:40Z</time>
      </trkpt>
      <trkpt lat="43.64734" lon="1.3921">
        <ele>132</ele>
        <time>2024-12-16T11:19:41Z</time>
      </trkpt>
      <trkpt lat="43.64734" lon="1.3921">
        <ele>132</ele>
        <time>2024-12-16T11:19:42Z</time>
      </trkpt>
      <trkpt lat="43.64729" lon="1.39213">
        <ele>132</ele>
        <time>2024-12-16T11:19:43Z</time>
      </trkpt>
      <trkpt lat="43.64727" lon="1.39214">
        <ele>132</ele>
        <time>2024-12-16T11:19:44Z</time>
      </trkpt>
      <trkpt lat="43.64725" lon="1.39215">
        <ele>132</ele>
        <time>2024-12-16T11:19:45Z</time>
      </trkpt>
      <trkpt lat="43.64725" lon="1.39215">
        <ele>132</ele>
        <time>2024-12-16T11:19:46Z</time>
      </trkpt>
      <trkpt lat="43.6472" lon="1.39219">
        <ele>132</ele>
        <time>2024-12-16T11:19:47Z</time>
      </trkpt>
      <trkpt lat="43.6472" lon="1.39219">
        <ele>131</ele>
        <time>2024-12-16T11:19:48Z</time>
      </trkpt>
      <trkpt lat="43.64718" lon="1.39221">
        <ele>131</ele>
        <time>2024-12-16T11:19:49Z</time>
      </trkpt>
      <trkpt lat="43.64713" lon="1.39224">
        <ele>132</ele>
        <time>2024-12-16T11:19:50Z</time>
      </trkpt>
      <trkpt lat="43.64711" lon="1.39226">
        <ele>132</ele>
        <time>2024-12-16T11:19:51Z</time>
      </trkpt>
      <trkpt lat="43.64708" lon="1.39228">
        <ele>132</ele>
        <time>2024-12-16T11:19:52Z</time>
      </trkpt>
      <trkpt lat="43.64706" lon="1.39229">
        <ele>132</ele>
        <time>2024-12-16T11:19:53Z</time>
      </trkpt>
      <trkpt lat="43.64706" lon="1.39229">
        <ele>132</ele>
        <time>2024-12-16T11:19:54Z</time>
      </trkpt>
      <trkpt lat="43.64704" lon="1.3923">
        <ele>132</ele>
        <time>2024-12-16T11:19:55Z</time>
      </trkpt>
      <trkpt lat="43.64702" lon="1.39232">
        <ele>132</ele>
        <time>2024-12-16T11:19:56Z</time>
      </trkpt>
      <trkpt lat="43.64697" lon="1.39234">
        <ele>132</ele>
        <time>2024-12-16T11:19:57Z</time>
      </trkpt>
      <trkpt lat="43.64695" lon="1.39235">
        <ele>132</ele>
        <time>2024-12-16T11:19:58Z</time>
      </trkpt>
      <trkpt lat="43.64692" lon="1.39237">
        <ele>131</ele>
        <time>2024-12-16T11:19:59Z</time>
      </trkpt>
      <trkpt lat="43.6469" lon="1.39238">
        <ele>131</ele>
        <time>2024-12-16T11:20:00Z</time>
      </trkpt>
      <trkpt lat="43.6469" lon="1.39238">
        <ele>132</ele>
        <time>2024-12-16T11:20:01Z</time>
      </trkpt>
      <trkpt lat="43.64686" lon="1.39241">
        <ele>132</ele>
        <time>2024-12-16T11:20:02Z</time>
      </trkpt>
      <trkpt lat="43.64683" lon="1.39242">
        <ele>132</ele>
        <time>2024-12-16T11:20:03Z</time>
      </trkpt>
      <trkpt lat="43.64683" lon="1.39242">
        <ele>132</ele>
        <time>2024-12-16T11:20:04Z</time>
      </trkpt>
      <trkpt lat="43.64679" lon="1.39245">
        <ele>132</ele>
        <time>2024-12-16T11:20:05Z</time>
      </trkpt>
      <trkpt lat="43.64679" lon="1.39245">
        <ele>132</ele>
        <time>2024-12-16T11:20:06Z</time>
      </trkpt>
      <trkpt lat="43.64673" lon="1.39248">
        <ele>132</ele>
        <time>2024-12-16T11:20:07Z</time>
      </trkpt>
      <trkpt lat="43.64671" lon="1.39249">
        <ele>131</ele>
        <time>2024-12-16T11:20:08Z</time>
      </trkpt>
      <trkpt lat="43.64671" lon="1.39249">
        <ele>131</ele>
        <time>2024-12-16T11:20:09Z</time>
      </trkpt>
      <trkpt lat="43.64669" lon="1.39251">
        <ele>132</ele>
        <time>2024-12-16T11:20:10Z</time>
      </trkpt>
      <trkpt lat="43.64666" lon="1.39252">
        <ele>132</ele>
        <time>2024-12-16T11:20:11Z</time>
      </trkpt>
      <trkpt lat="43.64662" lon="1.39255">
        <ele>132</ele>
        <time>2024-12-16T11:20:12Z</time>
      </trkpt>
      <trkpt lat="43.64659" lon="1.39256">
        <ele>132</ele>
        <time>2024-12-16T11:20:13Z</time>
      </trkpt>
      <trkpt lat="43.64657" lon="1.39257">
        <ele>132</ele>
        <time>2024-12-16T11:20:14Z</time>
      </trkpt>
      <trkpt lat="43.64655" lon="1.39259">
        <ele>132</ele>
        <time>2024-12-16T11:20:15Z</time>
      </trkpt>
      <trkpt lat="43.64655" lon="1.39259">
        <ele>132</ele>
        <time>2024-12-16T11:20:16Z</time>
      </trkpt>
      <trkpt lat="43.64652" lon="1.3926">
        <ele>133</ele>
        <time>2024-12-16T11:20:17Z</time>
      </trkpt>
      <trkpt lat="43.6465" lon="1.39261">
        <ele>133</ele>
        <time>2024-12-16T11:20:18Z</time>
      </trkpt>
      <trkpt lat="43.64645" lon="1.39263">
        <ele>133</ele>
        <time>2024-12-16T11:20:19Z</time>
      </trkpt>
      <trkpt lat="43.64645" lon="1.39263">
        <ele>133</ele>
        <time>2024-12-16T11:20:20Z</time>
      </trkpt>
      <trkpt lat="43.6464" lon="1.39266">
        <ele>133</ele>
        <time>2024-12-16T11:20:21Z</time>
      </trkpt>
      <trkpt lat="43.64638" lon="1.39267">
        <ele>133</ele>
        <time>2024-12-16T11:20:22Z</time>
      </trkpt>
      <trkpt lat="43.64636" lon="1.39268">
        <ele>133</ele>
        <time>2024-12-16T11:20:23Z</time>
      </trkpt>
      <trkpt lat="43.64634" lon="1.39269">
        <ele>133</ele>
        <time>2024-12-16T11:20:24Z</time>
      </trkpt>
      <trkpt lat="43.64634" lon="1.39269">
        <ele>133</ele>
        <time>2024-12-16T11:20:25Z</time>
      </trkpt>
      <trkpt lat="43.64631" lon="1.3927">
        <ele>133</ele>
        <time>2024-12-16T11:20:26Z</time>
      </trkpt>
      <trkpt lat="43.64629" lon="1.39271">
        <ele>133</ele>
        <time>2024-12-16T11:20:27Z</time>
      </trkpt>
      <trkpt lat="43.64625" lon="1.39274">
        <ele>133</ele>
        <time>2024-12-16T11:20:28Z</time>
      </trkpt>
      <trkpt lat="43.64622" lon="1.39274">
        <ele>132</ele>
        <time>2024-12-16T11:20:29Z</time>
      </trkpt>
      <trkpt lat="43.6462" lon="1.39275">
        <ele>132</ele>
        <time>2024-12-16T11:20:30Z</time>
      </trkpt>
      <trkpt lat="43.64618" lon="1.39276">
        <ele>132</ele>
        <time>2024-12-16T11:20:31Z</time>
      </trkpt>
      <trkpt lat="43.64618" lon="1.39276">
        <ele>132</ele>
        <time>2024-12-16T11:20:32Z</time>
      </trkpt>
      <trkpt lat="43.64614" lon="1.39278">
        <ele>132</ele>
        <time>2024-12-16T11:20:33Z</time>
      </trkpt>
      <trkpt lat="43.64611" lon="1.3928">
        <ele>133</ele>
        <time>2024-12-16T11:20:34Z</time>
      </trkpt>
      <trkpt lat="43.64609" lon="1.39281">
        <ele>133</ele>
        <time>2024-12-16T11:20:35Z</time>
      </trkpt>
      <trkpt lat="43.64609" lon="1.39281">
        <ele>133</ele>
        <time>2024-12-16T11:20:36Z</time>
      </trkpt>
      <trkpt lat="43.64607" lon="1.39282">
        <ele>133</ele>
        <time>2024-12-16T11:20:37Z</time>
      </trkpt>
      <trkpt lat="43.64602" lon="1.39284">
        <ele>133</ele>
        <time>2024-12-16T11:20:38Z</time>
      </trkpt>
      <trkpt lat="43.64602" lon="1.39284">
        <ele>133</ele>
        <time>2024-12-16T11:20:39Z</time>
      </trkpt>
      <trkpt lat="43.64599" lon="1.39285">
        <ele>133</ele>
        <time>2024-12-16T11:20:40Z</time>
      </trkpt>
      <trkpt lat="43.64597" lon="1.39286">
        <ele>133</ele>
        <time>2024-12-16T11:20:41Z</time>
      </trkpt>
      <trkpt lat="43.64592" lon="1.39288">
        <ele>133</ele>
        <time>2024-12-16T11:20:42Z</time>
      </trkpt>
      <trkpt lat="43.64589" lon="1.3929">
        <ele>133</ele>
        <time>2024-12-16T11:20:43Z</time>
      </trkpt>
      <trkpt lat="43.64586" lon="1.39291">
        <ele>133</ele>
        <time>2024-12-16T11:20:44Z</time>
      </trkpt>
      <trkpt lat="43.64586" lon="1.39291">
        <ele>133</ele>
        <time>2024-12-16T11:20:45Z</time>
      </trkpt>
      <trkpt lat="43.64584" lon="1.39292">
        <ele>133</ele>
        <time>2024-12-16T11:20:46Z</time>
      </trkpt>
      <trkpt lat="43.64578" lon="1.39294">
        <ele>133</ele>
        <time>2024-12-16T11:20:47Z</time>
      </trkpt>
      <trkpt lat="43.64578" lon="1.39294">
        <ele>133</ele>
        <time>2024-12-16T11:20:48Z</time>
      </trkpt>
      <trkpt lat="43.64573" lon="1.39295">
        <ele>133</ele>
        <time>2024-12-16T11:20:49Z</time>
      </trkpt>
      <trkpt lat="43.64571" lon="1.39296">
        <ele>133</ele>
        <time>2024-12-16T11:20:50Z</time>
      </trkpt>
      <trkpt lat="43.64571" lon="1.39296">
        <ele>133</ele>
        <time>2024-12-16T11:20:51Z</time>
      </trkpt>
      <trkpt lat="43.64566" lon="1.39297">
        <ele>133</ele>
        <time>2024-12-16T11:20:52Z</time>
      </trkpt>
      <trkpt lat="43.64563" lon="1.39298">
        <ele>133</ele>
        <time>2024-12-16T11:20:53Z</time>
      </trkpt>
      <trkpt lat="43.64563" lon="1.39298">
        <ele>133</ele>
        <time>2024-12-16T11:20:54Z</time>
      </trkpt>
      <trkpt lat="43.64558" lon="1.393">
        <ele>133</ele>
        <time>2024-12-16T11:20:55Z</time>
      </trkpt>
      <trkpt lat="43.64558" lon="1.393">
        <ele>133</ele>
        <time>2024-12-16T11:20:56Z</time>
      </trkpt>
      <trkpt lat="43.64553" lon="1.39302">
        <ele>133</ele>
        <time>2024-12-16T11:20:57Z</time>
      </trkpt>
      <trkpt lat="43.64553" lon="1.39302">
        <ele>133</ele>
        <time>2024-12-16T11:20:58Z</time>
      </trkpt>
      <trkpt lat="43.6455" lon="1.39303">
        <ele>133</ele>
        <time>2024-12-16T11:20:59Z</time>
      </trkpt>
      <trkpt lat="43.64545" lon="1.39304">
        <ele>133</ele>
        <time>2024-12-16T11:21:00Z</time>
      </trkpt>
      <trkpt lat="43.64542" lon="1.39305">
        <ele>133</ele>
        <time>2024-12-16T11:21:01Z</time>
      </trkpt>
      <trkpt lat="43.64542" lon="1.39305">
        <ele>133</ele>
        <time>2024-12-16T11:21:02Z</time>
      </trkpt>
      <trkpt lat="43.6454" lon="1.39306">
        <ele>133</ele>
        <time>2024-12-16T11:21:03Z</time>
      </trkpt>
      <trkpt lat="43.64535" lon="1.39308">
        <ele>133</ele>
        <time>2024-12-16T11:21:04Z</time>
      </trkpt>
      <trkpt lat="43.64535" lon="1.39308">
        <ele>133</ele>
        <time>2024-12-16T11:21:05Z</time>
      </trkpt>
      <trkpt lat="43.6453" lon="1.3931">
        <ele>133</ele>
        <time>2024-12-16T11:21:06Z</time>
      </trkpt>
      <trkpt lat="43.64527" lon="1.39311">
        <ele>133</ele>
        <time>2024-12-16T11:21:07Z</time>
      </trkpt>
      <trkpt lat="43.64525" lon="1.39311">
        <ele>133</ele>
        <time>2024-12-16T11:21:08Z</time>
      </trkpt>
      <trkpt lat="43.64522" lon="1.39311">
        <ele>133</ele>
        <time>2024-12-16T11:21:09Z</time>
      </trkpt>
      <trkpt lat="43.64522" lon="1.39311">
        <ele>133</ele>
        <time>2024-12-16T11:21:10Z</time>
      </trkpt>
      <trkpt lat="43.64517" lon="1.39312">
        <ele>133</ele>
        <time>2024-12-16T11:21:11Z</time>
      </trkpt>
      <trkpt lat="43.64515" lon="1.39312">
        <ele>133</ele>
        <time>2024-12-16T11:21:12Z</time>
      </trkpt>
      <trkpt lat="43.64512" lon="1.39313">
        <ele>133</ele>
        <time>2024-12-16T11:21:13Z</time>
      </trkpt>
      <trkpt lat="43.6451" lon="1.39313">
        <ele>133</ele>
        <time>2024-12-16T11:21:14Z</time>
      </trkpt>
      <trkpt lat="43.6451" lon="1.39313">
        <ele>133</ele>
        <time>2024-12-16T11:21:15Z</time>
      </trkpt>
      <trkpt lat="43.64507" lon="1.39313">
        <ele>133</ele>
        <time>2024-12-16T11:21:16Z</time>
      </trkpt>
      <trkpt lat="43.64505" lon="1.39313">
        <ele>133</ele>
        <time>2024-12-16T11:21:17Z</time>
      </trkpt>
      <trkpt lat="43.64502" lon="1.39313">
        <ele>133</ele>
        <time>2024-12-16T11:21:18Z</time>
      </trkpt>
      <trkpt lat="43.645" lon="1.39314">
        <ele>133</ele>
        <time>2024-12-16T11:21:19Z</time>
      </trkpt>
      <trkpt lat="43.64497" lon="1.39314">
        <ele>133</ele>
        <time>2024-12-16T11:21:20Z</time>
      </trkpt>
      <trkpt lat="43.64495" lon="1.39314">
        <ele>133</ele>
        <time>2024-12-16T11:21:21Z</time>
      </trkpt>
      <trkpt lat="43.64492" lon="1.39313">
        <ele>133</ele>
        <time>2024-12-16T11:21:22Z</time>
      </trkpt>
      <trkpt lat="43.64487" lon="1.39313">
        <ele>133</ele>
        <time>2024-12-16T11:21:23Z</time>
      </trkpt>
      <trkpt lat="43.64485" lon="1.39313">
        <ele>133</ele>
        <time>2024-12-16T11:21:24Z</time>
      </trkpt>
      <trkpt lat="43.64485" lon="1.39313">
        <ele>134</ele>
        <time>2024-12-16T11:21:25Z</time>
      </trkpt>
      <trkpt lat="43.64482" lon="1.39313">
        <ele>134</ele>
        <time>2024-12-16T11:21:26Z</time>
      </trkpt>
      <trkpt lat="43.6448" lon="1.39312">
        <ele>134</ele>
        <time>2024-12-16T11:21:27Z</time>
      </trkpt>
      <trkpt lat="43.64475" lon="1.39312">
        <ele>134</ele>
        <time>2024-12-16T11:21:28Z</time>
      </trkpt>
      <trkpt lat="43.64473" lon="1.39312">
        <ele>134</ele>
        <time>2024-12-16T11:21:29Z</time>
      </trkpt>
      <trkpt lat="43.6447" lon="1.39312">
        <ele>135</ele>
        <time>2024-12-16T11:21:30Z</time>
      </trkpt>
      <trkpt lat="43.64468" lon="1.39313">
        <ele>135</ele>
        <time>2024-12-16T11:21:31Z</time>
      </trkpt>
      <trkpt lat="43.64468" lon="1.39313">
        <ele>135</ele>
        <time>2024-12-16T11:21:32Z</time>
      </trkpt>
      <trkpt lat="43.64466" lon="1.39315">
        <ele>135</ele>
        <time>2024-12-16T11:21:33Z</time>
      </trkpt>
      <trkpt lat="43.64465" lon="1.39318">
        <ele>135</ele>
        <time>2024-12-16T11:21:34Z</time>
      </trkpt>
      <trkpt lat="43.64465" lon="1.39325">
        <ele>135</ele>
        <time>2024-12-16T11:21:35Z</time>
      </trkpt>
      <trkpt lat="43.64465" lon="1.39325">
        <ele>135</ele>
        <time>2024-12-16T11:21:36Z</time>
      </trkpt>
      <trkpt lat="43.64466" lon="1.39332">
        <ele>135</ele>
        <time>2024-12-16T11:21:37Z</time>
      </trkpt>
      <trkpt lat="43.64466" lon="1.39332">
        <ele>135</ele>
        <time>2024-12-16T11:21:38Z</time>
      </trkpt>
      <trkpt lat="43.64467" lon="1.39339">
        <ele>135</ele>
        <time>2024-12-16T11:21:39Z</time>
      </trkpt>
      <trkpt lat="43.64467" lon="1.39342">
        <ele>135</ele>
        <time>2024-12-16T11:21:40Z</time>
      </trkpt>
      <trkpt lat="43.64467" lon="1.39342">
        <ele>135</ele>
        <time>2024-12-16T11:21:41Z</time>
      </trkpt>
      <trkpt lat="43.64468" lon="1.39346">
        <ele>135</ele>
        <time>2024-12-16T11:21:42Z</time>
      </trkpt>
      <trkpt lat="43.64469" lon="1.39349">
        <ele>135</ele>
        <time>2024-12-16T11:21:43Z</time>
      </trkpt>
      <trkpt lat="43.6447" lon="1.39356">
        <ele>135</ele>
        <time>2024-12-16T11:21:44Z</time>
      </trkpt>
      <trkpt lat="43.6447" lon="1.39359">
        <ele>136</ele>
        <time>2024-12-16T11:21:45Z</time>
      </trkpt>
      <trkpt lat="43.64471" lon="1.39362">
        <ele>136</ele>
        <time>2024-12-16T11:21:46Z</time>
      </trkpt>
      <trkpt lat="43.64471" lon="1.39362">
        <ele>136</ele>
        <time>2024-12-16T11:21:47Z</time>
      </trkpt>
      <trkpt lat="43.64472" lon="1.39369">
        <ele>136</ele>
        <time>2024-12-16T11:21:48Z</time>
      </trkpt>
      <trkpt lat="43.64473" lon="1.39372">
        <ele>136</ele>
        <time>2024-12-16T11:21:49Z</time>
      </trkpt>
      <trkpt lat="43.64473" lon="1.39376">
        <ele>136</ele>
        <time>2024-12-16T11:21:50Z</time>
      </trkpt>
      <trkpt lat="43.64473" lon="1.39376">
        <ele>136</ele>
        <time>2024-12-16T11:21:51Z</time>
      </trkpt>
      <trkpt lat="43.64474" lon="1.39379">
        <ele>136</ele>
        <time>2024-12-16T11:21:52Z</time>
      </trkpt>
      <trkpt lat="43.64475" lon="1.39382">
        <ele>136</ele>
        <time>2024-12-16T11:21:53Z</time>
      </trkpt>
      <trkpt lat="43.64476" lon="1.39388">
        <ele>136</ele>
        <time>2024-12-16T11:21:54Z</time>
      </trkpt>
      <trkpt lat="43.64476" lon="1.39388">
        <ele>136</ele>
        <time>2024-12-16T11:21:55Z</time>
      </trkpt>
      <trkpt lat="43.64476" lon="1.39392">
        <ele>136</ele>
        <time>2024-12-16T11:21:56Z</time>
      </trkpt>
      <trkpt lat="43.64477" lon="1.39395">
        <ele>136</ele>
        <time>2024-12-16T11:21:57Z</time>
      </trkpt>
      <trkpt lat="43.64478" lon="1.39401">
        <ele>136</ele>
        <time>2024-12-16T11:21:58Z</time>
      </trkpt>
      <trkpt lat="43.64479" lon="1.39404">
        <ele>136</ele>
        <time>2024-12-16T11:21:59Z</time>
      </trkpt>
      <trkpt lat="43.64479" lon="1.39408">
        <ele>136</ele>
        <time>2024-12-16T11:22:00Z</time>
      </trkpt>
      <trkpt lat="43.6448" lon="1.39411">
        <ele>136</ele>
        <time>2024-12-16T11:22:01Z</time>
      </trkpt>
      <trkpt lat="43.6448" lon="1.39411">
        <ele>136</ele>
        <time>2024-12-16T11:22:02Z</time>
      </trkpt>
      <trkpt lat="43.6448" lon="1.39414">
        <ele>136</ele>
        <time>2024-12-16T11:22:03Z</time>
      </trkpt>
      <trkpt lat="43.64481" lon="1.39418">
        <ele>136</ele>
        <time>2024-12-16T11:22:04Z</time>
      </trkpt>
      <trkpt lat="43.64482" lon="1.39424">
        <ele>136</ele>
        <time>2024-12-16T11:22:05Z</time>
      </trkpt>
      <trkpt lat="43.64482" lon="1.39424">
        <ele>136</ele>
        <time>2024-12-16T11:22:06Z</time>
      </trkpt>
      <trkpt lat="43.64482" lon="1.39431">
        <ele>136</ele>
        <time>2024-12-16T11:22:07Z</time>
      </trkpt>
      <trkpt lat="43.64483" lon="1.39435">
        <ele>136</ele>
        <time>2024-12-16T11:22:08Z</time>
      </trkpt>
      <trkpt lat="43.64483" lon="1.39435">
        <ele>136</ele>
        <time>2024-12-16T11:22:09Z</time>
      </trkpt>
      <trkpt lat="43.64484" lon="1.39438">
        <ele>136</ele>
        <time>2024-12-16T11:22:10Z</time>
      </trkpt>
      <trkpt lat="43.64485" lon="1.39444">
        <ele>136</ele>
        <time>2024-12-16T11:22:11Z</time>
      </trkpt>
      <trkpt lat="43.64485" lon="1.39444">
        <ele>136</ele>
        <time>2024-12-16T11:22:12Z</time>
      </trkpt>
      <trkpt lat="43.64486" lon="1.39451">
        <ele>136</ele>
        <time>2024-12-16T11:22:13Z</time>
      </trkpt>
      <trkpt lat="43.64486" lon="1.39451">
        <ele>136</ele>
        <time>2024-12-16T11:22:14Z</time>
      </trkpt>
      <trkpt lat="43.64486" lon="1.39455">
        <ele>136</ele>
        <time>2024-12-16T11:22:15Z</time>
      </trkpt>
      <trkpt lat="43.64487" lon="1.39458">
        <ele>136</ele>
        <time>2024-12-16T11:22:16Z</time>
      </trkpt>
      <trkpt lat="43.64488" lon="1.39465">
        <ele>136</ele>
        <time>2024-12-16T11:22:17Z</time>
      </trkpt>
      <trkpt lat="43.64488" lon="1.39465">
        <ele>136</ele>
        <time>2024-12-16T11:22:18Z</time>
      </trkpt>
      <trkpt lat="43.64489" lon="1.39472">
        <ele>136</ele>
        <time>2024-12-16T11:22:19Z</time>
      </trkpt>
      <trkpt lat="43.64489" lon="1.39475">
        <ele>136</ele>
        <time>2024-12-16T11:22:20Z</time>
      </trkpt>
      <trkpt lat="43.6449" lon="1.39479">
        <ele>136</ele>
        <time>2024-12-16T11:22:21Z</time>
      </trkpt>
      <trkpt lat="43.64491" lon="1.39482">
        <ele>136</ele>
        <time>2024-12-16T11:22:22Z</time>
      </trkpt>
      <trkpt lat="43.64491" lon="1.39482">
        <ele>136</ele>
        <time>2024-12-16T11:22:23Z</time>
      </trkpt>
      <trkpt lat="43.64492" lon="1.3949">
        <ele>136</ele>
        <time>2024-12-16T11:22:24Z</time>
      </trkpt>
      <trkpt lat="43.64493" lon="1.39493">
        <ele>136</ele>
        <time>2024-12-16T11:22:25Z</time>
      </trkpt>
      <trkpt lat="43.64493" lon="1.39493">
        <ele>136</ele>
        <time>2024-12-16T11:22:26Z</time>
      </trkpt>
      <trkpt lat="43.64493" lon="1.39497">
        <ele>136</ele>
        <time>2024-12-16T11:22:27Z</time>
      </trkpt>
      <trkpt lat="43.64495" lon="1.39504">
        <ele>136</ele>
        <time>2024-12-16T11:22:28Z</time>
      </trkpt>
      <trkpt lat="43.64495" lon="1.39507">
        <ele>136</ele>
        <time>2024-12-16T11:22:29Z</time>
      </trkpt>
      <trkpt lat="43.64496" lon="1.39511">
        <ele>136</ele>
        <time>2024-12-16T11:22:30Z</time>
      </trkpt>
      <trkpt lat="43.64497" lon="1.39514">
        <ele>137</ele>
        <time>2024-12-16T11:22:31Z</time>
      </trkpt>
      <trkpt lat="43.64497" lon="1.39518">
        <ele>137</ele>
        <time>2024-12-16T11:22:32Z</time>
      </trkpt>
      <trkpt lat="43.64497" lon="1.39518">
        <ele>137</ele>
        <time>2024-12-16T11:22:33Z</time>
      </trkpt>
      <trkpt lat="43.64498" lon="1.39521">
        <ele>137</ele>
        <time>2024-12-16T11:22:34Z</time>
      </trkpt>
      <trkpt lat="43.64498" lon="1.39524">
        <ele>137</ele>
        <time>2024-12-16T11:22:35Z</time>
      </trkpt>
      <trkpt lat="43.64499" lon="1.39531">
        <ele>136</ele>
        <time>2024-12-16T11:22:36Z</time>
      </trkpt>
      <trkpt lat="43.64499" lon="1.39534">
        <ele>136</ele>
        <time>2024-12-16T11:22:37Z</time>
      </trkpt>
      <trkpt lat="43.64499" lon="1.39538">
        <ele>136</ele>
        <time>2024-12-16T11:22:38Z</time>
      </trkpt>
      <trkpt lat="43.645" lon="1.39541">
        <ele>136</ele>
        <time>2024-12-16T11:22:39Z</time>
      </trkpt>
      <trkpt lat="43.645" lon="1.39541">
        <ele>136</ele>
        <time>2024-12-16T11:22:40Z</time>
      </trkpt>
      <trkpt lat="43.645" lon="1.39548">
        <ele>136</ele>
        <time>2024-12-16T11:22:41Z</time>
      </trkpt>
      <trkpt lat="43.645" lon="1.39548">
        <ele>136</ele>
        <time>2024-12-16T11:22:42Z</time>
      </trkpt>
      <trkpt lat="43.64501" lon="1.39555">
        <ele>136</ele>
        <time>2024-12-16T11:22:43Z</time>
      </trkpt>
      <trkpt lat="43.64501" lon="1.39555">
        <ele>136</ele>
        <time>2024-12-16T11:22:44Z</time>
      </trkpt>
      <trkpt lat="43.64502" lon="1.39561">
        <ele>136</ele>
        <time>2024-12-16T11:22:45Z</time>
      </trkpt>
      <trkpt lat="43.64502" lon="1.39565">
        <ele>136</ele>
        <time>2024-12-16T11:22:46Z</time>
      </trkpt>
      <trkpt lat="43.64502" lon="1.39565">
        <ele>136</ele>
        <time>2024-12-16T11:22:47Z</time>
      </trkpt>
      <trkpt lat="43.64503" lon="1.39572">
        <ele>136</ele>
        <time>2024-12-16T11:22:48Z</time>
      </trkpt>
      <trkpt lat="43.64503" lon="1.39575">
        <ele>136</ele>
        <time>2024-12-16T11:22:49Z</time>
      </trkpt>
      <trkpt lat="43.64503" lon="1.39579">
        <ele>136</ele>
        <time>2024-12-16T11:22:50Z</time>
      </trkpt>
      <trkpt lat="43.64503" lon="1.39582">
        <ele>136</ele>
        <time>2024-12-16T11:22:51Z</time>
      </trkpt>
      <trkpt lat="43.64503" lon="1.39582">
        <ele>136</ele>
        <time>2024-12-16T11:22:52Z</time>
      </trkpt>
      <trkpt lat="43.64504" lon="1.39589">
        <ele>136</ele>
        <time>2024-12-16T11:22:53Z</time>
      </trkpt>
      <trkpt lat="43.64504" lon="1.39589">
        <ele>136</ele>
        <time>2024-12-16T11:22:54Z</time>
      </trkpt>
      <trkpt lat="43.64505" lon="1.39596">
        <ele>136</ele>
        <time>2024-12-16T11:22:55Z</time>
      </trkpt>
      <trkpt lat="43.64505" lon="1.39596">
        <ele>136</ele>
        <time>2024-12-16T11:22:56Z</time>
      </trkpt>
      <trkpt lat="43.64505" lon="1.39599">
        <ele>136</ele>
        <time>2024-12-16T11:22:57Z</time>
      </trkpt>
      <trkpt lat="43.64506" lon="1.39606">
        <ele>136</ele>
        <time>2024-12-16T11:22:58Z</time>
      </trkpt>
      <trkpt lat="43.64506" lon="1.3961">
        <ele>136</ele>
        <time>2024-12-16T11:22:59Z</time>
      </trkpt>
      <trkpt lat="43.64506" lon="1.3961">
        <ele>136</ele>
        <time>2024-12-16T11:23:00Z</time>
      </trkpt>
      <trkpt lat="43.64506" lon="1.39617">
        <ele>136</ele>
        <time>2024-12-16T11:23:01Z</time>
      </trkpt>
      <trkpt lat="43.64506" lon="1.39621">
        <ele>136</ele>
        <time>2024-12-16T11:23:02Z</time>
      </trkpt>
      <trkpt lat="43.64506" lon="1.39625">
        <ele>136</ele>
        <time>2024-12-16T11:23:03Z</time>
      </trkpt>
      <trkpt lat="43.64506" lon="1.39628">
        <ele>136</ele>
        <time>2024-12-16T11:23:04Z</time>
      </trkpt>
      <trkpt lat="43.64506" lon="1.39628">
        <ele>135</ele>
        <time>2024-12-16T11:23:05Z</time>
      </trkpt>
      <trkpt lat="43.64506" lon="1.39632">
        <ele>135</ele>
        <time>2024-12-16T11:23:06Z</time>
      </trkpt>
      <trkpt lat="43.64506" lon="1.39636">
        <ele>136</ele>
        <time>2024-12-16T11:23:07Z</time>
      </trkpt>
      <trkpt lat="43.64506" lon="1.39639">
        <ele>136</ele>
        <time>2024-12-16T11:23:08Z</time>
      </trkpt>
      <trkpt lat="43.64506" lon="1.39643">
        <ele>136</ele>
        <time>2024-12-16T11:23:09Z</time>
      </trkpt>
      <trkpt lat="43.64506" lon="1.3965">
        <ele>136</ele>
        <time>2024-12-16T11:23:10Z</time>
      </trkpt>
      <trkpt lat="43.64506" lon="1.39653">
        <ele>136</ele>
        <time>2024-12-16T11:23:11Z</time>
      </trkpt>
      <trkpt lat="43.64506" lon="1.39657">
        <ele>136</ele>
        <time>2024-12-16T11:23:12Z</time>
      </trkpt>
      <trkpt lat="43.64506" lon="1.39657">
        <ele>136</ele>
        <time>2024-12-16T11:23:13Z</time>
      </trkpt>
      <trkpt lat="43.64506" lon="1.3966">
        <ele>136</ele>
        <time>2024-12-16T11:23:14Z</time>
      </trkpt>
      <trkpt lat="43.64506" lon="1.39663">
        <ele>136</ele>
        <time>2024-12-16T11:23:15Z</time>
      </trkpt>
      <trkpt lat="43.64506" lon="1.39667">
        <ele>136</ele>
        <time>2024-12-16T11:23:16Z</time>
      </trkpt>
      <trkpt lat="43.64506" lon="1.39673">
        <ele>136</ele>
        <time>2024-12-16T11:23:17Z</time>
      </trkpt>
      <trkpt lat="43.64506" lon="1.39677">
        <ele>136</ele>
        <time>2024-12-16T11:23:18Z</time>
      </trkpt>
      <trkpt lat="43.64506" lon="1.39681">
        <ele>136</ele>
        <time>2024-12-16T11:23:19Z</time>
      </trkpt>
      <trkpt lat="43.64506" lon="1.39681">
        <ele>136</ele>
        <time>2024-12-16T11:23:20Z</time>
      </trkpt>
      <trkpt lat="43.64506" lon="1.39684">
        <ele>136</ele>
        <time>2024-12-16T11:23:21Z</time>
      </trkpt>
      <trkpt lat="43.64506" lon="1.39688">
        <ele>136</ele>
        <time>2024-12-16T11:23:22Z</time>
      </trkpt>
      <trkpt lat="43.64506" lon="1.39691">
        <ele>136</ele>
        <time>2024-12-16T11:23:23Z</time>
      </trkpt>
      <trkpt lat="43.64506" lon="1.39698">
        <ele>136</ele>
        <time>2024-12-16T11:23:24Z</time>
      </trkpt>
      <trkpt lat="43.64506" lon="1.39701">
        <ele>136</ele>
        <time>2024-12-16T11:23:25Z</time>
      </trkpt>
      <trkpt lat="43.64506" lon="1.39705">
        <ele>136</ele>
        <time>2024-12-16T11:23:26Z</time>
      </trkpt>
      <trkpt lat="43.64506" lon="1.39708">
        <ele>137</ele>
        <time>2024-12-16T11:23:27Z</time>
      </trkpt>
      <trkpt lat="43.64506" lon="1.39708">
        <ele>137</ele>
        <time>2024-12-16T11:23:28Z</time>
      </trkpt>
      <trkpt lat="43.64505" lon="1.39715">
        <ele>137</ele>
        <time>2024-12-16T11:23:29Z</time>
      </trkpt>
      <trkpt lat="43.64505" lon="1.39715">
        <ele>137</ele>
        <time>2024-12-16T11:23:30Z</time>
      </trkpt>
      <trkpt lat="43.64505" lon="1.39722">
        <ele>137</ele>
        <time>2024-12-16T11:23:31Z</time>
      </trkpt>
      <trkpt lat="43.64505" lon="1.39722">
        <ele>137</ele>
        <time>2024-12-16T11:23:32Z</time>
      </trkpt>
      <trkpt lat="43.64505" lon="1.39729">
        <ele>136</ele>
        <time>2024-12-16T11:23:33Z</time>
      </trkpt>
      <trkpt lat="43.64505" lon="1.39729">
        <ele>136</ele>
        <time>2024-12-16T11:23:34Z</time>
      </trkpt>
      <trkpt lat="43.64505" lon="1.39733">
        <ele>136</ele>
        <time>2024-12-16T11:23:35Z</time>
      </trkpt>
      <trkpt lat="43.64505" lon="1.39736">
        <ele>136</ele>
        <time>2024-12-16T11:23:36Z</time>
      </trkpt>
      <trkpt lat="43.64505" lon="1.3974">
        <ele>136</ele>
        <time>2024-12-16T11:23:37Z</time>
      </trkpt>
      <trkpt lat="43.64505" lon="1.39747">
        <ele>136</ele>
        <time>2024-12-16T11:23:38Z</time>
      </trkpt>
      <trkpt lat="43.64505" lon="1.39747">
        <ele>136</ele>
        <time>2024-12-16T11:23:39Z</time>
      </trkpt>
      <trkpt lat="43.64505" lon="1.39754">
        <ele>136</ele>
        <time>2024-12-16T11:23:40Z</time>
      </trkpt>
      <trkpt lat="43.64505" lon="1.39757">
        <ele>136</ele>
        <time>2024-12-16T11:23:41Z</time>
      </trkpt>
      <trkpt lat="43.64505" lon="1.39757">
        <ele>136</ele>
        <time>2024-12-16T11:23:42Z</time>
      </trkpt>
      <trkpt lat="43.64505" lon="1.3976">
        <ele>136</ele>
        <time>2024-12-16T11:23:43Z</time>
      </trkpt>
      <trkpt lat="43.64505" lon="1.39764">
        <ele>136</ele>
        <time>2024-12-16T11:23:44Z</time>
      </trkpt>
      <trkpt lat="43.64505" lon="1.39767">
        <ele>136</ele>
        <time>2024-12-16T11:23:45Z</time>
      </trkpt>
      <trkpt lat="43.64505" lon="1.39771">
        <ele>136</ele>
        <time>2024-12-16T11:23:46Z</time>
      </trkpt>
      <trkpt lat="43.64505" lon="1.39774">
        <ele>137</ele>
        <time>2024-12-16T11:23:47Z</time>
      </trkpt>
      <trkpt lat="43.64504" lon="1.39781">
        <ele>137</ele>
        <time>2024-12-16T11:23:48Z</time>
      </trkpt>
      <trkpt lat="43.64504" lon="1.39784">
        <ele>137</ele>
        <time>2024-12-16T11:23:49Z</time>
      </trkpt>
      <trkpt lat="43.64504" lon="1.39784">
        <ele>137</ele>
        <time>2024-12-16T11:23:50Z</time>
      </trkpt>
      <trkpt lat="43.64504" lon="1.39788">
        <ele>137</ele>
        <time>2024-12-16T11:23:51Z</time>
      </trkpt>
      <trkpt lat="43.64504" lon="1.39791">
        <ele>137</ele>
        <time>2024-12-16T11:23:52Z</time>
      </trkpt>
      <trkpt lat="43.64504" lon="1.39795">
        <ele>137</ele>
        <time>2024-12-16T11:23:53Z</time>
      </trkpt>
      <trkpt lat="43.64505" lon="1.39798">
        <ele>136</ele>
        <time>2024-12-16T11:23:54Z</time>
      </trkpt>
      <trkpt lat="43.64504" lon="1.39804">
        <ele>136</ele>
        <time>2024-12-16T11:23:55Z</time>
      </trkpt>
      <trkpt lat="43.64504" lon="1.39808">
        <ele>136</ele>
        <time>2024-12-16T11:23:56Z</time>
      </trkpt>
      <trkpt lat="43.64504" lon="1.39811">
        <ele>136</ele>
        <time>2024-12-16T11:23:57Z</time>
      </trkpt>
      <trkpt lat="43.64504" lon="1.39815">
        <ele>136</ele>
        <time>2024-12-16T11:23:58Z</time>
      </trkpt>
      <trkpt lat="43.64504" lon="1.39815">
        <ele>136</ele>
        <time>2024-12-16T11:23:59Z</time>
      </trkpt>
      <trkpt lat="43.64504" lon="1.39821">
        <ele>136</ele>
        <time>2024-12-16T11:24:00Z</time>
      </trkpt>
      <trkpt lat="43.64504" lon="1.39821">
        <ele>136</ele>
        <time>2024-12-16T11:24:01Z</time>
      </trkpt>
      <trkpt lat="43.64504" lon="1.39828">
        <ele>136</ele>
        <time>2024-12-16T11:24:02Z</time>
      </trkpt>
      <trkpt lat="43.64504" lon="1.39828">
        <ele>136</ele>
        <time>2024-12-16T11:24:03Z</time>
      </trkpt>
      <trkpt lat="43.64504" lon="1.39834">
        <ele>136</ele>
        <time>2024-12-16T11:24:04Z</time>
      </trkpt>
      <trkpt lat="43.64504" lon="1.39838">
        <ele>136</ele>
        <time>2024-12-16T11:24:05Z</time>
      </trkpt>
      <trkpt lat="43.64504" lon="1.39838">
        <ele>135</ele>
        <time>2024-12-16T11:24:06Z</time>
      </trkpt>
      <trkpt lat="43.64503" lon="1.39845">
        <ele>135</ele>
        <time>2024-12-16T11:24:07Z</time>
      </trkpt>
      <trkpt lat="43.64503" lon="1.39845">
        <ele>136</ele>
        <time>2024-12-16T11:24:08Z</time>
      </trkpt>
      <trkpt lat="43.64503" lon="1.39851">
        <ele>136</ele>
        <time>2024-12-16T11:24:09Z</time>
      </trkpt>
      <trkpt lat="43.64503" lon="1.39855">
        <ele>136</ele>
        <time>2024-12-16T11:24:10Z</time>
      </trkpt>
      <trkpt lat="43.64503" lon="1.39858">
        <ele>136</ele>
        <time>2024-12-16T11:24:11Z</time>
      </trkpt>
      <trkpt lat="43.64503" lon="1.39861">
        <ele>136</ele>
        <time>2024-12-16T11:24:12Z</time>
      </trkpt>
      <trkpt lat="43.64503" lon="1.39865">
        <ele>137</ele>
        <time>2024-12-16T11:24:13Z</time>
      </trkpt>
      <trkpt lat="43.64503" lon="1.39865">
        <ele>137</ele>
        <time>2024-12-16T11:24:14Z</time>
      </trkpt>
      <trkpt lat="43.64503" lon="1.39871">
        <ele>137</ele>
        <time>2024-12-16T11:24:15Z</time>
      </trkpt>
      <trkpt lat="43.64503" lon="1.39871">
        <ele>137</ele>
        <time>2024-12-16T11:24:16Z</time>
      </trkpt>
      <trkpt lat="43.64503" lon="1.39878">
        <ele>137</ele>
        <time>2024-12-16T11:24:17Z</time>
      </trkpt>
      <trkpt lat="43.64503" lon="1.39882">
        <ele>137</ele>
        <time>2024-12-16T11:24:18Z</time>
      </trkpt>
      <trkpt lat="43.64503" lon="1.39882">
        <ele>137</ele>
        <time>2024-12-16T11:24:19Z</time>
      </trkpt>
      <trkpt lat="43.64503" lon="1.39888">
        <ele>137</ele>
        <time>2024-12-16T11:24:20Z</time>
      </trkpt>
      <trkpt lat="43.64503" lon="1.39888">
        <ele>136</ele>
        <time>2024-12-16T11:24:21Z</time>
      </trkpt>
      <trkpt lat="43.64503" lon="1.39895">
        <ele>136</ele>
        <time>2024-12-16T11:24:22Z</time>
      </trkpt>
      <trkpt lat="43.64503" lon="1.39899">
        <ele>136</ele>
        <time>2024-12-16T11:24:23Z</time>
      </trkpt>
      <trkpt lat="43.64503" lon="1.39902">
        <ele>136</ele>
        <time>2024-12-16T11:24:24Z</time>
      </trkpt>
      <trkpt lat="43.64502" lon="1.39906">
        <ele>136</ele>
        <time>2024-12-16T11:24:25Z</time>
      </trkpt>
      <trkpt lat="43.64502" lon="1.39906">
        <ele>136</ele>
        <time>2024-12-16T11:24:26Z</time>
      </trkpt>
      <trkpt lat="43.64502" lon="1.39909">
        <ele>136</ele>
        <time>2024-12-16T11:24:27Z</time>
      </trkpt>
      <trkpt lat="43.64502" lon="1.39915">
        <ele>136</ele>
        <time>2024-12-16T11:24:28Z</time>
      </trkpt>
      <trkpt lat="43.64503" lon="1.39919">
        <ele>136</ele>
        <time>2024-12-16T11:24:29Z</time>
      </trkpt>
      <trkpt lat="43.64503" lon="1.39919">
        <ele>136</ele>
        <time>2024-12-16T11:24:30Z</time>
      </trkpt>
      <trkpt lat="43.64505" lon="1.39924">
        <ele>136</ele>
        <time>2024-12-16T11:24:31Z</time>
      </trkpt>
      <trkpt lat="43.64505" lon="1.39924">
        <ele>135</ele>
        <time>2024-12-16T11:24:32Z</time>
      </trkpt>
      <trkpt lat="43.64508" lon="1.39929">
        <ele>136</ele>
        <time>2024-12-16T11:24:33Z</time>
      </trkpt>
      <trkpt lat="43.64509" lon="1.39932">
        <ele>136</ele>
        <time>2024-12-16T11:24:34Z</time>
      </trkpt>
      <trkpt lat="43.64509" lon="1.39932">
        <ele>136</ele>
        <time>2024-12-16T11:24:35Z</time>
      </trkpt>
      <trkpt lat="43.64511" lon="1.39938">
        <ele>136</ele>
        <time>2024-12-16T11:24:36Z</time>
      </trkpt>
      <trkpt lat="43.64511" lon="1.39938">
        <ele>136</ele>
        <time>2024-12-16T11:24:37Z</time>
      </trkpt>
      <trkpt lat="43.64511" lon="1.39945">
        <ele>136</ele>
        <time>2024-12-16T11:24:38Z</time>
      </trkpt>
      <trkpt lat="43.64511" lon="1.39945">
        <ele>136</ele>
        <time>2024-12-16T11:24:39Z</time>
      </trkpt>
      <trkpt lat="43.6451" lon="1.39948">
        <ele>136</ele>
        <time>2024-12-16T11:24:40Z</time>
      </trkpt>
      <trkpt lat="43.64509" lon="1.39951">
        <ele>136</ele>
        <time>2024-12-16T11:24:41Z</time>
      </trkpt>
      <trkpt lat="43.64507" lon="1.39953">
        <ele>136</ele>
        <time>2024-12-16T11:24:42Z</time>
      </trkpt>
      <trkpt lat="43.64505" lon="1.39954">
        <ele>136</ele>
        <time>2024-12-16T11:24:43Z</time>
      </trkpt>
      <trkpt lat="43.64502" lon="1.39955">
        <ele>136</ele>
        <time>2024-12-16T11:24:44Z</time>
      </trkpt>
      <trkpt lat="43.64498" lon="1.39956">
        <ele>136</ele>
        <time>2024-12-16T11:24:45Z</time>
      </trkpt>
      <trkpt lat="43.64498" lon="1.39956">
        <ele>136</ele>
        <time>2024-12-16T11:24:46Z</time>
      </trkpt>
      <trkpt lat="43.64494" lon="1.39957">
        <ele>136</ele>
        <time>2024-12-16T11:24:47Z</time>
      </trkpt>
      <trkpt lat="43.64492" lon="1.39957">
        <ele>136</ele>
        <time>2024-12-16T11:24:48Z</time>
      </trkpt>
      <trkpt lat="43.64492" lon="1.39957">
        <ele>136</ele>
        <time>2024-12-16T11:24:49Z</time>
      </trkpt>
      <trkpt lat="43.64487" lon="1.39957">
        <ele>136</ele>
        <time>2024-12-16T11:24:50Z</time>
      </trkpt>
      <trkpt lat="43.64485" lon="1.39958">
        <ele>136</ele>
        <time>2024-12-16T11:24:51Z</time>
      </trkpt>
      <trkpt lat="43.64485" lon="1.39958">
        <ele>135</ele>
        <time>2024-12-16T11:24:52Z</time>
      </trkpt>
      <trkpt lat="43.64482" lon="1.39959">
        <ele>134</ele>
        <time>2024-12-16T11:24:53Z</time>
      </trkpt>
      <trkpt lat="43.6448" lon="1.39961">
        <ele>134</ele>
        <time>2024-12-16T11:24:54Z</time>
      </trkpt>
      <trkpt lat="43.64474" lon="1.39963">
        <ele>134</ele>
        <time>2024-12-16T11:24:55Z</time>
      </trkpt>
      <trkpt lat="43.64474" lon="1.39963">
        <ele>134</ele>
        <time>2024-12-16T11:24:56Z</time>
      </trkpt>
      <trkpt lat="43.64468" lon="1.39963">
        <ele>134</ele>
        <time>2024-12-16T11:24:57Z</time>
      </trkpt>
      <trkpt lat="43.64465" lon="1.39964">
        <ele>134</ele>
        <time>2024-12-16T11:24:58Z</time>
      </trkpt>
      <trkpt lat="43.64463" lon="1.39964">
        <ele>134</ele>
        <time>2024-12-16T11:24:59Z</time>
      </trkpt>
      <trkpt lat="43.6446" lon="1.39964">
        <ele>133</ele>
        <time>2024-12-16T11:25:00Z</time>
      </trkpt>
      <trkpt lat="43.6446" lon="1.39964">
        <ele>133</ele>
        <time>2024-12-16T11:25:01Z</time>
      </trkpt>
      <trkpt lat="43.64457" lon="1.39964">
        <ele>133</ele>
        <time>2024-12-16T11:25:02Z</time>
      </trkpt>
      <trkpt lat="43.64455" lon="1.39964">
        <ele>133</ele>
        <time>2024-12-16T11:25:03Z</time>
      </trkpt>
      <trkpt lat="43.6445" lon="1.39965">
        <ele>133</ele>
        <time>2024-12-16T11:25:04Z</time>
      </trkpt>
      <trkpt lat="43.6445" lon="1.39965">
        <ele>133</ele>
        <time>2024-12-16T11:25:05Z</time>
      </trkpt>
      <trkpt lat="43.64444" lon="1.39965">
        <ele>133</ele>
        <time>2024-12-16T11:25:06Z</time>
      </trkpt>
      <trkpt lat="43.64442" lon="1.39965">
        <ele>133</ele>
        <time>2024-12-16T11:25:07Z</time>
      </trkpt>
      <trkpt lat="43.64439" lon="1.39965">
        <ele>133</ele>
        <time>2024-12-16T11:25:08Z</time>
      </trkpt>
      <trkpt lat="43.64436" lon="1.39965">
        <ele>133</ele>
        <time>2024-12-16T11:25:09Z</time>
      </trkpt>
      <trkpt lat="43.64434" lon="1.39965">
        <ele>133</ele>
        <time>2024-12-16T11:25:10Z</time>
      </trkpt>
      <trkpt lat="43.64434" lon="1.39965">
        <ele>133</ele>
        <time>2024-12-16T11:25:11Z</time>
      </trkpt>
      <trkpt lat="43.64431" lon="1.39965">
        <ele>133</ele>
        <time>2024-12-16T11:25:12Z</time>
      </trkpt>
      <trkpt lat="43.64429" lon="1.39965">
        <ele>133</ele>
        <time>2024-12-16T11:25:13Z</time>
      </trkpt>
      <trkpt lat="43.64426" lon="1.39965">
        <ele>133</ele>
        <time>2024-12-16T11:25:14Z</time>
      </trkpt>
      <trkpt lat="43.64423" lon="1.39965">
        <ele>132</ele>
        <time>2024-12-16T11:25:15Z</time>
      </trkpt>
      <trkpt lat="43.64418" lon="1.39965">
        <ele>132</ele>
        <time>2024-12-16T11:25:16Z</time>
      </trkpt>
      <trkpt lat="43.64415" lon="1.39965">
        <ele>132</ele>
        <time>2024-12-16T11:25:17Z</time>
      </trkpt>
      <trkpt lat="43.64415" lon="1.39965">
        <ele>132</ele>
        <time>2024-12-16T11:25:18Z</time>
      </trkpt>
      <trkpt lat="43.64413" lon="1.39965">
        <ele>133</ele>
        <time>2024-12-16T11:25:19Z</time>
      </trkpt>
      <trkpt lat="43.6441" lon="1.39965">
        <ele>133</ele>
        <time>2024-12-16T11:25:20Z</time>
      </trkpt>
      <trkpt lat="43.64408" lon="1.39964">
        <ele>133</ele>
        <time>2024-12-16T11:25:21Z</time>
      </trkpt>
      <trkpt lat="43.64405" lon="1.39964">
        <ele>133</ele>
        <time>2024-12-16T11:25:22Z</time>
      </trkpt>
      <trkpt lat="43.64401" lon="1.39964">
        <ele>133</ele>
        <time>2024-12-16T11:25:23Z</time>
      </trkpt>
      <trkpt lat="43.64398" lon="1.39963">
        <ele>133</ele>
        <time>2024-12-16T11:25:24Z</time>
      </trkpt>
      <trkpt lat="43.64398" lon="1.39963">
        <ele>133</ele>
        <time>2024-12-16T11:25:25Z</time>
      </trkpt>
      <trkpt lat="43.64395" lon="1.39963">
        <ele>133</ele>
        <time>2024-12-16T11:25:26Z</time>
      </trkpt>
      <trkpt lat="43.64393" lon="1.39963">
        <ele>133</ele>
        <time>2024-12-16T11:25:27Z</time>
      </trkpt>
      <trkpt lat="43.64387" lon="1.39963">
        <ele>133</ele>
        <time>2024-12-16T11:25:28Z</time>
      </trkpt>
      <trkpt lat="43.64384" lon="1.39962">
        <ele>133</ele>
        <time>2024-12-16T11:25:29Z</time>
      </trkpt>
      <trkpt lat="43.64384" lon="1.39962">
        <ele>133</ele>
        <time>2024-12-16T11:25:30Z</time>
      </trkpt>
      <trkpt lat="43.64382" lon="1.39962">
        <ele>133</ele>
        <time>2024-12-16T11:25:31Z</time>
      </trkpt>
      <trkpt lat="43.64379" lon="1.39961">
        <ele>133</ele>
        <time>2024-12-16T11:25:32Z</time>
      </trkpt>
      <trkpt lat="43.64376" lon="1.3996">
        <ele>133</ele>
        <time>2024-12-16T11:25:33Z</time>
      </trkpt>
      <trkpt lat="43.64373" lon="1.3996">
        <ele>133</ele>
        <time>2024-12-16T11:25:34Z</time>
      </trkpt>
      <trkpt lat="43.64371" lon="1.39959">
        <ele>133</ele>
        <time>2024-12-16T11:25:35Z</time>
      </trkpt>
      <trkpt lat="43.64369" lon="1.39959">
        <ele>133</ele>
        <time>2024-12-16T11:25:36Z</time>
      </trkpt>
      <trkpt lat="43.64369" lon="1.39959">
        <ele>133</ele>
        <time>2024-12-16T11:25:37Z</time>
      </trkpt>
      <trkpt lat="43.64364" lon="1.39957">
        <ele>133</ele>
        <time>2024-12-16T11:25:38Z</time>
      </trkpt>
      <trkpt lat="43.64364" lon="1.39957">
        <ele>133</ele>
        <time>2024-12-16T11:25:39Z</time>
      </trkpt>
      <trkpt lat="43.64358" lon="1.39956">
        <ele>133</ele>
        <time>2024-12-16T11:25:40Z</time>
      </trkpt>
      <trkpt lat="43.64358" lon="1.39956">
        <ele>133</ele>
        <time>2024-12-16T11:25:41Z</time>
      </trkpt>
      <trkpt lat="43.64352" lon="1.39955">
        <ele>133</ele>
        <time>2024-12-16T11:25:42Z</time>
      </trkpt>
      <trkpt lat="43.6435" lon="1.39954">
        <ele>133</ele>
        <time>2024-12-16T11:25:43Z</time>
      </trkpt>
      <trkpt lat="43.64347" lon="1.39953">
        <ele>133</ele>
        <time>2024-12-16T11:25:44Z</time>
      </trkpt>
      <trkpt lat="43.64345" lon="1.39952">
        <ele>134</ele>
        <time>2024-12-16T11:25:45Z</time>
      </trkpt>
      <trkpt lat="43.64345" lon="1.39952">
        <ele>134</ele>
        <time>2024-12-16T11:25:46Z</time>
      </trkpt>
      <trkpt lat="43.64339" lon="1.3995">
        <ele>133</ele>
        <time>2024-12-16T11:25:47Z</time>
      </trkpt>
      <trkpt lat="43.64337" lon="1.39949">
        <ele>133</ele>
        <time>2024-12-16T11:25:48Z</time>
      </trkpt>
      <trkpt lat="43.64337" lon="1.39949">
        <ele>133</ele>
        <time>2024-12-16T11:25:49Z</time>
      </trkpt>
      <trkpt lat="43.64331" lon="1.39947">
        <ele>133</ele>
        <time>2024-12-16T11:25:50Z</time>
      </trkpt>
      <trkpt lat="43.64331" lon="1.39947">
        <ele>133</ele>
        <time>2024-12-16T11:25:51Z</time>
      </trkpt>
      <trkpt lat="43.64326" lon="1.39946">
        <ele>133</ele>
        <time>2024-12-16T11:25:52Z</time>
      </trkpt>
      <trkpt lat="43.64326" lon="1.39946">
        <ele>134</ele>
        <time>2024-12-16T11:25:53Z</time>
      </trkpt>
      <trkpt lat="43.64321" lon="1.39944">
        <ele>134</ele>
        <time>2024-12-16T11:25:54Z</time>
      </trkpt>
      <trkpt lat="43.64321" lon="1.39944">
        <ele>134</ele>
        <time>2024-12-16T11:25:55Z</time>
      </trkpt>
      <trkpt lat="43.64318" lon="1.39943">
        <ele>133</ele>
        <time>2024-12-16T11:25:56Z</time>
      </trkpt>
      <trkpt lat="43.64313" lon="1.39942">
        <ele>133</ele>
        <time>2024-12-16T11:25:57Z</time>
      </trkpt>
      <trkpt lat="43.64313" lon="1.39942">
        <ele>134</ele>
        <time>2024-12-16T11:25:58Z</time>
      </trkpt>
      <trkpt lat="43.64308" lon="1.3994">
        <ele>134</ele>
        <time>2024-12-16T11:25:59Z</time>
      </trkpt>
      <trkpt lat="43.64308" lon="1.3994">
        <ele>134</ele>
        <time>2024-12-16T11:26:00Z</time>
      </trkpt>
      <trkpt lat="43.64306" lon="1.39939">
        <ele>134</ele>
        <time>2024-12-16T11:26:01Z</time>
      </trkpt>
      <trkpt lat="43.643" lon="1.39938">
        <ele>134</ele>
        <time>2024-12-16T11:26:02Z</time>
      </trkpt>
      <trkpt lat="43.643" lon="1.39938">
        <ele>134</ele>
        <time>2024-12-16T11:26:03Z</time>
      </trkpt>
      <trkpt lat="43.64294" lon="1.39936">
        <ele>134</ele>
        <time>2024-12-16T11:26:04Z</time>
      </trkpt>
      <trkpt lat="43.64294" lon="1.39936">
        <ele>133</ele>
        <time>2024-12-16T11:26:05Z</time>
      </trkpt>
      <trkpt lat="43.64292" lon="1.39936">
        <ele>133</ele>
        <time>2024-12-16T11:26:06Z</time>
      </trkpt>
      <trkpt lat="43.64289" lon="1.39935">
        <ele>133</ele>
        <time>2024-12-16T11:26:07Z</time>
      </trkpt>
      <trkpt lat="43.64287" lon="1.39935">
        <ele>134</ele>
        <time>2024-12-16T11:26:08Z</time>
      </trkpt>
      <trkpt lat="43.64285" lon="1.39934">
        <ele>134</ele>
        <time>2024-12-16T11:26:09Z</time>
      </trkpt>
      <trkpt lat="43.6428" lon="1.39932">
        <ele>134</ele>
        <time>2024-12-16T11:26:10Z</time>
      </trkpt>
      <trkpt lat="43.6428" lon="1.39932">
        <ele>134</ele>
        <time>2024-12-16T11:26:11Z</time>
      </trkpt>
      <trkpt lat="43.64276" lon="1.3993">
        <ele>134</ele>
        <time>2024-12-16T11:26:12Z</time>
      </trkpt>
      <trkpt lat="43.64273" lon="1.3993">
        <ele>134</ele>
        <time>2024-12-16T11:26:13Z</time>
      </trkpt>
      <trkpt lat="43.64273" lon="1.3993">
        <ele>134</ele>
        <time>2024-12-16T11:26:14Z</time>
      </trkpt>
      <trkpt lat="43.64271" lon="1.3993">
        <ele>134</ele>
        <time>2024-12-16T11:26:15Z</time>
      </trkpt>
      <trkpt lat="43.64268" lon="1.3993">
        <ele>134</ele>
        <time>2024-12-16T11:26:16Z</time>
      </trkpt>
      <trkpt lat="43.64266" lon="1.39929">
        <ele>134</ele>
        <time>2024-12-16T11:26:17Z</time>
      </trkpt>
      <trkpt lat="43.64263" lon="1.39929">
        <ele>134</ele>
        <time>2024-12-16T11:26:18Z</time>
      </trkpt>
      <trkpt lat="43.64259" lon="1.39929">
        <ele>134</ele>
        <time>2024-12-16T11:26:19Z</time>
      </trkpt>
      <trkpt lat="43.64256" lon="1.39928">
        <ele>134</ele>
        <time>2024-12-16T11:26:20Z</time>
      </trkpt>
      <trkpt lat="43.64256" lon="1.39928">
        <ele>134</ele>
        <time>2024-12-16T11:26:21Z</time>
      </trkpt>
      <trkpt lat="43.64254" lon="1.39929">
        <ele>134</ele>
        <time>2024-12-16T11:26:22Z</time>
      </trkpt>
      <trkpt lat="43.64251" lon="1.39929">
        <ele>134</ele>
        <time>2024-12-16T11:26:23Z</time>
      </trkpt>
      <trkpt lat="43.64246" lon="1.3993">
        <ele>134</ele>
        <time>2024-12-16T11:26:24Z</time>
      </trkpt>
      <trkpt lat="43.64244" lon="1.39931">
        <ele>134</ele>
        <time>2024-12-16T11:26:25Z</time>
      </trkpt>
      <trkpt lat="43.64244" lon="1.39931">
        <ele>134</ele>
        <time>2024-12-16T11:26:26Z</time>
      </trkpt>
      <trkpt lat="43.64241" lon="1.39932">
        <ele>134</ele>
        <time>2024-12-16T11:26:27Z</time>
      </trkpt>
      <trkpt lat="43.64239" lon="1.39933">
        <ele>134</ele>
        <time>2024-12-16T11:26:28Z</time>
      </trkpt>
      <trkpt lat="43.64235" lon="1.39935">
        <ele>134</ele>
        <time>2024-12-16T11:26:29Z</time>
      </trkpt>
      <trkpt lat="43.64232" lon="1.39936">
        <ele>134</ele>
        <time>2024-12-16T11:26:30Z</time>
      </trkpt>
      <trkpt lat="43.6423" lon="1.39938">
        <ele>134</ele>
        <time>2024-12-16T11:26:31Z</time>
      </trkpt>
      <trkpt lat="43.64228" lon="1.39939">
        <ele>134</ele>
        <time>2024-12-16T11:26:32Z</time>
      </trkpt>
      <trkpt lat="43.64228" lon="1.39939">
        <ele>134</ele>
        <time>2024-12-16T11:26:33Z</time>
      </trkpt>
      <trkpt lat="43.64226" lon="1.39941">
        <ele>134</ele>
        <time>2024-12-16T11:26:34Z</time>
      </trkpt>
      <trkpt lat="43.64224" lon="1.39943">
        <ele>134</ele>
        <time>2024-12-16T11:26:35Z</time>
      </trkpt>
      <trkpt lat="43.6422" lon="1.39948">
        <ele>134</ele>
        <time>2024-12-16T11:26:36Z</time>
      </trkpt>
      <trkpt lat="43.64218" lon="1.3995">
        <ele>134</ele>
        <time>2024-12-16T11:26:37Z</time>
      </trkpt>
      <trkpt lat="43.64216" lon="1.39952">
        <ele>134</ele>
        <time>2024-12-16T11:26:38Z</time>
      </trkpt>
      <trkpt lat="43.64213" lon="1.39955">
        <ele>134</ele>
        <time>2024-12-16T11:26:39Z</time>
      </trkpt>
      <trkpt lat="43.64213" lon="1.39955">
        <ele>134</ele>
        <time>2024-12-16T11:26:40Z</time>
      </trkpt>
      <trkpt lat="43.64209" lon="1.39959">
        <ele>134</ele>
        <time>2024-12-16T11:26:41Z</time>
      </trkpt>
      <trkpt lat="43.64209" lon="1.39959">
        <ele>134</ele>
        <time>2024-12-16T11:26:42Z</time>
      </trkpt>
      <trkpt lat="43.64205" lon="1.39963">
        <ele>134</ele>
        <time>2024-12-16T11:26:43Z</time>
      </trkpt>
      <trkpt lat="43.64205" lon="1.39963">
        <ele>134</ele>
        <time>2024-12-16T11:26:44Z</time>
      </trkpt>
      <trkpt lat="43.64201" lon="1.39967">
        <ele>134</ele>
        <time>2024-12-16T11:26:45Z</time>
      </trkpt>
      <trkpt lat="43.64201" lon="1.39967">
        <ele>134</ele>
        <time>2024-12-16T11:26:46Z</time>
      </trkpt>
      <trkpt lat="43.64199" lon="1.39968">
        <ele>134</ele>
        <time>2024-12-16T11:26:47Z</time>
      </trkpt>
      <trkpt lat="43.64194" lon="1.39971">
        <ele>134</ele>
        <time>2024-12-16T11:26:48Z</time>
      </trkpt>
      <trkpt lat="43.64192" lon="1.39972">
        <ele>134</ele>
        <time>2024-12-16T11:26:49Z</time>
      </trkpt>
      <trkpt lat="43.64192" lon="1.39972">
        <ele>134</ele>
        <time>2024-12-16T11:26:50Z</time>
      </trkpt>
      <trkpt lat="43.64187" lon="1.39974">
        <ele>134</ele>
        <time>2024-12-16T11:26:51Z</time>
      </trkpt>
      <trkpt lat="43.64187" lon="1.39974">
        <ele>134</ele>
        <time>2024-12-16T11:26:52Z</time>
      </trkpt>
      <trkpt lat="43.64182" lon="1.39975">
        <ele>134</ele>
        <time>2024-12-16T11:26:53Z</time>
      </trkpt>
      <trkpt lat="43.64182" lon="1.39975">
        <ele>134</ele>
        <time>2024-12-16T11:26:54Z</time>
      </trkpt>
      <trkpt lat="43.64176" lon="1.39976">
        <ele>134</ele>
        <time>2024-12-16T11:26:55Z</time>
      </trkpt>
      <trkpt lat="43.64176" lon="1.39976">
        <ele>134</ele>
        <time>2024-12-16T11:26:56Z</time>
      </trkpt>
      <trkpt lat="43.64174" lon="1.39977">
        <ele>134</ele>
        <time>2024-12-16T11:26:57Z</time>
      </trkpt>
      <trkpt lat="43.64169" lon="1.39978">
        <ele>134</ele>
        <time>2024-12-16T11:26:58Z</time>
      </trkpt>
      <trkpt lat="43.64169" lon="1.39978">
        <ele>134</ele>
        <time>2024-12-16T11:26:59Z</time>
      </trkpt>
      <trkpt lat="43.64164" lon="1.39979">
        <ele>134</ele>
        <time>2024-12-16T11:27:00Z</time>
      </trkpt>
      <trkpt lat="43.64164" lon="1.39979">
        <ele>135</ele>
        <time>2024-12-16T11:27:01Z</time>
      </trkpt>
      <trkpt lat="43.6416" lon="1.39981">
        <ele>135</ele>
        <time>2024-12-16T11:27:02Z</time>
      </trkpt>
      <trkpt lat="43.6416" lon="1.39981">
        <ele>134</ele>
        <time>2024-12-16T11:27:03Z</time>
      </trkpt>
      <trkpt lat="43.6416" lon="1.39981">
        <ele>134</ele>
        <time>2024-12-16T11:27:04Z</time>
      </trkpt>
      <trkpt lat="43.6416" lon="1.39981">
        <ele>134</ele>
        <time>2024-12-16T11:27:05Z</time>
      </trkpt>
      <trkpt lat="43.6416" lon="1.39981">
        <ele>134</ele>
        <time>2024-12-16T11:27:06Z</time>
      </trkpt>
      <trkpt lat="43.64166" lon="1.39979">
        <ele>134</ele>
        <time>2024-12-16T11:27:07Z</time>
      </trkpt>
      <trkpt lat="43.64166" lon="1.39979">
        <ele>134</ele>
        <time>2024-12-16T11:27:08Z</time>
      </trkpt>
      <trkpt lat="43.64168" lon="1.39977">
        <ele>134</ele>
        <time>2024-12-16T11:27:09Z</time>
      </trkpt>
      <trkpt lat="43.64173" lon="1.39975">
        <ele>134</ele>
        <time>2024-12-16T11:27:10Z</time>
      </trkpt>
      <trkpt lat="43.64176" lon="1.39974">
        <ele>134</ele>
        <time>2024-12-16T11:27:11Z</time>
      </trkpt>
      <trkpt lat="43.64176" lon="1.39974">
        <ele>134</ele>
        <time>2024-12-16T11:27:12Z</time>
      </trkpt>
      <trkpt lat="43.64181" lon="1.39973">
        <ele>134</ele>
        <time>2024-12-16T11:27:13Z</time>
      </trkpt>
      <trkpt lat="43.64183" lon="1.39973">
        <ele>134</ele>
        <time>2024-12-16T11:27:14Z</time>
      </trkpt>
      <trkpt lat="43.64183" lon="1.39973">
        <ele>134</ele>
        <time>2024-12-16T11:27:15Z</time>
      </trkpt>
      <trkpt lat="43.64188" lon="1.39971">
        <ele>134</ele>
        <time>2024-12-16T11:27:16Z</time>
      </trkpt>
      <trkpt lat="43.6419" lon="1.3997">
        <ele>134</ele>
        <time>2024-12-16T11:27:17Z</time>
      </trkpt>
      <trkpt lat="43.6419" lon="1.3997">
        <ele>134</ele>
        <time>2024-12-16T11:27:18Z</time>
      </trkpt>
      <trkpt lat="43.64192" lon="1.39969">
        <ele>134</ele>
        <time>2024-12-16T11:27:19Z</time>
      </trkpt>
      <trkpt lat="43.64195" lon="1.39968">
        <ele>134</ele>
        <time>2024-12-16T11:27:20Z</time>
      </trkpt>
      <trkpt lat="43.64199" lon="1.39965">
        <ele>134</ele>
        <time>2024-12-16T11:27:21Z</time>
      </trkpt>
      <trkpt lat="43.64199" lon="1.39965">
        <ele>135</ele>
        <time>2024-12-16T11:27:22Z</time>
      </trkpt>
      <trkpt lat="43.64203" lon="1.39962">
        <ele>135</ele>
        <time>2024-12-16T11:27:23Z</time>
      </trkpt>
      <trkpt lat="43.64203" lon="1.39962">
        <ele>135</ele>
        <time>2024-12-16T11:27:24Z</time>
      </trkpt>
      <trkpt lat="43.64205" lon="1.3996">
        <ele>135</ele>
        <time>2024-12-16T11:27:25Z</time>
      </trkpt>
      <trkpt lat="43.64209" lon="1.39955">
        <ele>135</ele>
        <time>2024-12-16T11:27:26Z</time>
      </trkpt>
      <trkpt lat="43.64209" lon="1.39955">
        <ele>135</ele>
        <time>2024-12-16T11:27:27Z</time>
      </trkpt>
      <trkpt lat="43.64213" lon="1.3995">
        <ele>135</ele>
        <time>2024-12-16T11:27:28Z</time>
      </trkpt>
      <trkpt lat="43.64215" lon="1.39948">
        <ele>135</ele>
        <time>2024-12-16T11:27:29Z</time>
      </trkpt>
      <trkpt lat="43.64215" lon="1.39948">
        <ele>135</ele>
        <time>2024-12-16T11:27:30Z</time>
      </trkpt>
      <trkpt lat="43.64219" lon="1.39944">
        <ele>135</ele>
        <time>2024-12-16T11:27:31Z</time>
      </trkpt>
      <trkpt lat="43.64219" lon="1.39944">
        <ele>135</ele>
        <time>2024-12-16T11:27:32Z</time>
      </trkpt>
      <trkpt lat="43.64223" lon="1.39939">
        <ele>135</ele>
        <time>2024-12-16T11:27:33Z</time>
      </trkpt>
      <trkpt lat="43.64223" lon="1.39939">
        <ele>135</ele>
        <time>2024-12-16T11:27:34Z</time>
      </trkpt>
      <trkpt lat="43.64226" lon="1.39935">
        <ele>135</ele>
        <time>2024-12-16T11:27:35Z</time>
      </trkpt>
      <trkpt lat="43.64229" lon="1.39933">
        <ele>135</ele>
        <time>2024-12-16T11:27:36Z</time>
      </trkpt>
      <trkpt lat="43.64229" lon="1.39933">
        <ele>135</ele>
        <time>2024-12-16T11:27:37Z</time>
      </trkpt>
      <trkpt lat="43.64231" lon="1.39932">
        <ele>135</ele>
        <time>2024-12-16T11:27:38Z</time>
      </trkpt>
      <trkpt lat="43.64233" lon="1.39931">
        <ele>135</ele>
        <time>2024-12-16T11:27:39Z</time>
      </trkpt>
      <trkpt lat="43.64238" lon="1.39928">
        <ele>135</ele>
        <time>2024-12-16T11:27:40Z</time>
      </trkpt>
      <trkpt lat="43.6424" lon="1.39927">
        <ele>135</ele>
        <time>2024-12-16T11:27:41Z</time>
      </trkpt>
      <trkpt lat="43.64243" lon="1.39925">
        <ele>135</ele>
        <time>2024-12-16T11:27:42Z</time>
      </trkpt>
      <trkpt lat="43.64245" lon="1.39924">
        <ele>135</ele>
        <time>2024-12-16T11:27:43Z</time>
      </trkpt>
      <trkpt lat="43.64245" lon="1.39924">
        <ele>135</ele>
        <time>2024-12-16T11:27:44Z</time>
      </trkpt>
      <trkpt lat="43.64248" lon="1.39923">
        <ele>135</ele>
        <time>2024-12-16T11:27:45Z</time>
      </trkpt>
      <trkpt lat="43.6425" lon="1.39923">
        <ele>135</ele>
        <time>2024-12-16T11:27:46Z</time>
      </trkpt>
      <trkpt lat="43.64255" lon="1.39922">
        <ele>135</ele>
        <time>2024-12-16T11:27:47Z</time>
      </trkpt>
      <trkpt lat="43.64255" lon="1.39922">
        <ele>135</ele>
        <time>2024-12-16T11:27:48Z</time>
      </trkpt>
      <trkpt lat="43.64258" lon="1.39922">
        <ele>135</ele>
        <time>2024-12-16T11:27:49Z</time>
      </trkpt>
      <trkpt lat="43.64263" lon="1.39922">
        <ele>135</ele>
        <time>2024-12-16T11:27:50Z</time>
      </trkpt>
      <trkpt lat="43.64263" lon="1.39922">
        <ele>135</ele>
        <time>2024-12-16T11:27:51Z</time>
      </trkpt>
      <trkpt lat="43.64266" lon="1.39922">
        <ele>135</ele>
        <time>2024-12-16T11:27:52Z</time>
      </trkpt>
      <trkpt lat="43.64269" lon="1.39922">
        <ele>135</ele>
        <time>2024-12-16T11:27:53Z</time>
      </trkpt>
      <trkpt lat="43.64271" lon="1.39923">
        <ele>135</ele>
        <time>2024-12-16T11:27:54Z</time>
      </trkpt>
      <trkpt lat="43.64276" lon="1.39924">
        <ele>135</ele>
        <time>2024-12-16T11:27:55Z</time>
      </trkpt>
      <trkpt lat="43.64276" lon="1.39924">
        <ele>135</ele>
        <time>2024-12-16T11:27:56Z</time>
      </trkpt>
      <trkpt lat="43.64281" lon="1.39925">
        <ele>135</ele>
        <time>2024-12-16T11:27:57Z</time>
      </trkpt>
      <trkpt lat="43.64281" lon="1.39925">
        <ele>135</ele>
        <time>2024-12-16T11:27:58Z</time>
      </trkpt>
      <trkpt lat="43.64286" lon="1.39926">
        <ele>135</ele>
        <time>2024-12-16T11:27:59Z</time>
      </trkpt>
      <trkpt lat="43.64289" lon="1.39927">
        <ele>135</ele>
        <time>2024-12-16T11:28:00Z</time>
      </trkpt>
      <trkpt lat="43.64291" lon="1.39928">
        <ele>135</ele>
        <time>2024-12-16T11:28:01Z</time>
      </trkpt>
      <trkpt lat="43.64293" lon="1.39928">
        <ele>135</ele>
        <time>2024-12-16T11:28:02Z</time>
      </trkpt>
      <trkpt lat="43.64293" lon="1.39928">
        <ele>135</ele>
        <time>2024-12-16T11:28:03Z</time>
      </trkpt>
      <trkpt lat="43.64298" lon="1.39931">
        <ele>135</ele>
        <time>2024-12-16T11:28:04Z</time>
      </trkpt>
      <trkpt lat="43.64298" lon="1.39931">
        <ele>135</ele>
        <time>2024-12-16T11:28:05Z</time>
      </trkpt>
      <trkpt lat="43.64303" lon="1.39933">
        <ele>135</ele>
        <time>2024-12-16T11:28:06Z</time>
      </trkpt>
      <trkpt lat="43.64303" lon="1.39933">
        <ele>135</ele>
        <time>2024-12-16T11:28:07Z</time>
      </trkpt>
      <trkpt lat="43.64308" lon="1.39934">
        <ele>135</ele>
        <time>2024-12-16T11:28:08Z</time>
      </trkpt>
      <trkpt lat="43.6431" lon="1.39935">
        <ele>134</ele>
        <time>2024-12-16T11:28:09Z</time>
      </trkpt>
      <trkpt lat="43.64313" lon="1.39936">
        <ele>134</ele>
        <time>2024-12-16T11:28:10Z</time>
      </trkpt>
      <trkpt lat="43.64313" lon="1.39936">
        <ele>134</ele>
        <time>2024-12-16T11:28:11Z</time>
      </trkpt>
      <trkpt lat="43.64315" lon="1.39937">
        <ele>134</ele>
        <time>2024-12-16T11:28:12Z</time>
      </trkpt>
      <trkpt lat="43.64321" lon="1.39939">
        <ele>134</ele>
        <time>2024-12-16T11:28:13Z</time>
      </trkpt>
      <trkpt lat="43.64323" lon="1.39939">
        <ele>134</ele>
        <time>2024-12-16T11:28:14Z</time>
      </trkpt>
      <trkpt lat="43.64323" lon="1.39939">
        <ele>134</ele>
        <time>2024-12-16T11:28:15Z</time>
      </trkpt>
      <trkpt lat="43.64329" lon="1.39941">
        <ele>134</ele>
        <time>2024-12-16T11:28:16Z</time>
      </trkpt>
      <trkpt lat="43.64329" lon="1.39941">
        <ele>134</ele>
        <time>2024-12-16T11:28:17Z</time>
      </trkpt>
      <trkpt lat="43.64334" lon="1.39942">
        <ele>134</ele>
        <time>2024-12-16T11:28:18Z</time>
      </trkpt>
      <trkpt lat="43.64334" lon="1.39942">
        <ele>134</ele>
        <time>2024-12-16T11:28:19Z</time>
      </trkpt>
      <trkpt lat="43.64339" lon="1.39944">
        <ele>134</ele>
        <time>2024-12-16T11:28:20Z</time>
      </trkpt>
      <trkpt lat="43.64341" lon="1.39944">
        <ele>134</ele>
        <time>2024-12-16T11:28:21Z</time>
      </trkpt>
      <trkpt lat="43.64341" lon="1.39944">
        <ele>134</ele>
        <time>2024-12-16T11:28:22Z</time>
      </trkpt>
      <trkpt lat="43.64346" lon="1.39946">
        <ele>135</ele>
        <time>2024-12-16T11:28:23Z</time>
      </trkpt>
      <trkpt lat="43.64346" lon="1.39946">
        <ele>135</ele>
        <time>2024-12-16T11:28:24Z</time>
      </trkpt>
      <trkpt lat="43.64351" lon="1.39947">
        <ele>135</ele>
        <time>2024-12-16T11:28:25Z</time>
      </trkpt>
      <trkpt lat="43.64351" lon="1.39947">
        <ele>135</ele>
        <time>2024-12-16T11:28:26Z</time>
      </trkpt>
      <trkpt lat="43.64356" lon="1.39949">
        <ele>135</ele>
        <time>2024-12-16T11:28:27Z</time>
      </trkpt>
      <trkpt lat="43.64359" lon="1.3995">
        <ele>135</ele>
        <time>2024-12-16T11:28:28Z</time>
      </trkpt>
      <trkpt lat="43.64359" lon="1.3995">
        <ele>135</ele>
        <time>2024-12-16T11:28:29Z</time>
      </trkpt>
      <trkpt lat="43.64364" lon="1.3995">
        <ele>135</ele>
        <time>2024-12-16T11:28:30Z</time>
      </trkpt>
      <trkpt lat="43.64364" lon="1.3995">
        <ele>135</ele>
        <time>2024-12-16T11:28:31Z</time>
      </trkpt>
      <trkpt lat="43.64369" lon="1.3995">
        <ele>135</ele>
        <time>2024-12-16T11:28:32Z</time>
      </trkpt>
      <trkpt lat="43.64371" lon="1.3995">
        <ele>135</ele>
        <time>2024-12-16T11:28:33Z</time>
      </trkpt>
      <trkpt lat="43.64371" lon="1.3995">
        <ele>134</ele>
        <time>2024-12-16T11:28:34Z</time>
      </trkpt>
      <trkpt lat="43.64374" lon="1.3995">
        <ele>134</ele>
        <time>2024-12-16T11:28:35Z</time>
      </trkpt>
      <trkpt lat="43.64377" lon="1.39951">
        <ele>134</ele>
        <time>2024-12-16T11:28:36Z</time>
      </trkpt>
      <trkpt lat="43.64382" lon="1.39951">
        <ele>134</ele>
        <time>2024-12-16T11:28:37Z</time>
      </trkpt>
      <trkpt lat="43.64385" lon="1.39952">
        <ele>134</ele>
        <time>2024-12-16T11:28:38Z</time>
      </trkpt>
      <trkpt lat="43.64387" lon="1.39952">
        <ele>134</ele>
        <time>2024-12-16T11:28:39Z</time>
      </trkpt>
      <trkpt lat="43.6439" lon="1.39952">
        <ele>134</ele>
        <time>2024-12-16T11:28:40Z</time>
      </trkpt>
      <trkpt lat="43.6439" lon="1.39952">
        <ele>134</ele>
        <time>2024-12-16T11:28:41Z</time>
      </trkpt>
      <trkpt lat="43.64395" lon="1.39953">
        <ele>134</ele>
        <time>2024-12-16T11:28:42Z</time>
      </trkpt>
      <trkpt lat="43.64395" lon="1.39953">
        <ele>134</ele>
        <time>2024-12-16T11:28:43Z</time>
      </trkpt>
      <trkpt lat="43.644" lon="1.39953">
        <ele>134</ele>
        <time>2024-12-16T11:28:44Z</time>
      </trkpt>
      <trkpt lat="43.644" lon="1.39953">
        <ele>134</ele>
        <time>2024-12-16T11:28:45Z</time>
      </trkpt>
      <trkpt lat="43.64405" lon="1.39954">
        <ele>134</ele>
        <time>2024-12-16T11:28:46Z</time>
      </trkpt>
      <trkpt lat="43.64405" lon="1.39954">
        <ele>134</ele>
        <time>2024-12-16T11:28:47Z</time>
      </trkpt>
      <trkpt lat="43.64408" lon="1.39954">
        <ele>134</ele>
        <time>2024-12-16T11:28:48Z</time>
      </trkpt>
      <trkpt lat="43.64413" lon="1.39954">
        <ele>134</ele>
        <time>2024-12-16T11:28:49Z</time>
      </trkpt>
      <trkpt lat="43.64416" lon="1.39954">
        <ele>135</ele>
        <time>2024-12-16T11:28:50Z</time>
      </trkpt>
      <trkpt lat="43.64418" lon="1.39954">
        <ele>135</ele>
        <time>2024-12-16T11:28:51Z</time>
      </trkpt>
      <trkpt lat="43.64418" lon="1.39954">
        <ele>135</ele>
        <time>2024-12-16T11:28:52Z</time>
      </trkpt>
      <trkpt lat="43.64424" lon="1.39954">
        <ele>135</ele>
        <time>2024-12-16T11:28:53Z</time>
      </trkpt>
      <trkpt lat="43.64426" lon="1.39955">
        <ele>135</ele>
        <time>2024-12-16T11:28:54Z</time>
      </trkpt>
      <trkpt lat="43.64429" lon="1.39955">
        <ele>134</ele>
        <time>2024-12-16T11:28:55Z</time>
      </trkpt>
      <trkpt lat="43.64429" lon="1.39955">
        <ele>134</ele>
        <time>2024-12-16T11:28:56Z</time>
      </trkpt>
      <trkpt lat="43.64434" lon="1.39955">
        <ele>134</ele>
        <time>2024-12-16T11:28:57Z</time>
      </trkpt>
      <trkpt lat="43.64437" lon="1.39955">
        <ele>134</ele>
        <time>2024-12-16T11:28:58Z</time>
      </trkpt>
      <trkpt lat="43.64437" lon="1.39955">
        <ele>134</ele>
        <time>2024-12-16T11:28:59Z</time>
      </trkpt>
      <trkpt lat="43.64442" lon="1.39956">
        <ele>134</ele>
        <time>2024-12-16T11:29:00Z</time>
      </trkpt>
      <trkpt lat="43.64442" lon="1.39956">
        <ele>134</ele>
        <time>2024-12-16T11:29:01Z</time>
      </trkpt>
      <trkpt lat="43.64447" lon="1.39956">
        <ele>134</ele>
        <time>2024-12-16T11:29:02Z</time>
      </trkpt>
      <trkpt lat="43.64447" lon="1.39956">
        <ele>134</ele>
        <time>2024-12-16T11:29:03Z</time>
      </trkpt>
      <trkpt lat="43.64452" lon="1.39956">
        <ele>134</ele>
        <time>2024-12-16T11:29:04Z</time>
      </trkpt>
      <trkpt lat="43.64455" lon="1.39956">
        <ele>134</ele>
        <time>2024-12-16T11:29:05Z</time>
      </trkpt>
      <trkpt lat="43.64455" lon="1.39956">
        <ele>134</ele>
        <time>2024-12-16T11:29:06Z</time>
      </trkpt>
      <trkpt lat="43.6446" lon="1.39955">
        <ele>134</ele>
        <time>2024-12-16T11:29:07Z</time>
      </trkpt>
      <trkpt lat="43.64462" lon="1.39955">
        <ele>134</ele>
        <time>2024-12-16T11:29:08Z</time>
      </trkpt>
      <trkpt lat="43.64462" lon="1.39955">
        <ele>134</ele>
        <time>2024-12-16T11:29:09Z</time>
      </trkpt>
      <trkpt lat="43.64467" lon="1.39955">
        <ele>134</ele>
        <time>2024-12-16T11:29:10Z</time>
      </trkpt>
      <trkpt lat="43.6447" lon="1.39955">
        <ele>135</ele>
        <time>2024-12-16T11:29:11Z</time>
      </trkpt>
      <trkpt lat="43.6447" lon="1.39955">
        <ele>135</ele>
        <time>2024-12-16T11:29:12Z</time>
      </trkpt>
      <trkpt lat="43.64472" lon="1.39954">
        <ele>135</ele>
        <time>2024-12-16T11:29:13Z</time>
      </trkpt>
      <trkpt lat="43.64475" lon="1.39954">
        <ele>135</ele>
        <time>2024-12-16T11:29:14Z</time>
      </trkpt>
      <trkpt lat="43.64479" lon="1.39953">
        <ele>135</ele>
        <time>2024-12-16T11:29:15Z</time>
      </trkpt>
      <trkpt lat="43.64479" lon="1.39953">
        <ele>136</ele>
        <time>2024-12-16T11:29:16Z</time>
      </trkpt>
      <trkpt lat="43.64484" lon="1.39951">
        <ele>136</ele>
        <time>2024-12-16T11:29:17Z</time>
      </trkpt>
      <trkpt lat="43.64487" lon="1.39951">
        <ele>137</ele>
        <time>2024-12-16T11:29:18Z</time>
      </trkpt>
      <trkpt lat="43.64487" lon="1.39951">
        <ele>137</ele>
        <time>2024-12-16T11:29:19Z</time>
      </trkpt>
      <trkpt lat="43.64489" lon="1.3995">
        <ele>137</ele>
        <time>2024-12-16T11:29:20Z</time>
      </trkpt>
      <trkpt lat="43.64492" lon="1.3995">
        <ele>137</ele>
        <time>2024-12-16T11:29:21Z</time>
      </trkpt>
      <trkpt lat="43.64497" lon="1.39949">
        <ele>136</ele>
        <time>2024-12-16T11:29:22Z</time>
      </trkpt>
      <trkpt lat="43.64499" lon="1.39948">
        <ele>136</ele>
        <time>2024-12-16T11:29:23Z</time>
      </trkpt>
      <trkpt lat="43.64501" lon="1.39947">
        <ele>136</ele>
        <time>2024-12-16T11:29:24Z</time>
      </trkpt>
      <trkpt lat="43.64503" lon="1.39946">
        <ele>137</ele>
        <time>2024-12-16T11:29:25Z</time>
      </trkpt>
      <trkpt lat="43.64503" lon="1.39946">
        <ele>137</ele>
        <time>2024-12-16T11:29:26Z</time>
      </trkpt>
      <trkpt lat="43.64505" lon="1.39944">
        <ele>137</ele>
        <time>2024-12-16T11:29:27Z</time>
      </trkpt>
      <trkpt lat="43.64507" lon="1.39939">
        <ele>137</ele>
        <time>2024-12-16T11:29:28Z</time>
      </trkpt>
      <trkpt lat="43.64507" lon="1.39935">
        <ele>137</ele>
        <time>2024-12-16T11:29:29Z</time>
      </trkpt>
      <trkpt lat="43.64507" lon="1.39932">
        <ele>137</ele>
        <time>2024-12-16T11:29:30Z</time>
      </trkpt>
      <trkpt lat="43.64507" lon="1.39932">
        <ele>137</ele>
        <time>2024-12-16T11:29:31Z</time>
      </trkpt>
      <trkpt lat="43.64506" lon="1.39926">
        <ele>137</ele>
        <time>2024-12-16T11:29:32Z</time>
      </trkpt>
      <trkpt lat="43.64506" lon="1.39926">
        <ele>137</ele>
        <time>2024-12-16T11:29:33Z</time>
      </trkpt>
      <trkpt lat="43.64502" lon="1.39922">
        <ele>137</ele>
        <time>2024-12-16T11:29:34Z</time>
      </trkpt>
      <trkpt lat="43.64502" lon="1.39922">
        <ele>137</ele>
        <time>2024-12-16T11:29:35Z</time>
      </trkpt>
      <trkpt lat="43.64498" lon="1.39916">
        <ele>137</ele>
        <time>2024-12-16T11:29:36Z</time>
      </trkpt>
      <trkpt lat="43.64497" lon="1.39913">
        <ele>137</ele>
        <time>2024-12-16T11:29:37Z</time>
      </trkpt>
      <trkpt lat="43.64497" lon="1.39913">
        <ele>137</ele>
        <time>2024-12-16T11:29:38Z</time>
      </trkpt>
      <trkpt lat="43.64497" lon="1.39906">
        <ele>137</ele>
        <time>2024-12-16T11:29:39Z</time>
      </trkpt>
      <trkpt lat="43.64497" lon="1.39906">
        <ele>137</ele>
        <time>2024-12-16T11:29:40Z</time>
      </trkpt>
      <trkpt lat="43.64497" lon="1.39899">
        <ele>137</ele>
        <time>2024-12-16T11:29:41Z</time>
      </trkpt>
      <trkpt lat="43.64497" lon="1.39899">
        <ele>137</ele>
        <time>2024-12-16T11:29:42Z</time>
      </trkpt>
      <trkpt lat="43.64497" lon="1.39892">
        <ele>137</ele>
        <time>2024-12-16T11:29:43Z</time>
      </trkpt>
      <trkpt lat="43.64497" lon="1.39888">
        <ele>137</ele>
        <time>2024-12-16T11:29:44Z</time>
      </trkpt>
      <trkpt lat="43.64497" lon="1.39888">
        <ele>137</ele>
        <time>2024-12-16T11:29:45Z</time>
      </trkpt>
      <trkpt lat="43.64496" lon="1.39881">
        <ele>137</ele>
        <time>2024-12-16T11:29:46Z</time>
      </trkpt>
      <trkpt lat="43.64496" lon="1.39878">
        <ele>137</ele>
        <time>2024-12-16T11:29:47Z</time>
      </trkpt>
      <trkpt lat="43.64496" lon="1.39874">
        <ele>137</ele>
        <time>2024-12-16T11:29:48Z</time>
      </trkpt>
      <trkpt lat="43.64496" lon="1.39871">
        <ele>137</ele>
        <time>2024-12-16T11:29:49Z</time>
      </trkpt>
      <trkpt lat="43.64496" lon="1.39871">
        <ele>137</ele>
        <time>2024-12-16T11:29:50Z</time>
      </trkpt>
      <trkpt lat="43.64496" lon="1.39867">
        <ele>137</ele>
        <time>2024-12-16T11:29:51Z</time>
      </trkpt>
      <trkpt lat="43.64496" lon="1.39864">
        <ele>137</ele>
        <time>2024-12-16T11:29:52Z</time>
      </trkpt>
      <trkpt lat="43.64496" lon="1.39857">
        <ele>137</ele>
        <time>2024-12-16T11:29:53Z</time>
      </trkpt>
      <trkpt lat="43.64496" lon="1.39857">
        <ele>137</ele>
        <time>2024-12-16T11:29:54Z</time>
      </trkpt>
      <trkpt lat="43.64496" lon="1.3985">
        <ele>137</ele>
        <time>2024-12-16T11:29:55Z</time>
      </trkpt>
      <trkpt lat="43.64496" lon="1.39847">
        <ele>137</ele>
        <time>2024-12-16T11:29:56Z</time>
      </trkpt>
      <trkpt lat="43.64496" lon="1.39847">
        <ele>137</ele>
        <time>2024-12-16T11:29:57Z</time>
      </trkpt>
      <trkpt lat="43.64497" lon="1.3984">
        <ele>137</ele>
        <time>2024-12-16T11:29:58Z</time>
      </trkpt>
      <trkpt lat="43.64497" lon="1.3984">
        <ele>137</ele>
        <time>2024-12-16T11:29:59Z</time>
      </trkpt>
      <trkpt lat="43.64497" lon="1.39836">
        <ele>137</ele>
        <time>2024-12-16T11:30:00Z</time>
      </trkpt>
      <trkpt lat="43.64497" lon="1.39829">
        <ele>137</ele>
        <time>2024-12-16T11:30:01Z</time>
      </trkpt>
      <trkpt lat="43.64497" lon="1.39826">
        <ele>137</ele>
        <time>2024-12-16T11:30:02Z</time>
      </trkpt>
      <trkpt lat="43.64497" lon="1.39822">
        <ele>137</ele>
        <time>2024-12-16T11:30:03Z</time>
      </trkpt>
      <trkpt lat="43.64497" lon="1.39819">
        <ele>137</ele>
        <time>2024-12-16T11:30:04Z</time>
      </trkpt>
      <trkpt lat="43.64497" lon="1.39815">
        <ele>137</ele>
        <time>2024-12-16T11:30:05Z</time>
      </trkpt>
      <trkpt lat="43.64497" lon="1.39815">
        <ele>137</ele>
        <time>2024-12-16T11:30:06Z</time>
      </trkpt>
      <trkpt lat="43.64497" lon="1.39811">
        <ele>137</ele>
        <time>2024-12-16T11:30:07Z</time>
      </trkpt>
      <trkpt lat="43.64497" lon="1.39804">
        <ele>137</ele>
        <time>2024-12-16T11:30:08Z</time>
      </trkpt>
      <trkpt lat="43.64497" lon="1.39804">
        <ele>137</ele>
        <time>2024-12-16T11:30:09Z</time>
      </trkpt>
      <trkpt lat="43.64497" lon="1.39797">
        <ele>137</ele>
        <time>2024-12-16T11:30:10Z</time>
      </trkpt>
      <trkpt lat="43.64497" lon="1.39797">
        <ele>137</ele>
        <time>2024-12-16T11:30:11Z</time>
      </trkpt>
      <trkpt lat="43.64497" lon="1.39793">
        <ele>137</ele>
        <time>2024-12-16T11:30:12Z</time>
      </trkpt>
      <trkpt lat="43.64497" lon="1.39786">
        <ele>137</ele>
        <time>2024-12-16T11:30:13Z</time>
      </trkpt>
      <trkpt lat="43.64497" lon="1.39786">
        <ele>137</ele>
        <time>2024-12-16T11:30:14Z</time>
      </trkpt>
      <trkpt lat="43.64497" lon="1.39779">
        <ele>137</ele>
        <time>2024-12-16T11:30:15Z</time>
      </trkpt>
      <trkpt lat="43.64497" lon="1.39779">
        <ele>137</ele>
        <time>2024-12-16T11:30:16Z</time>
      </trkpt>
      <trkpt lat="43.64497" lon="1.39772">
        <ele>137</ele>
        <time>2024-12-16T11:30:17Z</time>
      </trkpt>
      <trkpt lat="43.64497" lon="1.39768">
        <ele>137</ele>
        <time>2024-12-16T11:30:18Z</time>
      </trkpt>
      <trkpt lat="43.64497" lon="1.39768">
        <ele>137</ele>
        <time>2024-12-16T11:30:19Z</time>
      </trkpt>
      <trkpt lat="43.64497" lon="1.39762">
        <ele>137</ele>
        <time>2024-12-16T11:30:20Z</time>
      </trkpt>
      <trkpt lat="43.64497" lon="1.39762">
        <ele>137</ele>
        <time>2024-12-16T11:30:21Z</time>
      </trkpt>
      <trkpt lat="43.64497" lon="1.39754">
        <ele>137</ele>
        <time>2024-12-16T11:30:22Z</time>
      </trkpt>
      <trkpt lat="43.64497" lon="1.39754">
        <ele>137</ele>
        <time>2024-12-16T11:30:23Z</time>
      </trkpt>
      <trkpt lat="43.64498" lon="1.39748">
        <ele>137</ele>
        <time>2024-12-16T11:30:24Z</time>
      </trkpt>
      <trkpt lat="43.64498" lon="1.39748">
        <ele>137</ele>
        <time>2024-12-16T11:30:25Z</time>
      </trkpt>
      <trkpt lat="43.64498" lon="1.39744">
        <ele>137</ele>
        <time>2024-12-16T11:30:26Z</time>
      </trkpt>
      <trkpt lat="43.64497" lon="1.39738">
        <ele>137</ele>
        <time>2024-12-16T11:30:27Z</time>
      </trkpt>
      <trkpt lat="43.64497" lon="1.39738">
        <ele>137</ele>
        <time>2024-12-16T11:30:28Z</time>
      </trkpt>
      <trkpt lat="43.64497" lon="1.39734">
        <ele>137</ele>
        <time>2024-12-16T11:30:29Z</time>
      </trkpt>
      <trkpt lat="43.64497" lon="1.39731">
        <ele>137</ele>
        <time>2024-12-16T11:30:30Z</time>
      </trkpt>
      <trkpt lat="43.64498" lon="1.39724">
        <ele>137</ele>
        <time>2024-12-16T11:30:31Z</time>
      </trkpt>
      <trkpt lat="43.64498" lon="1.39724">
        <ele>137</ele>
        <time>2024-12-16T11:30:32Z</time>
      </trkpt>
      <trkpt lat="43.64498" lon="1.39718">
        <ele>137</ele>
        <time>2024-12-16T11:30:33Z</time>
      </trkpt>
      <trkpt lat="43.64498" lon="1.39718">
        <ele>137</ele>
        <time>2024-12-16T11:30:34Z</time>
      </trkpt>
      <trkpt lat="43.64498" lon="1.39714">
        <ele>137</ele>
        <time>2024-12-16T11:30:35Z</time>
      </trkpt>
      <trkpt lat="43.64498" lon="1.39707">
        <ele>137</ele>
        <time>2024-12-16T11:30:36Z</time>
      </trkpt>
      <trkpt lat="43.64498" lon="1.39707">
        <ele>137</ele>
        <time>2024-12-16T11:30:37Z</time>
      </trkpt>
      <trkpt lat="43.64498" lon="1.397">
        <ele>137</ele>
        <time>2024-12-16T11:30:38Z</time>
      </trkpt>
      <trkpt lat="43.64498" lon="1.397">
        <ele>137</ele>
        <time>2024-12-16T11:30:39Z</time>
      </trkpt>
      <trkpt lat="43.64499" lon="1.39694">
        <ele>137</ele>
        <time>2024-12-16T11:30:40Z</time>
      </trkpt>
      <trkpt lat="43.64499" lon="1.39694">
        <ele>137</ele>
        <time>2024-12-16T11:30:41Z</time>
      </trkpt>
      <trkpt lat="43.645" lon="1.39691">
        <ele>137</ele>
        <time>2024-12-16T11:30:42Z</time>
      </trkpt>
      <trkpt lat="43.645" lon="1.39687">
        <ele>137</ele>
        <time>2024-12-16T11:30:43Z</time>
      </trkpt>
      <trkpt lat="43.645" lon="1.39684">
        <ele>137</ele>
        <time>2024-12-16T11:30:44Z</time>
      </trkpt>
      <trkpt lat="43.645" lon="1.3968">
        <ele>137</ele>
        <time>2024-12-16T11:30:45Z</time>
      </trkpt>
      <trkpt lat="43.645" lon="1.39673">
        <ele>137</ele>
        <time>2024-12-16T11:30:46Z</time>
      </trkpt>
      <trkpt lat="43.645" lon="1.39673">
        <ele>137</ele>
        <time>2024-12-16T11:30:47Z</time>
      </trkpt>
      <trkpt lat="43.645" lon="1.39669">
        <ele>136</ele>
        <time>2024-12-16T11:30:48Z</time>
      </trkpt>
      <trkpt lat="43.645" lon="1.39665">
        <ele>136</ele>
        <time>2024-12-16T11:30:49Z</time>
      </trkpt>
      <trkpt lat="43.645" lon="1.39658">
        <ele>136</ele>
        <time>2024-12-16T11:30:50Z</time>
      </trkpt>
      <trkpt lat="43.645" lon="1.39655">
        <ele>136</ele>
        <time>2024-12-16T11:30:51Z</time>
      </trkpt>
      <trkpt lat="43.645" lon="1.39651">
        <ele>136</ele>
        <time>2024-12-16T11:30:52Z</time>
      </trkpt>
      <trkpt lat="43.645" lon="1.39647">
        <ele>136</ele>
        <time>2024-12-16T11:30:53Z</time>
      </trkpt>
      <trkpt lat="43.645" lon="1.39647">
        <ele>136</ele>
        <time>2024-12-16T11:30:54Z</time>
      </trkpt>
      <trkpt lat="43.645" lon="1.39644">
        <ele>136</ele>
        <time>2024-12-16T11:30:55Z</time>
      </trkpt>
      <trkpt lat="43.645" lon="1.3964">
        <ele>136</ele>
        <time>2024-12-16T11:30:56Z</time>
      </trkpt>
      <trkpt lat="43.645" lon="1.39633">
        <ele>136</ele>
        <time>2024-12-16T11:30:57Z</time>
      </trkpt>
      <trkpt lat="43.645" lon="1.3963">
        <ele>136</ele>
        <time>2024-12-16T11:30:58Z</time>
      </trkpt>
      <trkpt lat="43.645" lon="1.39626">
        <ele>136</ele>
        <time>2024-12-16T11:30:59Z</time>
      </trkpt>
      <trkpt lat="43.645" lon="1.39622">
        <ele>137</ele>
        <time>2024-12-16T11:31:00Z</time>
      </trkpt>
      <trkpt lat="43.645" lon="1.39622">
        <ele>137</ele>
        <time>2024-12-16T11:31:01Z</time>
      </trkpt>
      <trkpt lat="43.645" lon="1.39618">
        <ele>136</ele>
        <time>2024-12-16T11:31:02Z</time>
      </trkpt>
      <trkpt lat="43.645" lon="1.39615">
        <ele>136</ele>
        <time>2024-12-16T11:31:03Z</time>
      </trkpt>
      <trkpt lat="43.645" lon="1.39608">
        <ele>136</ele>
        <time>2024-12-16T11:31:04Z</time>
      </trkpt>
      <trkpt lat="43.645" lon="1.39605">
        <ele>137</ele>
        <time>2024-12-16T11:31:06Z</time>
      </trkpt>
      <trkpt lat="43.645" lon="1.39598">
        <ele>137</ele>
        <time>2024-12-16T11:31:07Z</time>
      </trkpt>
      <trkpt lat="43.645" lon="1.39595">
        <ele>137</ele>
        <time>2024-12-16T11:31:08Z</time>
      </trkpt>
      <trkpt lat="43.645" lon="1.39591">
        <ele>137</ele>
        <time>2024-12-16T11:31:09Z</time>
      </trkpt>
      <trkpt lat="43.645" lon="1.39588">
        <ele>137</ele>
        <time>2024-12-16T11:31:10Z</time>
      </trkpt>
      <trkpt lat="43.645" lon="1.39584">
        <ele>137</ele>
        <time>2024-12-16T11:31:11Z</time>
      </trkpt>
      <trkpt lat="43.645" lon="1.39584">
        <ele>137</ele>
        <time>2024-12-16T11:31:12Z</time>
      </trkpt>
      <trkpt lat="43.645" lon="1.39581">
        <ele>137</ele>
        <time>2024-12-16T11:31:13Z</time>
      </trkpt>
      <trkpt lat="43.64499" lon="1.39575">
        <ele>137</ele>
        <time>2024-12-16T11:31:14Z</time>
      </trkpt>
      <trkpt lat="43.64499" lon="1.39571">
        <ele>137</ele>
        <time>2024-12-16T11:31:15Z</time>
      </trkpt>
      <trkpt lat="43.64498" lon="1.39568">
        <ele>137</ele>
        <time>2024-12-16T11:31:16Z</time>
      </trkpt>
      <trkpt lat="43.64498" lon="1.39565">
        <ele>137</ele>
        <time>2024-12-16T11:31:17Z</time>
      </trkpt>
      <trkpt lat="43.64497" lon="1.39562">
        <ele>137</ele>
        <time>2024-12-16T11:31:18Z</time>
      </trkpt>
      <trkpt lat="43.64497" lon="1.39562">
        <ele>137</ele>
        <time>2024-12-16T11:31:19Z</time>
      </trkpt>
      <trkpt lat="43.64497" lon="1.39558">
        <ele>137</ele>
        <time>2024-12-16T11:31:20Z</time>
      </trkpt>
      <trkpt lat="43.64495" lon="1.39552">
        <ele>137</ele>
        <time>2024-12-16T11:31:21Z</time>
      </trkpt>
      <trkpt lat="43.64495" lon="1.39552">
        <ele>137</ele>
        <time>2024-12-16T11:31:22Z</time>
      </trkpt>
      <trkpt lat="43.64495" lon="1.39545">
        <ele>137</ele>
        <time>2024-12-16T11:31:23Z</time>
      </trkpt>
      <trkpt lat="43.64495" lon="1.39542">
        <ele>137</ele>
        <time>2024-12-16T11:31:24Z</time>
      </trkpt>
      <trkpt lat="43.64495" lon="1.39542">
        <ele>137</ele>
        <time>2024-12-16T11:31:25Z</time>
      </trkpt>
      <trkpt lat="43.64494" lon="1.39535">
        <ele>137</ele>
        <time>2024-12-16T11:31:26Z</time>
      </trkpt>
      <trkpt lat="43.64494" lon="1.39532">
        <ele>137</ele>
        <time>2024-12-16T11:31:27Z</time>
      </trkpt>
      <trkpt lat="43.64494" lon="1.39532">
        <ele>136</ele>
        <time>2024-12-16T11:31:28Z</time>
      </trkpt>
      <trkpt lat="43.64494" lon="1.39528">
        <ele>136</ele>
        <time>2024-12-16T11:31:29Z</time>
      </trkpt>
      <trkpt lat="43.64493" lon="1.39522">
        <ele>137</ele>
        <time>2024-12-16T11:31:30Z</time>
      </trkpt>
      <trkpt lat="43.64493" lon="1.39522">
        <ele>137</ele>
        <time>2024-12-16T11:31:31Z</time>
      </trkpt>
      <trkpt lat="43.64491" lon="1.39515">
        <ele>137</ele>
        <time>2024-12-16T11:31:32Z</time>
      </trkpt>
      <trkpt lat="43.64491" lon="1.39515">
        <ele>137</ele>
        <time>2024-12-16T11:31:33Z</time>
      </trkpt>
      <trkpt lat="43.6449" lon="1.39509">
        <ele>137</ele>
        <time>2024-12-16T11:31:34Z</time>
      </trkpt>
      <trkpt lat="43.6449" lon="1.39509">
        <ele>137</ele>
        <time>2024-12-16T11:31:35Z</time>
      </trkpt>
      <trkpt lat="43.64489" lon="1.39505">
        <ele>137</ele>
        <time>2024-12-16T11:31:36Z</time>
      </trkpt>
      <trkpt lat="43.64489" lon="1.39502">
        <ele>137</ele>
        <time>2024-12-16T11:31:37Z</time>
      </trkpt>
      <trkpt lat="43.64488" lon="1.39499">
        <ele>137</ele>
        <time>2024-12-16T11:31:38Z</time>
      </trkpt>
      <trkpt lat="43.64487" lon="1.39492">
        <ele>137</ele>
        <time>2024-12-16T11:31:39Z</time>
      </trkpt>
      <trkpt lat="43.64487" lon="1.39492">
        <ele>137</ele>
        <time>2024-12-16T11:31:40Z</time>
      </trkpt>
      <trkpt lat="43.64486" lon="1.39486">
        <ele>137</ele>
        <time>2024-12-16T11:31:41Z</time>
      </trkpt>
      <trkpt lat="43.64485" lon="1.39482">
        <ele>137</ele>
        <time>2024-12-16T11:31:42Z</time>
      </trkpt>
      <trkpt lat="43.64485" lon="1.39479">
        <ele>137</ele>
        <time>2024-12-16T11:31:43Z</time>
      </trkpt>
      <trkpt lat="43.64485" lon="1.39479">
        <ele>137</ele>
        <time>2024-12-16T11:31:44Z</time>
      </trkpt>
      <trkpt lat="43.64484" lon="1.39476">
        <ele>137</ele>
        <time>2024-12-16T11:31:45Z</time>
      </trkpt>
      <trkpt lat="43.64483" lon="1.39469">
        <ele>137</ele>
        <time>2024-12-16T11:31:46Z</time>
      </trkpt>
      <trkpt lat="43.64483" lon="1.39466">
        <ele>137</ele>
        <time>2024-12-16T11:31:47Z</time>
      </trkpt>
      <trkpt lat="43.64482" lon="1.39463">
        <ele>137</ele>
        <time>2024-12-16T11:31:48Z</time>
      </trkpt>
      <trkpt lat="43.64482" lon="1.39463">
        <ele>137</ele>
        <time>2024-12-16T11:31:49Z</time>
      </trkpt>
      <trkpt lat="43.64482" lon="1.39459">
        <ele>137</ele>
        <time>2024-12-16T11:31:50Z</time>
      </trkpt>
      <trkpt lat="43.64481" lon="1.39456">
        <ele>137</ele>
        <time>2024-12-16T11:31:51Z</time>
      </trkpt>
      <trkpt lat="43.6448" lon="1.39449">
        <ele>137</ele>
        <time>2024-12-16T11:31:52Z</time>
      </trkpt>
      <trkpt lat="43.6448" lon="1.39446">
        <ele>137</ele>
        <time>2024-12-16T11:31:53Z</time>
      </trkpt>
      <trkpt lat="43.64479" lon="1.39443">
        <ele>137</ele>
        <time>2024-12-16T11:31:54Z</time>
      </trkpt>
      <trkpt lat="43.64479" lon="1.3944">
        <ele>137</ele>
        <time>2024-12-16T11:31:55Z</time>
      </trkpt>
      <trkpt lat="43.64479" lon="1.3944">
        <ele>137</ele>
        <time>2024-12-16T11:31:56Z</time>
      </trkpt>
      <trkpt lat="43.64478" lon="1.39433">
        <ele>137</ele>
        <time>2024-12-16T11:31:57Z</time>
      </trkpt>
      <trkpt lat="43.64478" lon="1.39433">
        <ele>137</ele>
        <time>2024-12-16T11:31:58Z</time>
      </trkpt>
      <trkpt lat="43.64477" lon="1.39427">
        <ele>137</ele>
        <time>2024-12-16T11:31:59Z</time>
      </trkpt>
      <trkpt lat="43.64477" lon="1.39427">
        <ele>137</ele>
        <time>2024-12-16T11:32:00Z</time>
      </trkpt>
      <trkpt lat="43.64475" lon="1.3942">
        <ele>137</ele>
        <time>2024-12-16T11:32:01Z</time>
      </trkpt>
      <trkpt lat="43.64475" lon="1.39417">
        <ele>137</ele>
        <time>2024-12-16T11:32:02Z</time>
      </trkpt>
      <trkpt lat="43.64474" lon="1.39414">
        <ele>137</ele>
        <time>2024-12-16T11:32:03Z</time>
      </trkpt>
      <trkpt lat="43.64474" lon="1.39414">
        <ele>137</ele>
        <time>2024-12-16T11:32:04Z</time>
      </trkpt>
      <trkpt lat="43.64473" lon="1.39407">
        <ele>137</ele>
        <time>2024-12-16T11:32:05Z</time>
      </trkpt>
      <trkpt lat="43.64473" lon="1.39407">
        <ele>137</ele>
        <time>2024-12-16T11:32:06Z</time>
      </trkpt>
      <trkpt lat="43.64473" lon="1.39404">
        <ele>137</ele>
        <time>2024-12-16T11:32:07Z</time>
      </trkpt>
      <trkpt lat="43.64471" lon="1.39398">
        <ele>137</ele>
        <time>2024-12-16T11:32:08Z</time>
      </trkpt>
      <trkpt lat="43.64471" lon="1.39398">
        <ele>137</ele>
        <time>2024-12-16T11:32:09Z</time>
      </trkpt>
      <trkpt lat="43.6447" lon="1.39395">
        <ele>137</ele>
        <time>2024-12-16T11:32:10Z</time>
      </trkpt>
      <trkpt lat="43.64469" lon="1.39388">
        <ele>137</ele>
        <time>2024-12-16T11:32:11Z</time>
      </trkpt>
      <trkpt lat="43.64469" lon="1.39388">
        <ele>137</ele>
        <time>2024-12-16T11:32:12Z</time>
      </trkpt>
      <trkpt lat="43.64468" lon="1.39382">
        <ele>137</ele>
        <time>2024-12-16T11:32:13Z</time>
      </trkpt>
      <trkpt lat="43.64468" lon="1.39379">
        <ele>137</ele>
        <time>2024-12-16T11:32:14Z</time>
      </trkpt>
      <trkpt lat="43.64467" lon="1.39375">
        <ele>137</ele>
        <time>2024-12-16T11:32:15Z</time>
      </trkpt>
      <trkpt lat="43.64467" lon="1.39372">
        <ele>137</ele>
        <time>2024-12-16T11:32:16Z</time>
      </trkpt>
      <trkpt lat="43.64467" lon="1.39372">
        <ele>137</ele>
        <time>2024-12-16T11:32:17Z</time>
      </trkpt>
      <trkpt lat="43.64466" lon="1.39369">
        <ele>137</ele>
        <time>2024-12-16T11:32:18Z</time>
      </trkpt>
      <trkpt lat="43.64466" lon="1.39365">
        <ele>137</ele>
        <time>2024-12-16T11:32:19Z</time>
      </trkpt>
      <trkpt lat="43.64465" lon="1.39359">
        <ele>137</ele>
        <time>2024-12-16T11:32:20Z</time>
      </trkpt>
      <trkpt lat="43.64464" lon="1.39355">
        <ele>137</ele>
        <time>2024-12-16T11:32:21Z</time>
      </trkpt>
      <trkpt lat="43.64464" lon="1.39355">
        <ele>137</ele>
        <time>2024-12-16T11:32:22Z</time>
      </trkpt>
      <trkpt lat="43.64464" lon="1.39352">
        <ele>137</ele>
        <time>2024-12-16T11:32:23Z</time>
      </trkpt>
      <trkpt lat="43.64463" lon="1.39348">
        <ele>137</ele>
        <time>2024-12-16T11:32:24Z</time>
      </trkpt>
      <trkpt lat="43.64462" lon="1.39341">
        <ele>137</ele>
        <time>2024-12-16T11:32:25Z</time>
      </trkpt>
      <trkpt lat="43.64462" lon="1.39341">
        <ele>137</ele>
        <time>2024-12-16T11:32:26Z</time>
      </trkpt>
      <trkpt lat="43.64461" lon="1.39338">
        <ele>137</ele>
        <time>2024-12-16T11:32:27Z</time>
      </trkpt>
      <trkpt lat="43.6446" lon="1.39331">
        <ele>137</ele>
        <time>2024-12-16T11:32:28Z</time>
      </trkpt>
      <trkpt lat="43.6446" lon="1.39331">
        <ele>137</ele>
        <time>2024-12-16T11:32:29Z</time>
      </trkpt>
      <trkpt lat="43.64459" lon="1.39328">
        <ele>137</ele>
        <time>2024-12-16T11:32:30Z</time>
      </trkpt>
      <trkpt lat="43.64459" lon="1.39322">
        <ele>137</ele>
        <time>2024-12-16T11:32:31Z</time>
      </trkpt>
      <trkpt lat="43.64459" lon="1.39322">
        <ele>138</ele>
        <time>2024-12-16T11:32:32Z</time>
      </trkpt>
      <trkpt lat="43.64461" lon="1.39315">
        <ele>138</ele>
        <time>2024-12-16T11:32:33Z</time>
      </trkpt>
      <trkpt lat="43.64463" lon="1.39314">
        <ele>138</ele>
        <time>2024-12-16T11:32:34Z</time>
      </trkpt>
      <trkpt lat="43.64466" lon="1.39313">
        <ele>138</ele>
        <time>2024-12-16T11:32:35Z</time>
      </trkpt>
      <trkpt lat="43.64468" lon="1.39312">
        <ele>138</ele>
        <time>2024-12-16T11:32:36Z</time>
      </trkpt>
      <trkpt lat="43.64468" lon="1.39312">
        <ele>138</ele>
        <time>2024-12-16T11:32:37Z</time>
      </trkpt>
      <trkpt lat="43.64471" lon="1.39311">
        <ele>138</ele>
        <time>2024-12-16T11:32:38Z</time>
      </trkpt>
      <trkpt lat="43.64474" lon="1.39311">
        <ele>138</ele>
        <time>2024-12-16T11:32:39Z</time>
      </trkpt>
      <trkpt lat="43.64479" lon="1.3931">
        <ele>138</ele>
        <time>2024-12-16T11:32:40Z</time>
      </trkpt>
      <trkpt lat="43.64479" lon="1.3931">
        <ele>138</ele>
        <time>2024-12-16T11:32:41Z</time>
      </trkpt>
      <trkpt lat="43.64485" lon="1.3931">
        <ele>138</ele>
        <time>2024-12-16T11:32:42Z</time>
      </trkpt>
      <trkpt lat="43.64487" lon="1.39309">
        <ele>137</ele>
        <time>2024-12-16T11:32:43Z</time>
      </trkpt>
      <trkpt lat="43.6449" lon="1.39309">
        <ele>137</ele>
        <time>2024-12-16T11:32:44Z</time>
      </trkpt>
      <trkpt lat="43.64492" lon="1.39309">
        <ele>136</ele>
        <time>2024-12-16T11:32:45Z</time>
      </trkpt>
      <trkpt lat="43.64495" lon="1.39308">
        <ele>136</ele>
        <time>2024-12-16T11:32:46Z</time>
      </trkpt>
      <trkpt lat="43.64498" lon="1.39308">
        <ele>136</ele>
        <time>2024-12-16T11:32:47Z</time>
      </trkpt>
      <trkpt lat="43.64501" lon="1.39308">
        <ele>136</ele>
        <time>2024-12-16T11:32:48Z</time>
      </trkpt>
      <trkpt lat="43.64503" lon="1.39308">
        <ele>136</ele>
        <time>2024-12-16T11:32:49Z</time>
      </trkpt>
      <trkpt lat="43.64503" lon="1.39308">
        <ele>136</ele>
        <time>2024-12-16T11:32:50Z</time>
      </trkpt>
      <trkpt lat="43.64506" lon="1.39307">
        <ele>136</ele>
        <time>2024-12-16T11:32:51Z</time>
      </trkpt>
      <trkpt lat="43.64511" lon="1.39307">
        <ele>136</ele>
        <time>2024-12-16T11:32:52Z</time>
      </trkpt>
      <trkpt lat="43.64511" lon="1.39307">
        <ele>135</ele>
        <time>2024-12-16T11:32:53Z</time>
      </trkpt>
      <trkpt lat="43.64516" lon="1.39305">
        <ele>135</ele>
        <time>2024-12-16T11:32:54Z</time>
      </trkpt>
      <trkpt lat="43.64516" lon="1.39305">
        <ele>135</ele>
        <time>2024-12-16T11:32:55Z</time>
      </trkpt>
      <trkpt lat="43.64519" lon="1.39305">
        <ele>135</ele>
        <time>2024-12-16T11:32:56Z</time>
      </trkpt>
      <trkpt lat="43.64524" lon="1.39303">
        <ele>135</ele>
        <time>2024-12-16T11:32:57Z</time>
      </trkpt>
      <trkpt lat="43.64524" lon="1.39303">
        <ele>135</ele>
        <time>2024-12-16T11:32:58Z</time>
      </trkpt>
      <trkpt lat="43.6453" lon="1.39302">
        <ele>135</ele>
        <time>2024-12-16T11:32:59Z</time>
      </trkpt>
      <trkpt lat="43.6453" lon="1.39302">
        <ele>135</ele>
        <time>2024-12-16T11:33:00Z</time>
      </trkpt>
      <trkpt lat="43.64535" lon="1.393">
        <ele>135</ele>
        <time>2024-12-16T11:33:01Z</time>
      </trkpt>
      <trkpt lat="43.64535" lon="1.393">
        <ele>135</ele>
        <time>2024-12-16T11:33:02Z</time>
      </trkpt>
      <trkpt lat="43.6454" lon="1.39298">
        <ele>135</ele>
        <time>2024-12-16T11:33:03Z</time>
      </trkpt>
      <trkpt lat="43.6454" lon="1.39298">
        <ele>135</ele>
        <time>2024-12-16T11:33:04Z</time>
      </trkpt>
      <trkpt lat="43.64542" lon="1.39298">
        <ele>135</ele>
        <time>2024-12-16T11:33:05Z</time>
      </trkpt>
      <trkpt lat="43.64547" lon="1.39296">
        <ele>135</ele>
        <time>2024-12-16T11:33:06Z</time>
      </trkpt>
      <trkpt lat="43.6455" lon="1.39295">
        <ele>135</ele>
        <time>2024-12-16T11:33:07Z</time>
      </trkpt>
      <trkpt lat="43.6455" lon="1.39295">
        <ele>135</ele>
        <time>2024-12-16T11:33:08Z</time>
      </trkpt>
      <trkpt lat="43.64555" lon="1.39294">
        <ele>135</ele>
        <time>2024-12-16T11:33:09Z</time>
      </trkpt>
      <trkpt lat="43.64555" lon="1.39294">
        <ele>135</ele>
        <time>2024-12-16T11:33:10Z</time>
      </trkpt>
      <trkpt lat="43.6456" lon="1.39292">
        <ele>135</ele>
        <time>2024-12-16T11:33:11Z</time>
      </trkpt>
      <trkpt lat="43.64562" lon="1.39292">
        <ele>135</ele>
        <time>2024-12-16T11:33:12Z</time>
      </trkpt>
      <trkpt lat="43.64565" lon="1.39291">
        <ele>135</ele>
        <time>2024-12-16T11:33:13Z</time>
      </trkpt>
      <trkpt lat="43.64567" lon="1.3929">
        <ele>135</ele>
        <time>2024-12-16T11:33:14Z</time>
      </trkpt>
      <trkpt lat="43.64569" lon="1.39289">
        <ele>135</ele>
        <time>2024-12-16T11:33:15Z</time>
      </trkpt>
      <trkpt lat="43.64572" lon="1.39288">
        <ele>135</ele>
        <time>2024-12-16T11:33:16Z</time>
      </trkpt>
      <trkpt lat="43.64572" lon="1.39288">
        <ele>135</ele>
        <time>2024-12-16T11:33:17Z</time>
      </trkpt>
      <trkpt lat="43.64576" lon="1.39287">
        <ele>135</ele>
        <time>2024-12-16T11:33:18Z</time>
      </trkpt>
      <trkpt lat="43.64576" lon="1.39287">
        <ele>135</ele>
        <time>2024-12-16T11:33:19Z</time>
      </trkpt>
      <trkpt lat="43.64581" lon="1.39285">
        <ele>135</ele>
        <time>2024-12-16T11:33:20Z</time>
      </trkpt>
      <trkpt lat="43.64584" lon="1.39284">
        <ele>135</ele>
        <time>2024-12-16T11:33:21Z</time>
      </trkpt>
      <trkpt lat="43.64586" lon="1.39283">
        <ele>135</ele>
        <time>2024-12-16T11:33:22Z</time>
      </trkpt>
      <trkpt lat="43.64589" lon="1.39282">
        <ele>135</ele>
        <time>2024-12-16T11:33:23Z</time>
      </trkpt>
      <trkpt lat="43.64589" lon="1.39282">
        <ele>135</ele>
        <time>2024-12-16T11:33:24Z</time>
      </trkpt>
      <trkpt lat="43.64591" lon="1.39281">
        <ele>135</ele>
        <time>2024-12-16T11:33:25Z</time>
      </trkpt>
      <trkpt lat="43.64596" lon="1.39279">
        <ele>135</ele>
        <time>2024-12-16T11:33:26Z</time>
      </trkpt>
      <trkpt lat="43.64596" lon="1.39279">
        <ele>135</ele>
        <time>2024-12-16T11:33:27Z</time>
      </trkpt>
      <trkpt lat="43.64599" lon="1.39278">
        <ele>135</ele>
        <time>2024-12-16T11:33:28Z</time>
      </trkpt>
      <trkpt lat="43.64601" lon="1.39277">
        <ele>135</ele>
        <time>2024-12-16T11:33:29Z</time>
      </trkpt>
      <trkpt lat="43.64603" lon="1.39276">
        <ele>135</ele>
        <time>2024-12-16T11:33:30Z</time>
      </trkpt>
      <trkpt lat="43.64609" lon="1.39274">
        <ele>135</ele>
        <time>2024-12-16T11:33:31Z</time>
      </trkpt>
      <trkpt lat="43.64611" lon="1.39273">
        <ele>135</ele>
        <time>2024-12-16T11:33:32Z</time>
      </trkpt>
      <trkpt lat="43.64614" lon="1.39272">
        <ele>135</ele>
        <time>2024-12-16T11:33:33Z</time>
      </trkpt>
      <trkpt lat="43.64614" lon="1.39272">
        <ele>135</ele>
        <time>2024-12-16T11:33:34Z</time>
      </trkpt>
      <trkpt lat="43.64616" lon="1.3927">
        <ele>135</ele>
        <time>2024-12-16T11:33:35Z</time>
      </trkpt>
      <trkpt lat="43.64618" lon="1.39269">
        <ele>135</ele>
        <time>2024-12-16T11:33:36Z</time>
      </trkpt>
      <trkpt lat="43.64623" lon="1.39267">
        <ele>135</ele>
        <time>2024-12-16T11:33:37Z</time>
      </trkpt>
      <trkpt lat="43.64623" lon="1.39267">
        <ele>135</ele>
        <time>2024-12-16T11:33:38Z</time>
      </trkpt>
      <trkpt lat="43.64625" lon="1.39265">
        <ele>135</ele>
        <time>2024-12-16T11:33:39Z</time>
      </trkpt>
      <trkpt lat="43.64628" lon="1.39264">
        <ele>135</ele>
        <time>2024-12-16T11:33:40Z</time>
      </trkpt>
      <trkpt lat="43.64633" lon="1.39262">
        <ele>135</ele>
        <time>2024-12-16T11:33:41Z</time>
      </trkpt>
      <trkpt lat="43.64635" lon="1.39261">
        <ele>135</ele>
        <time>2024-12-16T11:33:42Z</time>
      </trkpt>
      <trkpt lat="43.64637" lon="1.39259">
        <ele>135</ele>
        <time>2024-12-16T11:33:43Z</time>
      </trkpt>
      <trkpt lat="43.64637" lon="1.39259">
        <ele>135</ele>
        <time>2024-12-16T11:33:44Z</time>
      </trkpt>
      <trkpt lat="43.6464" lon="1.39258">
        <ele>135</ele>
        <time>2024-12-16T11:33:45Z</time>
      </trkpt>
      <trkpt lat="43.64644" lon="1.39256">
        <ele>135</ele>
        <time>2024-12-16T11:33:46Z</time>
      </trkpt>
      <trkpt lat="43.64644" lon="1.39256">
        <ele>135</ele>
        <time>2024-12-16T11:33:47Z</time>
      </trkpt>
      <trkpt lat="43.64647" lon="1.39255">
        <ele>135</ele>
        <time>2024-12-16T11:33:48Z</time>
      </trkpt>
      <trkpt lat="43.64649" lon="1.39254">
        <ele>135</ele>
        <time>2024-12-16T11:33:49Z</time>
      </trkpt>
      <trkpt lat="43.64652" lon="1.39253">
        <ele>135</ele>
        <time>2024-12-16T11:33:50Z</time>
      </trkpt>
      <trkpt lat="43.64657" lon="1.3925">
        <ele>135</ele>
        <time>2024-12-16T11:33:51Z</time>
      </trkpt>
      <trkpt lat="43.64657" lon="1.3925">
        <ele>135</ele>
        <time>2024-12-16T11:33:52Z</time>
      </trkpt>
      <trkpt lat="43.64662" lon="1.39248">
        <ele>135</ele>
        <time>2024-12-16T11:33:53Z</time>
      </trkpt>
      <trkpt lat="43.64664" lon="1.39246">
        <ele>135</ele>
        <time>2024-12-16T11:33:54Z</time>
      </trkpt>
      <trkpt lat="43.64664" lon="1.39246">
        <ele>135</ele>
        <time>2024-12-16T11:33:55Z</time>
      </trkpt>
      <trkpt lat="43.64669" lon="1.39244">
        <ele>135</ele>
        <time>2024-12-16T11:33:56Z</time>
      </trkpt>
      <trkpt lat="43.64669" lon="1.39244">
        <ele>135</ele>
        <time>2024-12-16T11:33:57Z</time>
      </trkpt>
      <trkpt lat="43.64671" lon="1.39242">
        <ele>135</ele>
        <time>2024-12-16T11:33:58Z</time>
      </trkpt>
      <trkpt lat="43.64674" lon="1.39241">
        <ele>135</ele>
        <time>2024-12-16T11:33:59Z</time>
      </trkpt>
      <trkpt lat="43.64679" lon="1.39239">
        <ele>135</ele>
        <time>2024-12-16T11:34:00Z</time>
      </trkpt>
      <trkpt lat="43.64681" lon="1.39238">
        <ele>135</ele>
        <time>2024-12-16T11:34:01Z</time>
      </trkpt>
      <trkpt lat="43.64683" lon="1.39236">
        <ele>135</ele>
        <time>2024-12-16T11:34:02Z</time>
      </trkpt>
      <trkpt lat="43.64685" lon="1.39235">
        <ele>135</ele>
        <time>2024-12-16T11:34:03Z</time>
      </trkpt>
      <trkpt lat="43.64688" lon="1.39233">
        <ele>135</ele>
        <time>2024-12-16T11:34:04Z</time>
      </trkpt>
      <trkpt lat="43.6469" lon="1.39231">
        <ele>134</ele>
        <time>2024-12-16T11:34:05Z</time>
      </trkpt>
      <trkpt lat="43.64692" lon="1.39229">
        <ele>134</ele>
        <time>2024-12-16T11:34:06Z</time>
      </trkpt>
      <trkpt lat="43.64692" lon="1.39229">
        <ele>134</ele>
        <time>2024-12-16T11:34:07Z</time>
      </trkpt>
      <trkpt lat="43.64694" lon="1.39228">
        <ele>134</ele>
        <time>2024-12-16T11:34:08Z</time>
      </trkpt>
      <trkpt lat="43.64697" lon="1.39227">
        <ele>134</ele>
        <time>2024-12-16T11:34:09Z</time>
      </trkpt>
      <trkpt lat="43.64701" lon="1.39224">
        <ele>134</ele>
        <time>2024-12-16T11:34:10Z</time>
      </trkpt>
      <trkpt lat="43.64703" lon="1.39222">
        <ele>134</ele>
        <time>2024-12-16T11:34:11Z</time>
      </trkpt>
      <trkpt lat="43.64706" lon="1.39221">
        <ele>134</ele>
        <time>2024-12-16T11:34:12Z</time>
      </trkpt>
      <trkpt lat="43.64706" lon="1.39221">
        <ele>134</ele>
        <time>2024-12-16T11:34:13Z</time>
      </trkpt>
      <trkpt lat="43.64708" lon="1.3922">
        <ele>134</ele>
        <time>2024-12-16T11:34:14Z</time>
      </trkpt>
      <trkpt lat="43.64712" lon="1.39217">
        <ele>134</ele>
        <time>2024-12-16T11:34:15Z</time>
      </trkpt>
      <trkpt lat="43.64712" lon="1.39217">
        <ele>134</ele>
        <time>2024-12-16T11:34:16Z</time>
      </trkpt>
      <trkpt lat="43.64717" lon="1.39215">
        <ele>134</ele>
        <time>2024-12-16T11:34:17Z</time>
      </trkpt>
      <trkpt lat="43.64719" lon="1.39213">
        <ele>134</ele>
        <time>2024-12-16T11:34:18Z</time>
      </trkpt>
      <trkpt lat="43.64721" lon="1.39212">
        <ele>134</ele>
        <time>2024-12-16T11:34:19Z</time>
      </trkpt>
      <trkpt lat="43.64723" lon="1.3921">
        <ele>134</ele>
        <time>2024-12-16T11:34:20Z</time>
      </trkpt>
      <trkpt lat="43.64725" lon="1.39209">
        <ele>134</ele>
        <time>2024-12-16T11:34:21Z</time>
      </trkpt>
      <trkpt lat="43.64725" lon="1.39209">
        <ele>134</ele>
        <time>2024-12-16T11:34:22Z</time>
      </trkpt>
      <trkpt lat="43.64728" lon="1.39208">
        <ele>134</ele>
        <time>2024-12-16T11:34:23Z</time>
      </trkpt>
      <trkpt lat="43.6473" lon="1.39206">
        <ele>134</ele>
        <time>2024-12-16T11:34:24Z</time>
      </trkpt>
      <trkpt lat="43.64734" lon="1.39204">
        <ele>134</ele>
        <time>2024-12-16T11:34:25Z</time>
      </trkpt>
      <trkpt lat="43.64734" lon="1.39204">
        <ele>134</ele>
        <time>2024-12-16T11:34:26Z</time>
      </trkpt>
      <trkpt lat="43.64736" lon="1.39202">
        <ele>134</ele>
        <time>2024-12-16T11:34:27Z</time>
      </trkpt>
      <trkpt lat="43.6474" lon="1.392">
        <ele>134</ele>
        <time>2024-12-16T11:34:28Z</time>
      </trkpt>
      <trkpt lat="43.6474" lon="1.392">
        <ele>134</ele>
        <time>2024-12-16T11:34:29Z</time>
      </trkpt>
      <trkpt lat="43.64744" lon="1.39197">
        <ele>134</ele>
        <time>2024-12-16T11:34:30Z</time>
      </trkpt>
      <trkpt lat="43.64744" lon="1.39197">
        <ele>134</ele>
        <time>2024-12-16T11:34:31Z</time>
      </trkpt>
      <trkpt lat="43.64749" lon="1.39193">
        <ele>134</ele>
        <time>2024-12-16T11:34:32Z</time>
      </trkpt>
      <trkpt lat="43.64749" lon="1.39193">
        <ele>134</ele>
        <time>2024-12-16T11:34:33Z</time>
      </trkpt>
      <trkpt lat="43.64754" lon="1.39191">
        <ele>134</ele>
        <time>2024-12-16T11:34:34Z</time>
      </trkpt>
      <trkpt lat="43.64754" lon="1.39191">
        <ele>134</ele>
        <time>2024-12-16T11:34:35Z</time>
      </trkpt>
      <trkpt lat="43.64758" lon="1.39188">
        <ele>134</ele>
        <time>2024-12-16T11:34:36Z</time>
      </trkpt>
      <trkpt lat="43.64758" lon="1.39188">
        <ele>134</ele>
        <time>2024-12-16T11:34:37Z</time>
      </trkpt>
      <trkpt lat="43.64763" lon="1.39185">
        <ele>134</ele>
        <time>2024-12-16T11:34:38Z</time>
      </trkpt>
      <trkpt lat="43.64763" lon="1.39185">
        <ele>134</ele>
        <time>2024-12-16T11:34:39Z</time>
      </trkpt>
      <trkpt lat="43.64767" lon="1.39182">
        <ele>134</ele>
        <time>2024-12-16T11:34:40Z</time>
      </trkpt>
      <trkpt lat="43.6477" lon="1.39181">
        <ele>134</ele>
        <time>2024-12-16T11:34:41Z</time>
      </trkpt>
      <trkpt lat="43.6477" lon="1.39181">
        <ele>134</ele>
        <time>2024-12-16T11:34:42Z</time>
      </trkpt>
      <trkpt lat="43.64774" lon="1.39178">
        <ele>134</ele>
        <time>2024-12-16T11:34:43Z</time>
      </trkpt>
      <trkpt lat="43.64774" lon="1.39178">
        <ele>135</ele>
        <time>2024-12-16T11:34:44Z</time>
      </trkpt>
      <trkpt lat="43.64776" lon="1.39177">
        <ele>135</ele>
        <time>2024-12-16T11:34:45Z</time>
      </trkpt>
      <trkpt lat="43.64781" lon="1.39174">
        <ele>134</ele>
        <time>2024-12-16T11:34:46Z</time>
      </trkpt>
      <trkpt lat="43.64783" lon="1.39172">
        <ele>133</ele>
        <time>2024-12-16T11:34:47Z</time>
      </trkpt>
      <trkpt lat="43.64783" lon="1.39172">
        <ele>134</ele>
        <time>2024-12-16T11:34:48Z</time>
      </trkpt>
      <trkpt lat="43.64786" lon="1.39171">
        <ele>134</ele>
        <time>2024-12-16T11:34:49Z</time>
      </trkpt>
      <trkpt lat="43.64788" lon="1.39169">
        <ele>134</ele>
        <time>2024-12-16T11:34:50Z</time>
      </trkpt>
      <trkpt lat="43.64793" lon="1.39167">
        <ele>134</ele>
        <time>2024-12-16T11:34:51Z</time>
      </trkpt>
      <trkpt lat="43.64795" lon="1.39165">
        <ele>134</ele>
        <time>2024-12-16T11:34:52Z</time>
      </trkpt>
      <trkpt lat="43.64795" lon="1.39165">
        <ele>134</ele>
        <time>2024-12-16T11:34:53Z</time>
      </trkpt>
      <trkpt lat="43.648" lon="1.39162">
        <ele>134</ele>
        <time>2024-12-16T11:34:54Z</time>
      </trkpt>
      <trkpt lat="43.64802" lon="1.39161">
        <ele>134</ele>
        <time>2024-12-16T11:34:55Z</time>
      </trkpt>
      <trkpt lat="43.64805" lon="1.39159">
        <ele>134</ele>
        <time>2024-12-16T11:34:56Z</time>
      </trkpt>
      <trkpt lat="43.64805" lon="1.39159">
        <ele>134</ele>
        <time>2024-12-16T11:34:57Z</time>
      </trkpt>
      <trkpt lat="43.64807" lon="1.39158">
        <ele>134</ele>
        <time>2024-12-16T11:34:58Z</time>
      </trkpt>
      <trkpt lat="43.64809" lon="1.39156">
        <ele>134</ele>
        <time>2024-12-16T11:34:59Z</time>
      </trkpt>
      <trkpt lat="43.64814" lon="1.39153">
        <ele>134</ele>
        <time>2024-12-16T11:35:00Z</time>
      </trkpt>
      <trkpt lat="43.64814" lon="1.39153">
        <ele>134</ele>
        <time>2024-12-16T11:35:01Z</time>
      </trkpt>
      <trkpt lat="43.64818" lon="1.3915">
        <ele>134</ele>
        <time>2024-12-16T11:35:02Z</time>
      </trkpt>
      <trkpt lat="43.64818" lon="1.3915">
        <ele>134</ele>
        <time>2024-12-16T11:35:03Z</time>
      </trkpt>
      <trkpt lat="43.6482" lon="1.39148">
        <ele>134</ele>
        <time>2024-12-16T11:35:04Z</time>
      </trkpt>
      <trkpt lat="43.64825" lon="1.39145">
        <ele>134</ele>
        <time>2024-12-16T11:35:05Z</time>
      </trkpt>
      <trkpt lat="43.64827" lon="1.39143">
        <ele>134</ele>
        <time>2024-12-16T11:35:06Z</time>
      </trkpt>
      <trkpt lat="43.64827" lon="1.39143">
        <ele>134</ele>
        <time>2024-12-16T11:35:07Z</time>
      </trkpt>
      <trkpt lat="43.64832" lon="1.3914">
        <ele>134</ele>
        <time>2024-12-16T11:35:08Z</time>
      </trkpt>
      <trkpt lat="43.64832" lon="1.3914">
        <ele>134</ele>
        <time>2024-12-16T11:35:09Z</time>
      </trkpt>
      <trkpt lat="43.64836" lon="1.39136">
        <ele>134</ele>
        <time>2024-12-16T11:35:10Z</time>
      </trkpt>
      <trkpt lat="43.64836" lon="1.39136">
        <ele>134</ele>
        <time>2024-12-16T11:35:11Z</time>
      </trkpt>
      <trkpt lat="43.64841" lon="1.39133">
        <ele>134</ele>
        <time>2024-12-16T11:35:12Z</time>
      </trkpt>
      <trkpt lat="43.64841" lon="1.39133">
        <ele>134</ele>
        <time>2024-12-16T11:35:13Z</time>
      </trkpt>
      <trkpt lat="43.64846" lon="1.39131">
        <ele>134</ele>
        <time>2024-12-16T11:35:14Z</time>
      </trkpt>
      <trkpt lat="43.64849" lon="1.3913">
        <ele>134</ele>
        <time>2024-12-16T11:35:15Z</time>
      </trkpt>
      <trkpt lat="43.64851" lon="1.39129">
        <ele>134</ele>
        <time>2024-12-16T11:35:16Z</time>
      </trkpt>
      <trkpt lat="43.64851" lon="1.39129">
        <ele>134</ele>
        <time>2024-12-16T11:35:17Z</time>
      </trkpt>
      <trkpt lat="43.64856" lon="1.39128">
        <ele>134</ele>
        <time>2024-12-16T11:35:18Z</time>
      </trkpt>
      <trkpt lat="43.64856" lon="1.39128">
        <ele>134</ele>
        <time>2024-12-16T11:35:19Z</time>
      </trkpt>
      <trkpt lat="43.64859" lon="1.39127">
        <ele>134</ele>
        <time>2024-12-16T11:35:20Z</time>
      </trkpt>
      <trkpt lat="43.64864" lon="1.39125">
        <ele>134</ele>
        <time>2024-12-16T11:35:21Z</time>
      </trkpt>
      <trkpt lat="43.64864" lon="1.39125">
        <ele>134</ele>
        <time>2024-12-16T11:35:22Z</time>
      </trkpt>
      <trkpt lat="43.64866" lon="1.39124">
        <ele>134</ele>
        <time>2024-12-16T11:35:23Z</time>
      </trkpt>
      <trkpt lat="43.64869" lon="1.39123">
        <ele>134</ele>
        <time>2024-12-16T11:35:24Z</time>
      </trkpt>
      <trkpt lat="43.64871" lon="1.39123">
        <ele>134</ele>
        <time>2024-12-16T11:35:25Z</time>
      </trkpt>
      <trkpt lat="43.64876" lon="1.39121">
        <ele>134</ele>
        <time>2024-12-16T11:35:26Z</time>
      </trkpt>
      <trkpt lat="43.64876" lon="1.39121">
        <ele>134</ele>
        <time>2024-12-16T11:35:27Z</time>
      </trkpt>
      <trkpt lat="43.64881" lon="1.3912">
        <ele>134</ele>
        <time>2024-12-16T11:35:28Z</time>
      </trkpt>
      <trkpt lat="43.64881" lon="1.3912">
        <ele>135</ele>
        <time>2024-12-16T11:35:29Z</time>
      </trkpt>
      <trkpt lat="43.64886" lon="1.39119">
        <ele>135</ele>
        <time>2024-12-16T11:35:30Z</time>
      </trkpt>
      <trkpt lat="43.64889" lon="1.39118">
        <ele>135</ele>
        <time>2024-12-16T11:35:31Z</time>
      </trkpt>
      <trkpt lat="43.64889" lon="1.39118">
        <ele>135</ele>
        <time>2024-12-16T11:35:32Z</time>
      </trkpt>
      <trkpt lat="43.64894" lon="1.39117">
        <ele>135</ele>
        <time>2024-12-16T11:35:33Z</time>
      </trkpt>
      <trkpt lat="43.64896" lon="1.39116">
        <ele>135</ele>
        <time>2024-12-16T11:35:34Z</time>
      </trkpt>
      <trkpt lat="43.64899" lon="1.39116">
        <ele>135</ele>
        <time>2024-12-16T11:35:35Z</time>
      </trkpt>
      <trkpt lat="43.64901" lon="1.39116">
        <ele>135</ele>
        <time>2024-12-16T11:35:36Z</time>
      </trkpt>
      <trkpt lat="43.64904" lon="1.39115">
        <ele>135</ele>
        <time>2024-12-16T11:35:37Z</time>
      </trkpt>
      <trkpt lat="43.64904" lon="1.39115">
        <ele>135</ele>
        <time>2024-12-16T11:35:38Z</time>
      </trkpt>
      <trkpt lat="43.64906" lon="1.39115">
        <ele>135</ele>
        <time>2024-12-16T11:35:39Z</time>
      </trkpt>
      <trkpt lat="43.64911" lon="1.39115">
        <ele>135</ele>
        <time>2024-12-16T11:35:40Z</time>
      </trkpt>
      <trkpt lat="43.64911" lon="1.39115">
        <ele>134</ele>
        <time>2024-12-16T11:35:41Z</time>
      </trkpt>
      <trkpt lat="43.64913" lon="1.39115">
        <ele>134</ele>
        <time>2024-12-16T11:35:42Z</time>
      </trkpt>
      <trkpt lat="43.64918" lon="1.39115">
        <ele>134</ele>
        <time>2024-12-16T11:35:43Z</time>
      </trkpt>
      <trkpt lat="43.64918" lon="1.39115">
        <ele>134</ele>
        <time>2024-12-16T11:35:44Z</time>
      </trkpt>
      <trkpt lat="43.64923" lon="1.39115">
        <ele>134</ele>
        <time>2024-12-16T11:35:45Z</time>
      </trkpt>
      <trkpt lat="43.64923" lon="1.39115">
        <ele>134</ele>
        <time>2024-12-16T11:35:46Z</time>
      </trkpt>
      <trkpt lat="43.64929" lon="1.39115">
        <ele>134</ele>
        <time>2024-12-16T11:35:47Z</time>
      </trkpt>
      <trkpt lat="43.64929" lon="1.39115">
        <ele>134</ele>
        <time>2024-12-16T11:35:48Z</time>
      </trkpt>
      <trkpt lat="43.64931" lon="1.39115">
        <ele>134</ele>
        <time>2024-12-16T11:35:49Z</time>
      </trkpt>
      <trkpt lat="43.64936" lon="1.39116">
        <ele>134</ele>
        <time>2024-12-16T11:35:50Z</time>
      </trkpt>
      <trkpt lat="43.64936" lon="1.39116">
        <ele>134</ele>
        <time>2024-12-16T11:35:51Z</time>
      </trkpt>
      <trkpt lat="43.64941" lon="1.39117">
        <ele>134</ele>
        <time>2024-12-16T11:35:52Z</time>
      </trkpt>
      <trkpt lat="43.64941" lon="1.39117">
        <ele>134</ele>
        <time>2024-12-16T11:35:53Z</time>
      </trkpt>
      <trkpt lat="43.64946" lon="1.39121">
        <ele>134</ele>
        <time>2024-12-16T11:35:54Z</time>
      </trkpt>
      <trkpt lat="43.64946" lon="1.39121">
        <ele>133</ele>
        <time>2024-12-16T11:35:55Z</time>
      </trkpt>
      <trkpt lat="43.64949" lon="1.39127">
        <ele>133</ele>
        <time>2024-12-16T11:35:56Z</time>
      </trkpt>
      <trkpt lat="43.6495" lon="1.39131">
        <ele>134</ele>
        <time>2024-12-16T11:35:57Z</time>
      </trkpt>
      <trkpt lat="43.6495" lon="1.39131">
        <ele>134</ele>
        <time>2024-12-16T11:35:58Z</time>
      </trkpt>
      <trkpt lat="43.64951" lon="1.39135">
        <ele>133</ele>
        <time>2024-12-16T11:35:59Z</time>
      </trkpt>
      <trkpt lat="43.64952" lon="1.39138">
        <ele>133</ele>
        <time>2024-12-16T11:36:00Z</time>
      </trkpt>
      <trkpt lat="43.64953" lon="1.39145">
        <ele>133</ele>
        <time>2024-12-16T11:36:01Z</time>
      </trkpt>
      <trkpt lat="43.64955" lon="1.39148">
        <ele>133</ele>
        <time>2024-12-16T11:36:02Z</time>
      </trkpt>
      <trkpt lat="43.64956" lon="1.39151">
        <ele>133</ele>
        <time>2024-12-16T11:36:03Z</time>
      </trkpt>
      <trkpt lat="43.64957" lon="1.39155">
        <ele>133</ele>
        <time>2024-12-16T11:36:04Z</time>
      </trkpt>
      <trkpt lat="43.64959" lon="1.39158">
        <ele>133</ele>
        <time>2024-12-16T11:36:05Z</time>
      </trkpt>
      <trkpt lat="43.64959" lon="1.39158">
        <ele>133</ele>
        <time>2024-12-16T11:36:06Z</time>
      </trkpt>
      <trkpt lat="43.64962" lon="1.3916">
        <ele>133</ele>
        <time>2024-12-16T11:36:07Z</time>
      </trkpt>
      <trkpt lat="43.64964" lon="1.39161">
        <ele>133</ele>
        <time>2024-12-16T11:36:08Z</time>
      </trkpt>
      <trkpt lat="43.64969" lon="1.39162">
        <ele>133</ele>
        <time>2024-12-16T11:36:09Z</time>
      </trkpt>
      <trkpt lat="43.64972" lon="1.39162">
        <ele>133</ele>
        <time>2024-12-16T11:36:10Z</time>
      </trkpt>
      <trkpt lat="43.64974" lon="1.39161">
        <ele>133</ele>
        <time>2024-12-16T11:36:11Z</time>
      </trkpt>
      <trkpt lat="43.64977" lon="1.39161">
        <ele>133</ele>
        <time>2024-12-16T11:36:12Z</time>
      </trkpt>
      <trkpt lat="43.64979" lon="1.3916">
        <ele>134</ele>
        <time>2024-12-16T11:36:13Z</time>
      </trkpt>
      <trkpt lat="43.64982" lon="1.39159">
        <ele>134</ele>
        <time>2024-12-16T11:36:14Z</time>
      </trkpt>
      <trkpt lat="43.64984" lon="1.39159">
        <ele>134</ele>
        <time>2024-12-16T11:36:15Z</time>
      </trkpt>
      <trkpt lat="43.64987" lon="1.39158">
        <ele>134</ele>
        <time>2024-12-16T11:36:16Z</time>
      </trkpt>
      <trkpt lat="43.64987" lon="1.39158">
        <ele>134</ele>
        <time>2024-12-16T11:36:17Z</time>
      </trkpt>
      <trkpt lat="43.64992" lon="1.39157">
        <ele>134</ele>
        <time>2024-12-16T11:36:18Z</time>
      </trkpt>
      <trkpt lat="43.64992" lon="1.39157">
        <ele>134</ele>
        <time>2024-12-16T11:36:19Z</time>
      </trkpt>
      <trkpt lat="43.64996" lon="1.39156">
        <ele>134</ele>
        <time>2024-12-16T11:36:20Z</time>
      </trkpt>
      <trkpt lat="43.64996" lon="1.39156">
        <ele>134</ele>
        <time>2024-12-16T11:36:21Z</time>
      </trkpt>
      <trkpt lat="43.64999" lon="1.39155">
        <ele>134</ele>
        <time>2024-12-16T11:36:22Z</time>
      </trkpt>
      <trkpt lat="43.65001" lon="1.39154">
        <ele>134</ele>
        <time>2024-12-16T11:36:23Z</time>
      </trkpt>
      <trkpt lat="43.65006" lon="1.39153">
        <ele>134</ele>
        <time>2024-12-16T11:36:24Z</time>
      </trkpt>
      <trkpt lat="43.65006" lon="1.39153">
        <ele>134</ele>
        <time>2024-12-16T11:36:25Z</time>
      </trkpt>
      <trkpt lat="43.65008" lon="1.39152">
        <ele>134</ele>
        <time>2024-12-16T11:36:26Z</time>
      </trkpt>
      <trkpt lat="43.6501" lon="1.39152">
        <ele>134</ele>
        <time>2024-12-16T11:36:27Z</time>
      </trkpt>
      <trkpt lat="43.65013" lon="1.39151">
        <ele>134</ele>
        <time>2024-12-16T11:36:28Z</time>
      </trkpt>
      <trkpt lat="43.65016" lon="1.39151">
        <ele>134</ele>
        <time>2024-12-16T11:36:29Z</time>
      </trkpt>
      <trkpt lat="43.6502" lon="1.3915">
        <ele>134</ele>
        <time>2024-12-16T11:36:30Z</time>
      </trkpt>
      <trkpt lat="43.6502" lon="1.3915">
        <ele>134</ele>
        <time>2024-12-16T11:36:31Z</time>
      </trkpt>
      <trkpt lat="43.65023" lon="1.39149">
        <ele>134</ele>
        <time>2024-12-16T11:36:32Z</time>
      </trkpt>
      <trkpt lat="43.65028" lon="1.39148">
        <ele>134</ele>
        <time>2024-12-16T11:36:33Z</time>
      </trkpt>
      <trkpt lat="43.65028" lon="1.39148">
        <ele>133</ele>
        <time>2024-12-16T11:36:34Z</time>
      </trkpt>
      <trkpt lat="43.65033" lon="1.39147">
        <ele>133</ele>
        <time>2024-12-16T11:36:35Z</time>
      </trkpt>
      <trkpt lat="43.65033" lon="1.39147">
        <ele>133</ele>
        <time>2024-12-16T11:36:36Z</time>
      </trkpt>
      <trkpt lat="43.65038" lon="1.39146">
        <ele>134</ele>
        <time>2024-12-16T11:36:37Z</time>
      </trkpt>
      <trkpt lat="43.65038" lon="1.39146">
        <ele>134</ele>
        <time>2024-12-16T11:36:38Z</time>
      </trkpt>
      <trkpt lat="43.65041" lon="1.39145">
        <ele>134</ele>
        <time>2024-12-16T11:36:39Z</time>
      </trkpt>
      <trkpt lat="43.65044" lon="1.39144">
        <ele>134</ele>
        <time>2024-12-16T11:36:40Z</time>
      </trkpt>
      <trkpt lat="43.65046" lon="1.39144">
        <ele>134</ele>
        <time>2024-12-16T11:36:41Z</time>
      </trkpt>
      <trkpt lat="43.65049" lon="1.39143">
        <ele>134</ele>
        <time>2024-12-16T11:36:42Z</time>
      </trkpt>
      <trkpt lat="43.65054" lon="1.39141">
        <ele>134</ele>
        <time>2024-12-16T11:36:43Z</time>
      </trkpt>
      <trkpt lat="43.65056" lon="1.3914">
        <ele>134</ele>
        <time>2024-12-16T11:36:44Z</time>
      </trkpt>
      <trkpt lat="43.65056" lon="1.3914">
        <ele>133</ele>
        <time>2024-12-16T11:36:45Z</time>
      </trkpt>
      <trkpt lat="43.65061" lon="1.39137">
        <ele>133</ele>
        <time>2024-12-16T11:36:46Z</time>
      </trkpt>
      <trkpt lat="43.65064" lon="1.39136">
        <ele>133</ele>
        <time>2024-12-16T11:36:47Z</time>
      </trkpt>
      <trkpt lat="43.65064" lon="1.39136">
        <ele>133</ele>
        <time>2024-12-16T11:36:48Z</time>
      </trkpt>
      <trkpt lat="43.65068" lon="1.39131">
        <ele>133</ele>
        <time>2024-12-16T11:36:49Z</time>
      </trkpt>
      <trkpt lat="43.65068" lon="1.39131">
        <ele>133</ele>
        <time>2024-12-16T11:36:50Z</time>
      </trkpt>
      <trkpt lat="43.6507" lon="1.39125">
        <ele>133</ele>
        <time>2024-12-16T11:36:51Z</time>
      </trkpt>
      <trkpt lat="43.6507" lon="1.39125">
        <ele>133</ele>
        <time>2024-12-16T11:36:52Z</time>
      </trkpt>
      <trkpt lat="43.65072" lon="1.39119">
        <ele>133</ele>
        <time>2024-12-16T11:36:53Z</time>
      </trkpt>
      <trkpt lat="43.65073" lon="1.39115">
        <ele>133</ele>
        <time>2024-12-16T11:36:54Z</time>
      </trkpt>
      <trkpt lat="43.65073" lon="1.39115">
        <ele>133</ele>
        <time>2024-12-16T11:36:55Z</time>
      </trkpt>
      <trkpt lat="43.65073" lon="1.39108">
        <ele>133</ele>
        <time>2024-12-16T11:36:56Z</time>
      </trkpt>
      <trkpt lat="43.65073" lon="1.39105">
        <ele>133</ele>
        <time>2024-12-16T11:36:57Z</time>
      </trkpt>
      <trkpt lat="43.65073" lon="1.39102">
        <ele>133</ele>
        <time>2024-12-16T11:36:58Z</time>
      </trkpt>
      <trkpt lat="43.65073" lon="1.39102">
        <ele>132</ele>
        <time>2024-12-16T11:36:59Z</time>
      </trkpt>
      <trkpt lat="43.65073" lon="1.39098">
        <ele>132</ele>
        <time>2024-12-16T11:37:00Z</time>
      </trkpt>
      <trkpt lat="43.65073" lon="1.39095">
        <ele>132</ele>
        <time>2024-12-16T11:37:01Z</time>
      </trkpt>
      <trkpt lat="43.65073" lon="1.39089">
        <ele>132</ele>
        <time>2024-12-16T11:37:02Z</time>
      </trkpt>
      <trkpt lat="43.65073" lon="1.39089">
        <ele>132</ele>
        <time>2024-12-16T11:37:03Z</time>
      </trkpt>
      <trkpt lat="43.65072" lon="1.39085">
        <ele>132</ele>
        <time>2024-12-16T11:37:04Z</time>
      </trkpt>
      <trkpt lat="43.65072" lon="1.39078">
        <ele>132</ele>
        <time>2024-12-16T11:37:05Z</time>
      </trkpt>
      <trkpt lat="43.65072" lon="1.39075">
        <ele>132</ele>
        <time>2024-12-16T11:37:06Z</time>
      </trkpt>
      <trkpt lat="43.65072" lon="1.39075">
        <ele>132</ele>
        <time>2024-12-16T11:37:07Z</time>
      </trkpt>
      <trkpt lat="43.65071" lon="1.39072">
        <ele>132</ele>
        <time>2024-12-16T11:37:08Z</time>
      </trkpt>
      <trkpt lat="43.65071" lon="1.39068">
        <ele>132</ele>
        <time>2024-12-16T11:37:09Z</time>
      </trkpt>
      <trkpt lat="43.6507" lon="1.39061">
        <ele>132</ele>
        <time>2024-12-16T11:37:10Z</time>
      </trkpt>
      <trkpt lat="43.6507" lon="1.39058">
        <ele>132</ele>
        <time>2024-12-16T11:37:11Z</time>
      </trkpt>
      <trkpt lat="43.6507" lon="1.39054">
        <ele>132</ele>
        <time>2024-12-16T11:37:12Z</time>
      </trkpt>
      <trkpt lat="43.6507" lon="1.39054">
        <ele>132</ele>
        <time>2024-12-16T11:37:13Z</time>
      </trkpt>
      <trkpt lat="43.65069" lon="1.39051">
        <ele>132</ele>
        <time>2024-12-16T11:37:14Z</time>
      </trkpt>
      <trkpt lat="43.65069" lon="1.39047">
        <ele>132</ele>
        <time>2024-12-16T11:37:15Z</time>
      </trkpt>
      <trkpt lat="43.65069" lon="1.39044">
        <ele>132</ele>
        <time>2024-12-16T11:37:16Z</time>
      </trkpt>
      <trkpt lat="43.65071" lon="1.39037">
        <ele>132</ele>
        <time>2024-12-16T11:37:17Z</time>
      </trkpt>
      <trkpt lat="43.65072" lon="1.39033">
        <ele>132</ele>
        <time>2024-12-16T11:37:18Z</time>
      </trkpt>
      <trkpt lat="43.65074" lon="1.39031">
        <ele>132</ele>
        <time>2024-12-16T11:37:19Z</time>
      </trkpt>
      <trkpt lat="43.65076" lon="1.39029">
        <ele>132</ele>
        <time>2024-12-16T11:37:20Z</time>
      </trkpt>
      <trkpt lat="43.65078" lon="1.39027">
        <ele>132</ele>
        <time>2024-12-16T11:37:21Z</time>
      </trkpt>
      <trkpt lat="43.6508" lon="1.39025">
        <ele>132</ele>
        <time>2024-12-16T11:37:22Z</time>
      </trkpt>
      <trkpt lat="43.65083" lon="1.39023">
        <ele>132</ele>
        <time>2024-12-16T11:37:23Z</time>
      </trkpt>
      <trkpt lat="43.65083" lon="1.39023">
        <ele>132</ele>
        <time>2024-12-16T11:37:24Z</time>
      </trkpt>
      <trkpt lat="43.65087" lon="1.3902">
        <ele>132</ele>
        <time>2024-12-16T11:37:25Z</time>
      </trkpt>
      <trkpt lat="43.65087" lon="1.3902">
        <ele>132</ele>
        <time>2024-12-16T11:37:26Z</time>
      </trkpt>
      <trkpt lat="43.65092" lon="1.39017">
        <ele>132</ele>
        <time>2024-12-16T11:37:27Z</time>
      </trkpt>
      <trkpt lat="43.65092" lon="1.39017">
        <ele>132</ele>
        <time>2024-12-16T11:37:28Z</time>
      </trkpt>
      <trkpt lat="43.65097" lon="1.39015">
        <ele>131</ele>
        <time>2024-12-16T11:37:29Z</time>
      </trkpt>
      <trkpt lat="43.651" lon="1.39015">
        <ele>131</ele>
        <time>2024-12-16T11:37:30Z</time>
      </trkpt>
      <trkpt lat="43.65103" lon="1.39015">
        <ele>131</ele>
        <time>2024-12-16T11:37:31Z</time>
      </trkpt>
      <trkpt lat="43.65106" lon="1.39015">
        <ele>131</ele>
        <time>2024-12-16T11:37:32Z</time>
      </trkpt>
      <trkpt lat="43.65106" lon="1.39015">
        <ele>131</ele>
        <time>2024-12-16T11:37:33Z</time>
      </trkpt>
      <trkpt lat="43.65111" lon="1.39015">
        <ele>131</ele>
        <time>2024-12-16T11:37:34Z</time>
      </trkpt>
      <trkpt lat="43.65111" lon="1.39015">
        <ele>131</ele>
        <time>2024-12-16T11:37:35Z</time>
      </trkpt>
      <trkpt lat="43.65116" lon="1.39015">
        <ele>131</ele>
        <time>2024-12-16T11:37:36Z</time>
      </trkpt>
      <trkpt lat="43.65119" lon="1.39015">
        <ele>131</ele>
        <time>2024-12-16T11:37:37Z</time>
      </trkpt>
      <trkpt lat="43.65119" lon="1.39015">
        <ele>131</ele>
        <time>2024-12-16T11:37:38Z</time>
      </trkpt>
      <trkpt lat="43.65124" lon="1.39015">
        <ele>131</ele>
        <time>2024-12-16T11:37:39Z</time>
      </trkpt>
      <trkpt lat="43.65127" lon="1.39014">
        <ele>131</ele>
        <time>2024-12-16T11:37:40Z</time>
      </trkpt>
      <trkpt lat="43.65127" lon="1.39014">
        <ele>131</ele>
        <time>2024-12-16T11:37:41Z</time>
      </trkpt>
      <trkpt lat="43.65129" lon="1.39014">
        <ele>131</ele>
        <time>2024-12-16T11:37:42Z</time>
      </trkpt>
      <trkpt lat="43.65132" lon="1.39014">
        <ele>131</ele>
        <time>2024-12-16T11:37:43Z</time>
      </trkpt>
      <trkpt lat="43.65137" lon="1.39014">
        <ele>132</ele>
        <time>2024-12-16T11:37:44Z</time>
      </trkpt>
      <trkpt lat="43.65137" lon="1.39014">
        <ele>132</ele>
        <time>2024-12-16T11:37:45Z</time>
      </trkpt>
      <trkpt lat="43.65143" lon="1.39015">
        <ele>132</ele>
        <time>2024-12-16T11:37:46Z</time>
      </trkpt>
      <trkpt lat="43.65143" lon="1.39015">
        <ele>132</ele>
        <time>2024-12-16T11:37:47Z</time>
      </trkpt>
      <trkpt lat="43.65148" lon="1.39015">
        <ele>132</ele>
        <time>2024-12-16T11:37:48Z</time>
      </trkpt>
      <trkpt lat="43.65148" lon="1.39015">
        <ele>132</ele>
        <time>2024-12-16T11:37:49Z</time>
      </trkpt>
      <trkpt lat="43.65152" lon="1.39015">
        <ele>131</ele>
        <time>2024-12-16T11:37:50Z</time>
      </trkpt>
      <trkpt lat="43.65152" lon="1.39015">
        <ele>131</ele>
        <time>2024-12-16T11:37:51Z</time>
      </trkpt>
      <trkpt lat="43.65154" lon="1.39015">
        <ele>131</ele>
        <time>2024-12-16T11:37:52Z</time>
      </trkpt>
      <trkpt lat="43.65159" lon="1.39014">
        <ele>131</ele>
        <time>2024-12-16T11:37:53Z</time>
      </trkpt>
      <trkpt lat="43.65159" lon="1.39014">
        <ele>131</ele>
        <time>2024-12-16T11:37:54Z</time>
      </trkpt>
      <trkpt lat="43.65164" lon="1.39014">
        <ele>132</ele>
        <time>2024-12-16T11:37:55Z</time>
      </trkpt>
      <trkpt lat="43.65164" lon="1.39014">
        <ele>132</ele>
        <time>2024-12-16T11:37:56Z</time>
      </trkpt>
      <trkpt lat="43.6517" lon="1.39013">
        <ele>132</ele>
        <time>2024-12-16T11:37:57Z</time>
      </trkpt>
      <trkpt lat="43.6517" lon="1.39013">
        <ele>132</ele>
        <time>2024-12-16T11:37:58Z</time>
      </trkpt>
      <trkpt lat="43.65172" lon="1.39013">
        <ele>132</ele>
        <time>2024-12-16T11:37:59Z</time>
      </trkpt>
      <trkpt lat="43.65175" lon="1.39013">
        <ele>132</ele>
        <time>2024-12-16T11:38:00Z</time>
      </trkpt>
      <trkpt lat="43.65178" lon="1.39013">
        <ele>132</ele>
        <time>2024-12-16T11:38:01Z</time>
      </trkpt>
      <trkpt lat="43.6518" lon="1.39014">
        <ele>132</ele>
        <time>2024-12-16T11:38:02Z</time>
      </trkpt>
      <trkpt lat="43.65185" lon="1.39014">
        <ele>132</ele>
        <time>2024-12-16T11:38:03Z</time>
      </trkpt>
      <trkpt lat="43.65185" lon="1.39014">
        <ele>132</ele>
        <time>2024-12-16T11:38:04Z</time>
      </trkpt>
      <trkpt lat="43.65188" lon="1.39014">
        <ele>132</ele>
        <time>2024-12-16T11:38:05Z</time>
      </trkpt>
      <trkpt lat="43.6519" lon="1.39015">
        <ele>132</ele>
        <time>2024-12-16T11:38:06Z</time>
      </trkpt>
      <trkpt lat="43.65196" lon="1.39014">
        <ele>131</ele>
        <time>2024-12-16T11:38:07Z</time>
      </trkpt>
      <trkpt lat="43.65196" lon="1.39014">
        <ele>131</ele>
        <time>2024-12-16T11:38:08Z</time>
      </trkpt>
      <trkpt lat="43.65199" lon="1.39014">
        <ele>131</ele>
        <time>2024-12-16T11:38:09Z</time>
      </trkpt>
      <trkpt lat="43.65203" lon="1.39015">
        <ele>131</ele>
        <time>2024-12-16T11:38:10Z</time>
      </trkpt>
      <trkpt lat="43.65203" lon="1.39015">
        <ele>131</ele>
        <time>2024-12-16T11:38:11Z</time>
      </trkpt>
      <trkpt lat="43.65205" lon="1.39015">
        <ele>131</ele>
        <time>2024-12-16T11:38:12Z</time>
      </trkpt>
      <trkpt lat="43.65207" lon="1.39015">
        <ele>131</ele>
        <time>2024-12-16T11:38:13Z</time>
      </trkpt>
      <trkpt lat="43.65212" lon="1.39015">
        <ele>131</ele>
        <time>2024-12-16T11:38:14Z</time>
      </trkpt>
      <trkpt lat="43.65215" lon="1.39015">
        <ele>131</ele>
        <time>2024-12-16T11:38:15Z</time>
      </trkpt>
      <trkpt lat="43.65217" lon="1.39016">
        <ele>131</ele>
        <time>2024-12-16T11:38:16Z</time>
      </trkpt>
      <trkpt lat="43.6522" lon="1.39016">
        <ele>131</ele>
        <time>2024-12-16T11:38:17Z</time>
      </trkpt>
      <trkpt lat="43.6522" lon="1.39016">
        <ele>131</ele>
        <time>2024-12-16T11:38:18Z</time>
      </trkpt>
      <trkpt lat="43.65225" lon="1.39019">
        <ele>131</ele>
        <time>2024-12-16T11:38:19Z</time>
      </trkpt>
      <trkpt lat="43.65225" lon="1.39019">
        <ele>131</ele>
        <time>2024-12-16T11:38:20Z</time>
      </trkpt>
      <trkpt lat="43.65228" lon="1.39021">
        <ele>131</ele>
        <time>2024-12-16T11:38:21Z</time>
      </trkpt>
      <trkpt lat="43.65234" lon="1.39025">
        <ele>131</ele>
        <time>2024-12-16T11:38:22Z</time>
      </trkpt>
      <trkpt lat="43.65234" lon="1.39025">
        <ele>131</ele>
        <time>2024-12-16T11:38:23Z</time>
      </trkpt>
      <trkpt lat="43.65236" lon="1.39027">
        <ele>131</ele>
        <time>2024-12-16T11:38:24Z</time>
      </trkpt>
      <trkpt lat="43.65239" lon="1.39028">
        <ele>131</ele>
        <time>2024-12-16T11:38:25Z</time>
      </trkpt>
      <trkpt lat="43.65244" lon="1.39032">
        <ele>131</ele>
        <time>2024-12-16T11:38:26Z</time>
      </trkpt>
      <trkpt lat="43.65246" lon="1.39033">
        <ele>131</ele>
        <time>2024-12-16T11:38:27Z</time>
      </trkpt>
      <trkpt lat="43.65246" lon="1.39033">
        <ele>131</ele>
        <time>2024-12-16T11:38:28Z</time>
      </trkpt>
      <trkpt lat="43.6525" lon="1.39034">
        <ele>131</ele>
        <time>2024-12-16T11:38:29Z</time>
      </trkpt>
      <trkpt lat="43.65252" lon="1.39034">
        <ele>131</ele>
        <time>2024-12-16T11:38:30Z</time>
      </trkpt>
      <trkpt lat="43.65254" lon="1.39034">
        <ele>131</ele>
        <time>2024-12-16T11:38:31Z</time>
      </trkpt>
      <trkpt lat="43.65254" lon="1.39034">
        <ele>131</ele>
        <time>2024-12-16T11:38:32Z</time>
      </trkpt>
      <trkpt lat="43.65256" lon="1.39033">
        <ele>131</ele>
        <time>2024-12-16T11:38:33Z</time>
      </trkpt>
      <trkpt lat="43.65261" lon="1.39033">
        <ele>131</ele>
        <time>2024-12-16T11:38:34Z</time>
      </trkpt>
      <trkpt lat="43.65261" lon="1.39033">
        <ele>130</ele>
        <time>2024-12-16T11:38:35Z</time>
      </trkpt>
      <trkpt lat="43.65266" lon="1.39033">
        <ele>130</ele>
        <time>2024-12-16T11:38:36Z</time>
      </trkpt>
      <trkpt lat="43.65266" lon="1.39033">
        <ele>130</ele>
        <time>2024-12-16T11:38:37Z</time>
      </trkpt>
      <trkpt lat="43.65271" lon="1.39033">
        <ele>130</ele>
        <time>2024-12-16T11:38:38Z</time>
      </trkpt>
      <trkpt lat="43.65274" lon="1.39034">
        <ele>130</ele>
        <time>2024-12-16T11:38:39Z</time>
      </trkpt>
      <trkpt lat="43.65274" lon="1.39034">
        <ele>130</ele>
        <time>2024-12-16T11:38:40Z</time>
      </trkpt>
      <trkpt lat="43.65279" lon="1.39035">
        <ele>130</ele>
        <time>2024-12-16T11:38:41Z</time>
      </trkpt>
      <trkpt lat="43.65279" lon="1.39035">
        <ele>130</ele>
        <time>2024-12-16T11:38:42Z</time>
      </trkpt>
      <trkpt lat="43.65284" lon="1.39036">
        <ele>130</ele>
        <time>2024-12-16T11:38:43Z</time>
      </trkpt>
      <trkpt lat="43.65284" lon="1.39036">
        <ele>130</ele>
        <time>2024-12-16T11:38:44Z</time>
      </trkpt>
      <trkpt lat="43.65288" lon="1.39037">
        <ele>130</ele>
        <time>2024-12-16T11:38:45Z</time>
      </trkpt>
      <trkpt lat="43.65288" lon="1.39037">
        <ele>130</ele>
        <time>2024-12-16T11:38:46Z</time>
      </trkpt>
      <trkpt lat="43.65291" lon="1.39038">
        <ele>130</ele>
        <time>2024-12-16T11:38:47Z</time>
      </trkpt>
      <trkpt lat="43.65296" lon="1.39039">
        <ele>131</ele>
        <time>2024-12-16T11:38:48Z</time>
      </trkpt>
      <trkpt lat="43.65296" lon="1.39039">
        <ele>131</ele>
        <time>2024-12-16T11:38:49Z</time>
      </trkpt>
      <trkpt lat="43.65302" lon="1.39038">
        <ele>130</ele>
        <time>2024-12-16T11:38:50Z</time>
      </trkpt>
      <trkpt lat="43.65302" lon="1.39038">
        <ele>130</ele>
        <time>2024-12-16T11:38:51Z</time>
      </trkpt>
      <trkpt lat="43.65306" lon="1.39034">
        <ele>130</ele>
        <time>2024-12-16T11:38:52Z</time>
      </trkpt>
      <trkpt lat="43.65308" lon="1.39031">
        <ele>130</ele>
        <time>2024-12-16T11:38:53Z</time>
      </trkpt>
      <trkpt lat="43.65308" lon="1.39031">
        <ele>130</ele>
        <time>2024-12-16T11:38:54Z</time>
      </trkpt>
      <trkpt lat="43.6531" lon="1.39025">
        <ele>130</ele>
        <time>2024-12-16T11:38:55Z</time>
      </trkpt>
      <trkpt lat="43.6531" lon="1.39025">
        <ele>130</ele>
        <time>2024-12-16T11:38:56Z</time>
      </trkpt>
      <trkpt lat="43.65311" lon="1.39022">
        <ele>130</ele>
        <time>2024-12-16T11:38:57Z</time>
      </trkpt>
      <trkpt lat="43.65312" lon="1.39016">
        <ele>130</ele>
        <time>2024-12-16T11:38:58Z</time>
      </trkpt>
      <trkpt lat="43.65312" lon="1.39016">
        <ele>130</ele>
        <time>2024-12-16T11:38:59Z</time>
      </trkpt>
      <trkpt lat="43.65315" lon="1.39009">
        <ele>130</ele>
        <time>2024-12-16T11:39:00Z</time>
      </trkpt>
      <trkpt lat="43.65315" lon="1.39009">
        <ele>130</ele>
        <time>2024-12-16T11:39:01Z</time>
      </trkpt>
      <trkpt lat="43.65317" lon="1.39003">
        <ele>130</ele>
        <time>2024-12-16T11:39:02Z</time>
      </trkpt>
      <trkpt lat="43.65317" lon="1.39003">
        <ele>130</ele>
        <time>2024-12-16T11:39:03Z</time>
      </trkpt>
      <trkpt lat="43.65318" lon="1.38997">
        <ele>130</ele>
        <time>2024-12-16T11:39:04Z</time>
      </trkpt>
      <trkpt lat="43.65319" lon="1.38994">
        <ele>131</ele>
        <time>2024-12-16T11:39:05Z</time>
      </trkpt>
      <trkpt lat="43.65319" lon="1.38991">
        <ele>131</ele>
        <time>2024-12-16T11:39:06Z</time>
      </trkpt>
      <trkpt lat="43.65319" lon="1.38988">
        <ele>131</ele>
        <time>2024-12-16T11:39:07Z</time>
      </trkpt>
      <trkpt lat="43.65319" lon="1.38988">
        <ele>131</ele>
        <time>2024-12-16T11:39:08Z</time>
      </trkpt>
      <trkpt lat="43.65318" lon="1.38985">
        <ele>131</ele>
        <time>2024-12-16T11:39:09Z</time>
      </trkpt>
      <trkpt lat="43.65317" lon="1.38983">
        <ele>131</ele>
        <time>2024-12-16T11:39:10Z</time>
      </trkpt>
      <trkpt lat="43.65316" lon="1.38977">
        <ele>131</ele>
        <time>2024-12-16T11:39:11Z</time>
      </trkpt>
      <trkpt lat="43.65315" lon="1.38974">
        <ele>131</ele>
        <time>2024-12-16T11:39:12Z</time>
      </trkpt>
      <trkpt lat="43.65315" lon="1.38971">
        <ele>131</ele>
        <time>2024-12-16T11:39:13Z</time>
      </trkpt>
      <trkpt lat="43.65315" lon="1.38971">
        <ele>132</ele>
        <time>2024-12-16T11:39:14Z</time>
      </trkpt>
      <trkpt lat="43.65315" lon="1.38968">
        <ele>132</ele>
        <time>2024-12-16T11:39:15Z</time>
      </trkpt>
      <trkpt lat="43.65314" lon="1.38963">
        <ele>132</ele>
        <time>2024-12-16T11:39:16Z</time>
      </trkpt>
      <trkpt lat="43.65314" lon="1.38963">
        <ele>132</ele>
        <time>2024-12-16T11:39:17Z</time>
      </trkpt>
      <trkpt lat="43.65313" lon="1.38958">
        <ele>132</ele>
        <time>2024-12-16T11:39:18Z</time>
      </trkpt>
      <trkpt lat="43.65312" lon="1.38955">
        <ele>134</ele>
        <time>2024-12-16T11:39:20Z</time>
      </trkpt>
      <trkpt lat="43.6531" lon="1.3895">
        <ele>134</ele>
        <time>2024-12-16T11:39:21Z</time>
      </trkpt>
      <trkpt lat="43.6531" lon="1.3895">
        <ele>135</ele>
        <time>2024-12-16T11:39:22Z</time>
      </trkpt>
      <trkpt lat="43.65309" lon="1.38944">
        <ele>135</ele>
        <time>2024-12-16T11:39:23Z</time>
      </trkpt>
      <trkpt lat="43.65309" lon="1.38942">
        <ele>135</ele>
        <time>2024-12-16T11:39:24Z</time>
      </trkpt>
      <trkpt lat="43.65309" lon="1.38942">
        <ele>136</ele>
        <time>2024-12-16T11:39:25Z</time>
      </trkpt>
      <trkpt lat="43.65308" lon="1.38939">
        <ele>136</ele>
        <time>2024-12-16T11:39:26Z</time>
      </trkpt>
      <trkpt lat="43.65307" lon="1.38937">
        <ele>137</ele>
        <time>2024-12-16T11:39:27Z</time>
      </trkpt>
      <trkpt lat="43.65304" lon="1.38933">
        <ele>137</ele>
        <time>2024-12-16T11:39:28Z</time>
      </trkpt>
      <trkpt lat="43.65302" lon="1.38931">
        <ele>137</ele>
        <time>2024-12-16T11:39:29Z</time>
      </trkpt>
      <trkpt lat="43.65301" lon="1.38929">
        <ele>137</ele>
        <time>2024-12-16T11:39:30Z</time>
      </trkpt>
      <trkpt lat="43.65299" lon="1.38928">
        <ele>137</ele>
        <time>2024-12-16T11:39:31Z</time>
      </trkpt>
      <trkpt lat="43.65299" lon="1.38928">
        <ele>138</ele>
        <time>2024-12-16T11:39:32Z</time>
      </trkpt>
      <trkpt lat="43.65297" lon="1.38927">
        <ele>138</ele>
        <time>2024-12-16T11:39:33Z</time>
      </trkpt>
      <trkpt lat="43.65295" lon="1.38926">
        <ele>138</ele>
        <time>2024-12-16T11:39:34Z</time>
      </trkpt>
      <trkpt lat="43.65291" lon="1.38923">
        <ele>139</ele>
        <time>2024-12-16T11:39:35Z</time>
      </trkpt>
      <trkpt lat="43.65291" lon="1.38923">
        <ele>139</ele>
        <time>2024-12-16T11:39:36Z</time>
      </trkpt>
      <trkpt lat="43.65287" lon="1.3892">
        <ele>139</ele>
        <time>2024-12-16T11:39:37Z</time>
      </trkpt>
      <trkpt lat="43.65285" lon="1.38919">
        <ele>140</ele>
        <time>2024-12-16T11:39:38Z</time>
      </trkpt>
      <trkpt lat="43.65285" lon="1.38919">
        <ele>140</ele>
        <time>2024-12-16T11:39:39Z</time>
      </trkpt>
      <trkpt lat="43.65283" lon="1.38917">
        <ele>140</ele>
        <time>2024-12-16T11:39:40Z</time>
      </trkpt>
      <trkpt lat="43.65281" lon="1.38915">
        <ele>141</ele>
        <time>2024-12-16T11:39:41Z</time>
      </trkpt>
      <trkpt lat="43.65278" lon="1.38911">
        <ele>141</ele>
        <time>2024-12-16T11:39:42Z</time>
      </trkpt>
      <trkpt lat="43.65277" lon="1.38909">
        <ele>141</ele>
        <time>2024-12-16T11:39:43Z</time>
      </trkpt>
      <trkpt lat="43.65275" lon="1.38907">
        <ele>141</ele>
        <time>2024-12-16T11:39:44Z</time>
      </trkpt>
      <trkpt lat="43.65275" lon="1.38907">
        <ele>141</ele>
        <time>2024-12-16T11:39:45Z</time>
      </trkpt>
      <trkpt lat="43.65274" lon="1.38906">
        <ele>141</ele>
        <time>2024-12-16T11:39:46Z</time>
      </trkpt>
      <trkpt lat="43.65272" lon="1.38904">
        <ele>141</ele>
        <time>2024-12-16T11:39:47Z</time>
      </trkpt>
      <trkpt lat="43.65271" lon="1.38902">
        <ele>141</ele>
        <time>2024-12-16T11:39:48Z</time>
      </trkpt>
      <trkpt lat="43.6527" lon="1.38899">
        <ele>141</ele>
        <time>2024-12-16T11:39:49Z</time>
      </trkpt>
      <trkpt lat="43.65267" lon="1.38895">
        <ele>142</ele>
        <time>2024-12-16T11:39:50Z</time>
      </trkpt>
      <trkpt lat="43.65266" lon="1.38892">
        <ele>142</ele>
        <time>2024-12-16T11:39:51Z</time>
      </trkpt>
      <trkpt lat="43.65264" lon="1.3889">
        <ele>142</ele>
        <time>2024-12-16T11:39:52Z</time>
      </trkpt>
      <trkpt lat="43.65263" lon="1.38888">
        <ele>142</ele>
        <time>2024-12-16T11:39:53Z</time>
      </trkpt>
      <trkpt lat="43.65263" lon="1.38888">
        <ele>142</ele>
        <time>2024-12-16T11:39:54Z</time>
      </trkpt>
      <trkpt lat="43.65261" lon="1.38886">
        <ele>142</ele>
        <time>2024-12-16T11:39:55Z</time>
      </trkpt>
      <trkpt lat="43.65259" lon="1.38884">
        <ele>143</ele>
        <time>2024-12-16T11:39:56Z</time>
      </trkpt>
      <trkpt lat="43.65256" lon="1.38879">
        <ele>143</ele>
        <time>2024-12-16T11:39:57Z</time>
      </trkpt>
      <trkpt lat="43.65256" lon="1.38879">
        <ele>143</ele>
        <time>2024-12-16T11:39:58Z</time>
      </trkpt>
      <trkpt lat="43.65252" lon="1.38875">
        <ele>143</ele>
        <time>2024-12-16T11:39:59Z</time>
      </trkpt>
      <trkpt lat="43.65252" lon="1.38875">
        <ele>143</ele>
        <time>2024-12-16T11:40:00Z</time>
      </trkpt>
      <trkpt lat="43.65249" lon="1.3887">
        <ele>144</ele>
        <time>2024-12-16T11:40:01Z</time>
      </trkpt>
      <trkpt lat="43.65249" lon="1.3887">
        <ele>144</ele>
        <time>2024-12-16T11:40:02Z</time>
      </trkpt>
      <trkpt lat="43.65248" lon="1.38868">
        <ele>144</ele>
        <time>2024-12-16T11:40:03Z</time>
      </trkpt>
      <trkpt lat="43.65245" lon="1.38862">
        <ele>144</ele>
        <time>2024-12-16T11:40:04Z</time>
      </trkpt>
      <trkpt lat="43.65243" lon="1.3886">
        <ele>145</ele>
        <time>2024-12-16T11:40:05Z</time>
      </trkpt>
      <trkpt lat="43.65241" lon="1.38857">
        <ele>145</ele>
        <time>2024-12-16T11:40:06Z</time>
      </trkpt>
      <trkpt lat="43.6524" lon="1.38855">
        <ele>145</ele>
        <time>2024-12-16T11:40:07Z</time>
      </trkpt>
      <trkpt lat="43.65238" lon="1.38852">
        <ele>145</ele>
        <time>2024-12-16T11:40:08Z</time>
      </trkpt>
      <trkpt lat="43.65238" lon="1.38852">
        <ele>145</ele>
        <time>2024-12-16T11:40:09Z</time>
      </trkpt>
      <trkpt lat="43.65236" lon="1.38848">
        <ele>145</ele>
        <time>2024-12-16T11:40:10Z</time>
      </trkpt>
      <trkpt lat="43.65235" lon="1.38845">
        <ele>145</ele>
        <time>2024-12-16T11:40:11Z</time>
      </trkpt>
      <trkpt lat="43.65233" lon="1.38843">
        <ele>145</ele>
        <time>2024-12-16T11:40:12Z</time>
      </trkpt>
      <trkpt lat="43.65229" lon="1.38838">
        <ele>145</ele>
        <time>2024-12-16T11:40:13Z</time>
      </trkpt>
      <trkpt lat="43.65227" lon="1.38835">
        <ele>146</ele>
        <time>2024-12-16T11:40:14Z</time>
      </trkpt>
      <trkpt lat="43.65225" lon="1.38833">
        <ele>146</ele>
        <time>2024-12-16T11:40:15Z</time>
      </trkpt>
      <trkpt lat="43.65223" lon="1.3883">
        <ele>146</ele>
        <time>2024-12-16T11:40:16Z</time>
      </trkpt>
      <trkpt lat="43.65222" lon="1.38827">
        <ele>146</ele>
        <time>2024-12-16T11:40:17Z</time>
      </trkpt>
      <trkpt lat="43.6522" lon="1.38825">
        <ele>145</ele>
        <time>2024-12-16T11:40:18Z</time>
      </trkpt>
      <trkpt lat="43.6522" lon="1.38825">
        <ele>146</ele>
        <time>2024-12-16T11:40:19Z</time>
      </trkpt>
      <trkpt lat="43.65216" lon="1.3882">
        <ele>146</ele>
        <time>2024-12-16T11:40:20Z</time>
      </trkpt>
      <trkpt lat="43.65216" lon="1.3882">
        <ele>146</ele>
        <time>2024-12-16T11:40:21Z</time>
      </trkpt>
      <trkpt lat="43.65213" lon="1.38815">
        <ele>146</ele>
        <time>2024-12-16T11:40:22Z</time>
      </trkpt>
      <trkpt lat="43.65213" lon="1.38815">
        <ele>147</ele>
        <time>2024-12-16T11:40:23Z</time>
      </trkpt>
      <trkpt lat="43.65209" lon="1.38809">
        <ele>147</ele>
        <time>2024-12-16T11:40:24Z</time>
      </trkpt>
      <trkpt lat="43.65208" lon="1.38807">
        <ele>147</ele>
        <time>2024-12-16T11:40:25Z</time>
      </trkpt>
      <trkpt lat="43.65206" lon="1.38804">
        <ele>147</ele>
        <time>2024-12-16T11:40:26Z</time>
      </trkpt>
      <trkpt lat="43.65204" lon="1.38802">
        <ele>147</ele>
        <time>2024-12-16T11:40:27Z</time>
      </trkpt>
      <trkpt lat="43.65203" lon="1.38799">
        <ele>148</ele>
        <time>2024-12-16T11:40:28Z</time>
      </trkpt>
      <trkpt lat="43.65203" lon="1.38799">
        <ele>148</ele>
        <time>2024-12-16T11:40:29Z</time>
      </trkpt>
      <trkpt lat="43.65199" lon="1.38794">
        <ele>148</ele>
        <time>2024-12-16T11:40:30Z</time>
      </trkpt>
      <trkpt lat="43.65199" lon="1.38794">
        <ele>148</ele>
        <time>2024-12-16T11:40:31Z</time>
      </trkpt>
      <trkpt lat="43.65196" lon="1.38789">
        <ele>148</ele>
        <time>2024-12-16T11:40:32Z</time>
      </trkpt>
      <trkpt lat="43.65196" lon="1.38789">
        <ele>148</ele>
        <time>2024-12-16T11:40:33Z</time>
      </trkpt>
      <trkpt lat="43.65192" lon="1.38784">
        <ele>148</ele>
        <time>2024-12-16T11:40:34Z</time>
      </trkpt>
      <trkpt lat="43.65192" lon="1.38784">
        <ele>148</ele>
        <time>2024-12-16T11:40:35Z</time>
      </trkpt>
      <trkpt lat="43.6519" lon="1.38782">
        <ele>148</ele>
        <time>2024-12-16T11:40:36Z</time>
      </trkpt>
      <trkpt lat="43.65187" lon="1.38778">
        <ele>148</ele>
        <time>2024-12-16T11:40:37Z</time>
      </trkpt>
      <trkpt lat="43.65185" lon="1.38776">
        <ele>148</ele>
        <time>2024-12-16T11:40:38Z</time>
      </trkpt>
      <trkpt lat="43.65185" lon="1.38776">
        <ele>148</ele>
        <time>2024-12-16T11:40:39Z</time>
      </trkpt>
      <trkpt lat="43.65182" lon="1.3877">
        <ele>148</ele>
        <time>2024-12-16T11:40:40Z</time>
      </trkpt>
      <trkpt lat="43.65182" lon="1.3877">
        <ele>148</ele>
        <time>2024-12-16T11:40:41Z</time>
      </trkpt>
      <trkpt lat="43.65179" lon="1.38764">
        <ele>148</ele>
        <time>2024-12-16T11:40:42Z</time>
      </trkpt>
      <trkpt lat="43.65179" lon="1.38764">
        <ele>148</ele>
        <time>2024-12-16T11:40:43Z</time>
      </trkpt>
      <trkpt lat="43.65177" lon="1.38758">
        <ele>148</ele>
        <time>2024-12-16T11:40:44Z</time>
      </trkpt>
      <trkpt lat="43.65177" lon="1.38758">
        <ele>148</ele>
        <time>2024-12-16T11:40:45Z</time>
      </trkpt>
      <trkpt lat="43.65176" lon="1.38755">
        <ele>148</ele>
        <time>2024-12-16T11:40:46Z</time>
      </trkpt>
      <trkpt lat="43.65174" lon="1.38749">
        <ele>148</ele>
        <time>2024-12-16T11:40:47Z</time>
      </trkpt>
      <trkpt lat="43.65174" lon="1.38749">
        <ele>148</ele>
        <time>2024-12-16T11:40:48Z</time>
      </trkpt>
      <trkpt lat="43.65173" lon="1.38746">
        <ele>148</ele>
        <time>2024-12-16T11:40:49Z</time>
      </trkpt>
      <trkpt lat="43.65171" lon="1.3874">
        <ele>148</ele>
        <time>2024-12-16T11:40:50Z</time>
      </trkpt>
      <trkpt lat="43.65171" lon="1.3874">
        <ele>148</ele>
        <time>2024-12-16T11:40:51Z</time>
      </trkpt>
      <trkpt lat="43.65169" lon="1.38734">
        <ele>148</ele>
        <time>2024-12-16T11:40:52Z</time>
      </trkpt>
      <trkpt lat="43.65168" lon="1.38731">
        <ele>148</ele>
        <time>2024-12-16T11:40:53Z</time>
      </trkpt>
      <trkpt lat="43.65168" lon="1.38731">
        <ele>148</ele>
        <time>2024-12-16T11:40:54Z</time>
      </trkpt>
      <trkpt lat="43.65165" lon="1.38726">
        <ele>148</ele>
        <time>2024-12-16T11:40:55Z</time>
      </trkpt>
      <trkpt lat="43.65165" lon="1.38726">
        <ele>148</ele>
        <time>2024-12-16T11:40:56Z</time>
      </trkpt>
      <trkpt lat="43.65164" lon="1.3872">
        <ele>148</ele>
        <time>2024-12-16T11:40:57Z</time>
      </trkpt>
      <trkpt lat="43.65164" lon="1.3872">
        <ele>148</ele>
        <time>2024-12-16T11:40:58Z</time>
      </trkpt>
      <trkpt lat="43.65162" lon="1.38715">
        <ele>148</ele>
        <time>2024-12-16T11:40:59Z</time>
      </trkpt>
      <trkpt lat="43.65162" lon="1.38715">
        <ele>149</ele>
        <time>2024-12-16T11:41:00Z</time>
      </trkpt>
      <trkpt lat="43.65161" lon="1.38711">
        <ele>149</ele>
        <time>2024-12-16T11:41:01Z</time>
      </trkpt>
      <trkpt lat="43.6516" lon="1.38708">
        <ele>148</ele>
        <time>2024-12-16T11:41:02Z</time>
      </trkpt>
      <trkpt lat="43.65158" lon="1.38705">
        <ele>148</ele>
        <time>2024-12-16T11:41:03Z</time>
      </trkpt>
      <trkpt lat="43.65156" lon="1.38698">
        <ele>148</ele>
        <time>2024-12-16T11:41:04Z</time>
      </trkpt>
      <trkpt lat="43.65155" lon="1.38695">
        <ele>148</ele>
        <time>2024-12-16T11:41:05Z</time>
      </trkpt>
      <trkpt lat="43.65154" lon="1.38692">
        <ele>148</ele>
        <time>2024-12-16T11:41:06Z</time>
      </trkpt>
      <trkpt lat="43.65153" lon="1.38689">
        <ele>148</ele>
        <time>2024-12-16T11:41:07Z</time>
      </trkpt>
      <trkpt lat="43.65153" lon="1.38689">
        <ele>148</ele>
        <time>2024-12-16T11:41:08Z</time>
      </trkpt>
      <trkpt lat="43.65151" lon="1.38683">
        <ele>148</ele>
        <time>2024-12-16T11:41:09Z</time>
      </trkpt>
      <trkpt lat="43.65151" lon="1.38683">
        <ele>148</ele>
        <time>2024-12-16T11:41:10Z</time>
      </trkpt>
      <trkpt lat="43.65149" lon="1.38676">
        <ele>148</ele>
        <time>2024-12-16T11:41:11Z</time>
      </trkpt>
      <trkpt lat="43.65147" lon="1.38673">
        <ele>148</ele>
        <time>2024-12-16T11:41:12Z</time>
      </trkpt>
      <trkpt lat="43.65146" lon="1.3867">
        <ele>148</ele>
        <time>2024-12-16T11:41:13Z</time>
      </trkpt>
      <trkpt lat="43.65146" lon="1.3867">
        <ele>148</ele>
        <time>2024-12-16T11:41:14Z</time>
      </trkpt>
      <trkpt lat="43.65144" lon="1.38663">
        <ele>148</ele>
        <time>2024-12-16T11:41:15Z</time>
      </trkpt>
      <trkpt lat="43.65144" lon="1.38663">
        <ele>147</ele>
        <time>2024-12-16T11:41:16Z</time>
      </trkpt>
      <trkpt lat="43.65142" lon="1.38657">
        <ele>147</ele>
        <time>2024-12-16T11:41:17Z</time>
      </trkpt>
      <trkpt lat="43.65142" lon="1.38657">
        <ele>147</ele>
        <time>2024-12-16T11:41:18Z</time>
      </trkpt>
      <trkpt lat="43.65141" lon="1.38654">
        <ele>147</ele>
        <time>2024-12-16T11:41:19Z</time>
      </trkpt>
      <trkpt lat="43.6514" lon="1.38648">
        <ele>147</ele>
        <time>2024-12-16T11:41:20Z</time>
      </trkpt>
      <trkpt lat="43.6514" lon="1.38648">
        <ele>147</ele>
        <time>2024-12-16T11:41:21Z</time>
      </trkpt>
      <trkpt lat="43.65138" lon="1.38643">
        <ele>147</ele>
        <time>2024-12-16T11:41:22Z</time>
      </trkpt>
      <trkpt lat="43.65138" lon="1.38643">
        <ele>147</ele>
        <time>2024-12-16T11:41:23Z</time>
      </trkpt>
      <trkpt lat="43.65136" lon="1.38636">
        <ele>147</ele>
        <time>2024-12-16T11:41:24Z</time>
      </trkpt>
      <trkpt lat="43.65136" lon="1.38636">
        <ele>147</ele>
        <time>2024-12-16T11:41:25Z</time>
      </trkpt>
      <trkpt lat="43.65133" lon="1.3863">
        <ele>147</ele>
        <time>2024-12-16T11:41:26Z</time>
      </trkpt>
      <trkpt lat="43.65132" lon="1.38627">
        <ele>147</ele>
        <time>2024-12-16T11:41:27Z</time>
      </trkpt>
      <trkpt lat="43.65131" lon="1.38623">
        <ele>147</ele>
        <time>2024-12-16T11:41:28Z</time>
      </trkpt>
      <trkpt lat="43.65131" lon="1.38619">
        <ele>147</ele>
        <time>2024-12-16T11:41:29Z</time>
      </trkpt>
      <trkpt lat="43.6513" lon="1.38616">
        <ele>146</ele>
        <time>2024-12-16T11:41:30Z</time>
      </trkpt>
      <trkpt lat="43.6513" lon="1.38616">
        <ele>146</ele>
        <time>2024-12-16T11:41:31Z</time>
      </trkpt>
      <trkpt lat="43.65128" lon="1.38609">
        <ele>146</ele>
        <time>2024-12-16T11:41:32Z</time>
      </trkpt>
      <trkpt lat="43.65127" lon="1.38606">
        <ele>146</ele>
        <time>2024-12-16T11:41:33Z</time>
      </trkpt>
      <trkpt lat="43.65127" lon="1.38606">
        <ele>146</ele>
        <time>2024-12-16T11:41:34Z</time>
      </trkpt>
      <trkpt lat="43.65127" lon="1.38603">
        <ele>146</ele>
        <time>2024-12-16T11:41:35Z</time>
      </trkpt>
      <trkpt lat="43.65126" lon="1.38599">
        <ele>146</ele>
        <time>2024-12-16T11:41:36Z</time>
      </trkpt>
      <trkpt lat="43.65125" lon="1.38596">
        <ele>146</ele>
        <time>2024-12-16T11:41:37Z</time>
      </trkpt>
      <trkpt lat="43.65124" lon="1.38592">
        <ele>146</ele>
        <time>2024-12-16T11:41:38Z</time>
      </trkpt>
      <trkpt lat="43.65123" lon="1.38586">
        <ele>146</ele>
        <time>2024-12-16T11:41:39Z</time>
      </trkpt>
      <trkpt lat="43.65122" lon="1.38582">
        <ele>146</ele>
        <time>2024-12-16T11:41:40Z</time>
      </trkpt>
      <trkpt lat="43.65122" lon="1.38578">
        <ele>146</ele>
        <time>2024-12-16T11:41:41Z</time>
      </trkpt>
      <trkpt lat="43.65121" lon="1.38575">
        <ele>146</ele>
        <time>2024-12-16T11:41:42Z</time>
      </trkpt>
      <trkpt lat="43.6512" lon="1.38571">
        <ele>146</ele>
        <time>2024-12-16T11:41:43Z</time>
      </trkpt>
      <trkpt lat="43.6512" lon="1.38571">
        <ele>146</ele>
        <time>2024-12-16T11:41:44Z</time>
      </trkpt>
      <trkpt lat="43.6512" lon="1.38567">
        <ele>146</ele>
        <time>2024-12-16T11:41:45Z</time>
      </trkpt>
      <trkpt lat="43.65119" lon="1.38561">
        <ele>146</ele>
        <time>2024-12-16T11:41:46Z</time>
      </trkpt>
      <trkpt lat="43.65119" lon="1.38561">
        <ele>146</ele>
        <time>2024-12-16T11:41:47Z</time>
      </trkpt>
      <trkpt lat="43.65118" lon="1.38557">
        <ele>146</ele>
        <time>2024-12-16T11:41:48Z</time>
      </trkpt>
      <trkpt lat="43.65117" lon="1.38554">
        <ele>146</ele>
        <time>2024-12-16T11:41:49Z</time>
      </trkpt>
      <trkpt lat="43.65114" lon="1.38548">
        <ele>147</ele>
        <time>2024-12-16T11:41:50Z</time>
      </trkpt>
      <trkpt lat="43.65112" lon="1.38545">
        <ele>147</ele>
        <time>2024-12-16T11:41:51Z</time>
      </trkpt>
      <trkpt lat="43.65112" lon="1.38545">
        <ele>147</ele>
        <time>2024-12-16T11:41:52Z</time>
      </trkpt>
      <trkpt lat="43.65107" lon="1.38543">
        <ele>147</ele>
        <time>2024-12-16T11:41:53Z</time>
      </trkpt>
      <trkpt lat="43.65107" lon="1.38543">
        <ele>147</ele>
        <time>2024-12-16T11:41:54Z</time>
      </trkpt>
      <trkpt lat="43.65102" lon="1.38541">
        <ele>147</ele>
        <time>2024-12-16T11:41:55Z</time>
      </trkpt>
      <trkpt lat="43.65102" lon="1.38541">
        <ele>147</ele>
        <time>2024-12-16T11:41:56Z</time>
      </trkpt>
      <trkpt lat="43.65098" lon="1.38537">
        <ele>147</ele>
        <time>2024-12-16T11:41:57Z</time>
      </trkpt>
      <trkpt lat="43.65098" lon="1.38537">
        <ele>147</ele>
        <time>2024-12-16T11:41:58Z</time>
      </trkpt>
      <trkpt lat="43.65096" lon="1.38533">
        <ele>147</ele>
        <time>2024-12-16T11:41:59Z</time>
      </trkpt>
      <trkpt lat="43.65095" lon="1.38526">
        <ele>147</ele>
        <time>2024-12-16T11:42:00Z</time>
      </trkpt>
      <trkpt lat="43.65095" lon="1.38526">
        <ele>147</ele>
        <time>2024-12-16T11:42:01Z</time>
      </trkpt>
      <trkpt lat="43.65097" lon="1.38519">
        <ele>147</ele>
        <time>2024-12-16T11:42:02Z</time>
      </trkpt>
      <trkpt lat="43.65097" lon="1.38515">
        <ele>147</ele>
        <time>2024-12-16T11:42:03Z</time>
      </trkpt>
      <trkpt lat="43.65098" lon="1.38512">
        <ele>147</ele>
        <time>2024-12-16T11:42:04Z</time>
      </trkpt>
      <trkpt lat="43.65099" lon="1.38509">
        <ele>147</ele>
        <time>2024-12-16T11:42:05Z</time>
      </trkpt>
      <trkpt lat="43.65099" lon="1.38509">
        <ele>147</ele>
        <time>2024-12-16T11:42:06Z</time>
      </trkpt>
      <trkpt lat="43.65099" lon="1.38502">
        <ele>147</ele>
        <time>2024-12-16T11:42:07Z</time>
      </trkpt>
      <trkpt lat="43.65098" lon="1.38499">
        <ele>147</ele>
        <time>2024-12-16T11:42:08Z</time>
      </trkpt>
      <trkpt lat="43.65097" lon="1.38496">
        <ele>147</ele>
        <time>2024-12-16T11:42:09Z</time>
      </trkpt>
      <trkpt lat="43.65096" lon="1.38493">
        <ele>147</ele>
        <time>2024-12-16T11:42:10Z</time>
      </trkpt>
      <trkpt lat="43.65094" lon="1.3849">
        <ele>147</ele>
        <time>2024-12-16T11:42:11Z</time>
      </trkpt>
      <trkpt lat="43.65094" lon="1.3849">
        <ele>147</ele>
        <time>2024-12-16T11:42:12Z</time>
      </trkpt>
      <trkpt lat="43.65092" lon="1.38484">
        <ele>147</ele>
        <time>2024-12-16T11:42:13Z</time>
      </trkpt>
      <trkpt lat="43.65091" lon="1.3848">
        <ele>147</ele>
        <time>2024-12-16T11:42:14Z</time>
      </trkpt>
      <trkpt lat="43.6509" lon="1.38477">
        <ele>147</ele>
        <time>2024-12-16T11:42:15Z</time>
      </trkpt>
      <trkpt lat="43.65089" lon="1.38474">
        <ele>147</ele>
        <time>2024-12-16T11:42:16Z</time>
      </trkpt>
      <trkpt lat="43.65089" lon="1.38474">
        <ele>147</ele>
        <time>2024-12-16T11:42:17Z</time>
      </trkpt>
      <trkpt lat="43.65089" lon="1.38471">
        <ele>147</ele>
        <time>2024-12-16T11:42:18Z</time>
      </trkpt>
      <trkpt lat="43.65087" lon="1.38468">
        <ele>147</ele>
        <time>2024-12-16T11:42:19Z</time>
      </trkpt>
      <trkpt lat="43.65085" lon="1.38462">
        <ele>147</ele>
        <time>2024-12-16T11:42:20Z</time>
      </trkpt>
      <trkpt lat="43.65084" lon="1.38458">
        <ele>147</ele>
        <time>2024-12-16T11:42:21Z</time>
      </trkpt>
      <trkpt lat="43.65083" lon="1.38455">
        <ele>147</ele>
        <time>2024-12-16T11:42:22Z</time>
      </trkpt>
      <trkpt lat="43.65081" lon="1.38452">
        <ele>147</ele>
        <time>2024-12-16T11:42:23Z</time>
      </trkpt>
      <trkpt lat="43.65081" lon="1.38448">
        <ele>148</ele>
        <time>2024-12-16T11:42:24Z</time>
      </trkpt>
      <trkpt lat="43.65081" lon="1.38448">
        <ele>148</ele>
        <time>2024-12-16T11:42:25Z</time>
      </trkpt>
      <trkpt lat="43.6508" lon="1.38445">
        <ele>148</ele>
        <time>2024-12-16T11:42:26Z</time>
      </trkpt>
      <trkpt lat="43.65079" lon="1.38442">
        <ele>148</ele>
        <time>2024-12-16T11:42:27Z</time>
      </trkpt>
      <trkpt lat="43.65077" lon="1.38435">
        <ele>148</ele>
        <time>2024-12-16T11:42:28Z</time>
      </trkpt>
      <trkpt lat="43.65076" lon="1.38432">
        <ele>148</ele>
        <time>2024-12-16T11:42:29Z</time>
      </trkpt>
      <trkpt lat="43.65074" lon="1.38429">
        <ele>148</ele>
        <time>2024-12-16T11:42:30Z</time>
      </trkpt>
      <trkpt lat="43.65073" lon="1.38426">
        <ele>148</ele>
        <time>2024-12-16T11:42:31Z</time>
      </trkpt>
      <trkpt lat="43.65072" lon="1.38422">
        <ele>148</ele>
        <time>2024-12-16T11:42:32Z</time>
      </trkpt>
      <trkpt lat="43.65072" lon="1.38422">
        <ele>148</ele>
        <time>2024-12-16T11:42:33Z</time>
      </trkpt>
      <trkpt lat="43.65071" lon="1.38416">
        <ele>148</ele>
        <time>2024-12-16T11:42:34Z</time>
      </trkpt>
      <trkpt lat="43.65071" lon="1.38416">
        <ele>148</ele>
        <time>2024-12-16T11:42:35Z</time>
      </trkpt>
      <trkpt lat="43.6507" lon="1.38409">
        <ele>148</ele>
        <time>2024-12-16T11:42:36Z</time>
      </trkpt>
      <trkpt lat="43.6507" lon="1.38409">
        <ele>148</ele>
        <time>2024-12-16T11:42:37Z</time>
      </trkpt>
      <trkpt lat="43.65068" lon="1.38403">
        <ele>148</ele>
        <time>2024-12-16T11:42:38Z</time>
      </trkpt>
      <trkpt lat="43.65067" lon="1.384">
        <ele>148</ele>
        <time>2024-12-16T11:42:39Z</time>
      </trkpt>
      <trkpt lat="43.65067" lon="1.384">
        <ele>148</ele>
        <time>2024-12-16T11:42:40Z</time>
      </trkpt>
      <trkpt lat="43.65066" lon="1.38397">
        <ele>148</ele>
        <time>2024-12-16T11:42:41Z</time>
      </trkpt>
      <trkpt lat="43.65065" lon="1.38393">
        <ele>147</ele>
        <time>2024-12-16T11:42:42Z</time>
      </trkpt>
      <trkpt lat="43.65063" lon="1.38387">
        <ele>147</ele>
        <time>2024-12-16T11:42:43Z</time>
      </trkpt>
      <trkpt lat="43.65063" lon="1.38387">
        <ele>147</ele>
        <time>2024-12-16T11:42:44Z</time>
      </trkpt>
      <trkpt lat="43.65062" lon="1.38384">
        <ele>147</ele>
        <time>2024-12-16T11:42:45Z</time>
      </trkpt>
      <trkpt lat="43.6506" lon="1.38377">
        <ele>147</ele>
        <time>2024-12-16T11:42:46Z</time>
      </trkpt>
      <trkpt lat="43.6506" lon="1.38377">
        <ele>147</ele>
        <time>2024-12-16T11:42:47Z</time>
      </trkpt>
      <trkpt lat="43.65057" lon="1.3837">
        <ele>147</ele>
        <time>2024-12-16T11:42:48Z</time>
      </trkpt>
      <trkpt lat="43.65056" lon="1.38366">
        <ele>147</ele>
        <time>2024-12-16T11:42:49Z</time>
      </trkpt>
      <trkpt lat="43.65056" lon="1.38366">
        <ele>147</ele>
        <time>2024-12-16T11:42:50Z</time>
      </trkpt>
      <trkpt lat="43.65054" lon="1.3836">
        <ele>147</ele>
        <time>2024-12-16T11:42:51Z</time>
      </trkpt>
      <trkpt lat="43.65053" lon="1.38357">
        <ele>147</ele>
        <time>2024-12-16T11:42:52Z</time>
      </trkpt>
      <trkpt lat="43.65052" lon="1.38353">
        <ele>147</ele>
        <time>2024-12-16T11:42:53Z</time>
      </trkpt>
      <trkpt lat="43.65051" lon="1.3835">
        <ele>147</ele>
        <time>2024-12-16T11:42:54Z</time>
      </trkpt>
      <trkpt lat="43.65051" lon="1.3835">
        <ele>147</ele>
        <time>2024-12-16T11:42:55Z</time>
      </trkpt>
      <trkpt lat="43.6505" lon="1.38346">
        <ele>147</ele>
        <time>2024-12-16T11:42:56Z</time>
      </trkpt>
      <trkpt lat="43.65049" lon="1.38343">
        <ele>147</ele>
        <time>2024-12-16T11:42:57Z</time>
      </trkpt>
      <trkpt lat="43.65048" lon="1.3834">
        <ele>147</ele>
        <time>2024-12-16T11:42:58Z</time>
      </trkpt>
      <trkpt lat="43.65046" lon="1.38334">
        <ele>147</ele>
        <time>2024-12-16T11:42:59Z</time>
      </trkpt>
      <trkpt lat="43.65046" lon="1.38334">
        <ele>147</ele>
        <time>2024-12-16T11:43:00Z</time>
      </trkpt>
      <trkpt lat="43.65044" lon="1.38327">
        <ele>147</ele>
        <time>2024-12-16T11:43:01Z</time>
      </trkpt>
      <trkpt lat="43.65043" lon="1.38323">
        <ele>147</ele>
        <time>2024-12-16T11:43:02Z</time>
      </trkpt>
      <trkpt lat="43.65042" lon="1.3832">
        <ele>147</ele>
        <time>2024-12-16T11:43:03Z</time>
      </trkpt>
      <trkpt lat="43.65042" lon="1.3832">
        <ele>147</ele>
        <time>2024-12-16T11:43:04Z</time>
      </trkpt>
      <trkpt lat="43.65041" lon="1.38317">
        <ele>147</ele>
        <time>2024-12-16T11:43:05Z</time>
      </trkpt>
      <trkpt lat="43.65039" lon="1.3831">
        <ele>147</ele>
        <time>2024-12-16T11:43:06Z</time>
      </trkpt>
      <trkpt lat="43.65038" lon="1.38307">
        <ele>147</ele>
        <time>2024-12-16T11:43:07Z</time>
      </trkpt>
      <trkpt lat="43.65037" lon="1.38303">
        <ele>147</ele>
        <time>2024-12-16T11:43:08Z</time>
      </trkpt>
      <trkpt lat="43.65036" lon="1.383">
        <ele>147</ele>
        <time>2024-12-16T11:43:09Z</time>
      </trkpt>
      <trkpt lat="43.65035" lon="1.38296">
        <ele>147</ele>
        <time>2024-12-16T11:43:10Z</time>
      </trkpt>
      <trkpt lat="43.65035" lon="1.38296">
        <ele>147</ele>
        <time>2024-12-16T11:43:11Z</time>
      </trkpt>
      <trkpt lat="43.65033" lon="1.38293">
        <ele>147</ele>
        <time>2024-12-16T11:43:12Z</time>
      </trkpt>
      <trkpt lat="43.65033" lon="1.38289">
        <ele>147</ele>
        <time>2024-12-16T11:43:13Z</time>
      </trkpt>
      <trkpt lat="43.65031" lon="1.38283">
        <ele>147</ele>
        <time>2024-12-16T11:43:14Z</time>
      </trkpt>
      <trkpt lat="43.6503" lon="1.3828">
        <ele>147</ele>
        <time>2024-12-16T11:43:15Z</time>
      </trkpt>
      <trkpt lat="43.65029" lon="1.38276">
        <ele>147</ele>
        <time>2024-12-16T11:43:16Z</time>
      </trkpt>
      <trkpt lat="43.65028" lon="1.38273">
        <ele>147</ele>
        <time>2024-12-16T11:43:17Z</time>
      </trkpt>
      <trkpt lat="43.65027" lon="1.3827">
        <ele>147</ele>
        <time>2024-12-16T11:43:18Z</time>
      </trkpt>
      <trkpt lat="43.65026" lon="1.38266">
        <ele>147</ele>
        <time>2024-12-16T11:43:19Z</time>
      </trkpt>
      <trkpt lat="43.65025" lon="1.38263">
        <ele>147</ele>
        <time>2024-12-16T11:43:20Z</time>
      </trkpt>
      <trkpt lat="43.65024" lon="1.3826">
        <ele>147</ele>
        <time>2024-12-16T11:43:21Z</time>
      </trkpt>
      <trkpt lat="43.65023" lon="1.38256">
        <ele>147</ele>
        <time>2024-12-16T11:43:22Z</time>
      </trkpt>
      <trkpt lat="43.65022" lon="1.38253">
        <ele>147</ele>
        <time>2024-12-16T11:43:23Z</time>
      </trkpt>
      <trkpt lat="43.65022" lon="1.38253">
        <ele>147</ele>
        <time>2024-12-16T11:43:24Z</time>
      </trkpt>
      <trkpt lat="43.65021" lon="1.38249">
        <ele>147</ele>
        <time>2024-12-16T11:43:25Z</time>
      </trkpt>
      <trkpt lat="43.65019" lon="1.38243">
        <ele>147</ele>
        <time>2024-12-16T11:43:26Z</time>
      </trkpt>
      <trkpt lat="43.65018" lon="1.38239">
        <ele>147</ele>
        <time>2024-12-16T11:43:27Z</time>
      </trkpt>
      <trkpt lat="43.65017" lon="1.38236">
        <ele>147</ele>
        <time>2024-12-16T11:43:28Z</time>
      </trkpt>
      <trkpt lat="43.65017" lon="1.38236">
        <ele>147</ele>
        <time>2024-12-16T11:43:29Z</time>
      </trkpt>
      <trkpt lat="43.65017" lon="1.38233">
        <ele>147</ele>
        <time>2024-12-16T11:43:30Z</time>
      </trkpt>
      <trkpt lat="43.65016" lon="1.3823">
        <ele>147</ele>
        <time>2024-12-16T11:43:31Z</time>
      </trkpt>
      <trkpt lat="43.65015" lon="1.38227">
        <ele>147</ele>
        <time>2024-12-16T11:43:32Z</time>
      </trkpt>
      <trkpt lat="43.65013" lon="1.38221">
        <ele>147</ele>
        <time>2024-12-16T11:43:33Z</time>
      </trkpt>
      <trkpt lat="43.65012" lon="1.38217">
        <ele>146</ele>
        <time>2024-12-16T11:43:34Z</time>
      </trkpt>
      <trkpt lat="43.6501" lon="1.38214">
        <ele>146</ele>
        <time>2024-12-16T11:43:35Z</time>
      </trkpt>
      <trkpt lat="43.6501" lon="1.38214">
        <ele>146</ele>
        <time>2024-12-16T11:43:36Z</time>
      </trkpt>
      <trkpt lat="43.65008" lon="1.38207">
        <ele>146</ele>
        <time>2024-12-16T11:43:37Z</time>
      </trkpt>
      <trkpt lat="43.65007" lon="1.38204">
        <ele>146</ele>
        <time>2024-12-16T11:43:38Z</time>
      </trkpt>
      <trkpt lat="43.65007" lon="1.38204">
        <ele>146</ele>
        <time>2024-12-16T11:43:39Z</time>
      </trkpt>
      <trkpt lat="43.65005" lon="1.38197">
        <ele>146</ele>
        <time>2024-12-16T11:43:40Z</time>
      </trkpt>
      <trkpt lat="43.65005" lon="1.38197">
        <ele>147</ele>
        <time>2024-12-16T11:43:41Z</time>
      </trkpt>
      <trkpt lat="43.65003" lon="1.38194">
        <ele>147</ele>
        <time>2024-12-16T11:43:42Z</time>
      </trkpt>
      <trkpt lat="43.65" lon="1.38189">
        <ele>146</ele>
        <time>2024-12-16T11:43:43Z</time>
      </trkpt>
      <trkpt lat="43.65" lon="1.38189">
        <ele>146</ele>
        <time>2024-12-16T11:43:44Z</time>
      </trkpt>
      <trkpt lat="43.64996" lon="1.38183">
        <ele>146</ele>
        <time>2024-12-16T11:43:45Z</time>
      </trkpt>
      <trkpt lat="43.64996" lon="1.38183">
        <ele>147</ele>
        <time>2024-12-16T11:43:46Z</time>
      </trkpt>
      <trkpt lat="43.64992" lon="1.38177">
        <ele>147</ele>
        <time>2024-12-16T11:43:47Z</time>
      </trkpt>
      <trkpt lat="43.64992" lon="1.38177">
        <ele>147</ele>
        <time>2024-12-16T11:43:48Z</time>
      </trkpt>
      <trkpt lat="43.64989" lon="1.38171">
        <ele>147</ele>
        <time>2024-12-16T11:43:49Z</time>
      </trkpt>
      <trkpt lat="43.64989" lon="1.38171">
        <ele>146</ele>
        <time>2024-12-16T11:43:50Z</time>
      </trkpt>
      <trkpt lat="43.64992" lon="1.38165">
        <ele>146</ele>
        <time>2024-12-16T11:43:51Z</time>
      </trkpt>
      <trkpt lat="43.64993" lon="1.38163">
        <ele>146</ele>
        <time>2024-12-16T11:43:52Z</time>
      </trkpt>
      <trkpt lat="43.64993" lon="1.38163">
        <ele>146</ele>
        <time>2024-12-16T11:43:53Z</time>
      </trkpt>
      <trkpt lat="43.64995" lon="1.38157">
        <ele>146</ele>
        <time>2024-12-16T11:43:54Z</time>
      </trkpt>
      <trkpt lat="43.64995" lon="1.38157">
        <ele>146</ele>
        <time>2024-12-16T11:43:55Z</time>
      </trkpt>
      <trkpt lat="43.64997" lon="1.38151">
        <ele>146</ele>
        <time>2024-12-16T11:43:56Z</time>
      </trkpt>
      <trkpt lat="43.64997" lon="1.38151">
        <ele>146</ele>
        <time>2024-12-16T11:43:57Z</time>
      </trkpt>
      <trkpt lat="43.64998" lon="1.38147">
        <ele>146</ele>
        <time>2024-12-16T11:43:58Z</time>
      </trkpt>
      <trkpt lat="43.64998" lon="1.38143">
        <ele>146</ele>
        <time>2024-12-16T11:43:59Z</time>
      </trkpt>
      <trkpt lat="43.64997" lon="1.38137">
        <ele>146</ele>
        <time>2024-12-16T11:44:00Z</time>
      </trkpt>
      <trkpt lat="43.64996" lon="1.38133">
        <ele>146</ele>
        <time>2024-12-16T11:44:01Z</time>
      </trkpt>
      <trkpt lat="43.64995" lon="1.3813">
        <ele>146</ele>
        <time>2024-12-16T11:44:02Z</time>
      </trkpt>
      <trkpt lat="43.64994" lon="1.38127">
        <ele>146</ele>
        <time>2024-12-16T11:44:03Z</time>
      </trkpt>
      <trkpt lat="43.64994" lon="1.38124">
        <ele>146</ele>
        <time>2024-12-16T11:44:04Z</time>
      </trkpt>
      <trkpt lat="43.64994" lon="1.38124">
        <ele>146</ele>
        <time>2024-12-16T11:44:05Z</time>
      </trkpt>
      <trkpt lat="43.64993" lon="1.38121">
        <ele>146</ele>
        <time>2024-12-16T11:44:06Z</time>
      </trkpt>
      <trkpt lat="43.64992" lon="1.38117">
        <ele>146</ele>
        <time>2024-12-16T11:44:07Z</time>
      </trkpt>
      <trkpt lat="43.6499" lon="1.38111">
        <ele>146</ele>
        <time>2024-12-16T11:44:08Z</time>
      </trkpt>
      <trkpt lat="43.64989" lon="1.38107">
        <ele>146</ele>
        <time>2024-12-16T11:44:09Z</time>
      </trkpt>
      <trkpt lat="43.64988" lon="1.38104">
        <ele>146</ele>
        <time>2024-12-16T11:44:10Z</time>
      </trkpt>
      <trkpt lat="43.64987" lon="1.38101">
        <ele>146</ele>
        <time>2024-12-16T11:44:11Z</time>
      </trkpt>
      <trkpt lat="43.64987" lon="1.38101">
        <ele>146</ele>
        <time>2024-12-16T11:44:12Z</time>
      </trkpt>
      <trkpt lat="43.64985" lon="1.38095">
        <ele>146</ele>
        <time>2024-12-16T11:44:13Z</time>
      </trkpt>
      <trkpt lat="43.64985" lon="1.38095">
        <ele>146</ele>
        <time>2024-12-16T11:44:14Z</time>
      </trkpt>
      <trkpt lat="43.64983" lon="1.38089">
        <ele>145</ele>
        <time>2024-12-16T11:44:15Z</time>
      </trkpt>
      <trkpt lat="43.64983" lon="1.38089">
        <ele>145</ele>
        <time>2024-12-16T11:44:16Z</time>
      </trkpt>
      <trkpt lat="43.6498" lon="1.38082">
        <ele>145</ele>
        <time>2024-12-16T11:44:17Z</time>
      </trkpt>
      <trkpt lat="43.64979" lon="1.38079">
        <ele>145</ele>
        <time>2024-12-16T11:44:18Z</time>
      </trkpt>
      <trkpt lat="43.64979" lon="1.38079">
        <ele>145</ele>
        <time>2024-12-16T11:44:19Z</time>
      </trkpt>
      <trkpt lat="43.64977" lon="1.38072">
        <ele>145</ele>
        <time>2024-12-16T11:44:20Z</time>
      </trkpt>
      <trkpt lat="43.64977" lon="1.38069">
        <ele>145</ele>
        <time>2024-12-16T11:44:21Z</time>
      </trkpt>
      <trkpt lat="43.64976" lon="1.38065">
        <ele>145</ele>
        <time>2024-12-16T11:44:22Z</time>
      </trkpt>
      <trkpt lat="43.64975" lon="1.38062">
        <ele>145</ele>
        <time>2024-12-16T11:44:23Z</time>
      </trkpt>
      <trkpt lat="43.64975" lon="1.38062">
        <ele>145</ele>
        <time>2024-12-16T11:44:24Z</time>
      </trkpt>
      <trkpt lat="43.64974" lon="1.38059">
        <ele>145</ele>
        <time>2024-12-16T11:44:25Z</time>
      </trkpt>
      <trkpt lat="43.64973" lon="1.38056">
        <ele>145</ele>
        <time>2024-12-16T11:44:26Z</time>
      </trkpt>
      <trkpt lat="43.6497" lon="1.38049">
        <ele>145</ele>
        <time>2024-12-16T11:44:27Z</time>
      </trkpt>
      <trkpt lat="43.6497" lon="1.38049">
        <ele>145</ele>
        <time>2024-12-16T11:44:28Z</time>
      </trkpt>
      <trkpt lat="43.64968" lon="1.38043">
        <ele>145</ele>
        <time>2024-12-16T11:44:29Z</time>
      </trkpt>
      <trkpt lat="43.64968" lon="1.38043">
        <ele>145</ele>
        <time>2024-12-16T11:44:30Z</time>
      </trkpt>
      <trkpt lat="43.64967" lon="1.3804">
        <ele>145</ele>
        <time>2024-12-16T11:44:31Z</time>
      </trkpt>
      <trkpt lat="43.64966" lon="1.38034">
        <ele>145</ele>
        <time>2024-12-16T11:44:32Z</time>
      </trkpt>
      <trkpt lat="43.64966" lon="1.38034">
        <ele>145</ele>
        <time>2024-12-16T11:44:33Z</time>
      </trkpt>
      <trkpt lat="43.64964" lon="1.38027">
        <ele>145</ele>
        <time>2024-12-16T11:44:34Z</time>
      </trkpt>
      <trkpt lat="43.64964" lon="1.38027">
        <ele>145</ele>
        <time>2024-12-16T11:44:35Z</time>
      </trkpt>
      <trkpt lat="43.64962" lon="1.3802">
        <ele>145</ele>
        <time>2024-12-16T11:44:36Z</time>
      </trkpt>
      <trkpt lat="43.64962" lon="1.3802">
        <ele>145</ele>
        <time>2024-12-16T11:44:37Z</time>
      </trkpt>
      <trkpt lat="43.64961" lon="1.38017">
        <ele>145</ele>
        <time>2024-12-16T11:44:38Z</time>
      </trkpt>
      <trkpt lat="43.64959" lon="1.3801">
        <ele>145</ele>
        <time>2024-12-16T11:44:39Z</time>
      </trkpt>
      <trkpt lat="43.64958" lon="1.38007">
        <ele>145</ele>
        <time>2024-12-16T11:44:40Z</time>
      </trkpt>
      <trkpt lat="43.64957" lon="1.38004">
        <ele>145</ele>
        <time>2024-12-16T11:44:41Z</time>
      </trkpt>
      <trkpt lat="43.64955" lon="1.38001">
        <ele>145</ele>
        <time>2024-12-16T11:44:42Z</time>
      </trkpt>
      <trkpt lat="43.64952" lon="1.37998">
        <ele>145</ele>
        <time>2024-12-16T11:44:43Z</time>
      </trkpt>
      <trkpt lat="43.64952" lon="1.37998">
        <ele>145</ele>
        <time>2024-12-16T11:44:44Z</time>
      </trkpt>
      <trkpt lat="43.6495" lon="1.37994">
        <ele>145</ele>
        <time>2024-12-16T11:44:45Z</time>
      </trkpt>
      <trkpt lat="43.64949" lon="1.3799">
        <ele>145</ele>
        <time>2024-12-16T11:44:46Z</time>
      </trkpt>
      <trkpt lat="43.64947" lon="1.37982">
        <ele>145</ele>
        <time>2024-12-16T11:44:47Z</time>
      </trkpt>
      <trkpt lat="43.64947" lon="1.37982">
        <ele>145</ele>
        <time>2024-12-16T11:44:48Z</time>
      </trkpt>
      <trkpt lat="43.64946" lon="1.37973">
        <ele>145</ele>
        <time>2024-12-16T11:44:49Z</time>
      </trkpt>
      <trkpt lat="43.64946" lon="1.37973">
        <ele>145</ele>
        <time>2024-12-16T11:44:50Z</time>
      </trkpt>
      <trkpt lat="43.64947" lon="1.37965">
        <ele>145</ele>
        <time>2024-12-16T11:44:51Z</time>
      </trkpt>
      <trkpt lat="43.64947" lon="1.37965">
        <ele>145</ele>
        <time>2024-12-16T11:44:52Z</time>
      </trkpt>
      <trkpt lat="43.64947" lon="1.37961">
        <ele>145</ele>
        <time>2024-12-16T11:44:53Z</time>
      </trkpt>
      <trkpt lat="43.64944" lon="1.37953">
        <ele>145</ele>
        <time>2024-12-16T11:44:54Z</time>
      </trkpt>
      <trkpt lat="43.64944" lon="1.37953">
        <ele>145</ele>
        <time>2024-12-16T11:44:55Z</time>
      </trkpt>
      <trkpt lat="43.64943" lon="1.37946">
        <ele>145</ele>
        <time>2024-12-16T11:44:56Z</time>
      </trkpt>
      <trkpt lat="43.64943" lon="1.37946">
        <ele>145</ele>
        <time>2024-12-16T11:44:57Z</time>
      </trkpt>
      <trkpt lat="43.64942" lon="1.37943">
        <ele>145</ele>
        <time>2024-12-16T11:44:58Z</time>
      </trkpt>
      <trkpt lat="43.6494" lon="1.37935">
        <ele>144</ele>
        <time>2024-12-16T11:44:59Z</time>
      </trkpt>
      <trkpt lat="43.6494" lon="1.37935">
        <ele>144</ele>
        <time>2024-12-16T11:45:00Z</time>
      </trkpt>
      <trkpt lat="43.64939" lon="1.37928">
        <ele>144</ele>
        <time>2024-12-16T11:45:01Z</time>
      </trkpt>
      <trkpt lat="43.64939" lon="1.37928">
        <ele>144</ele>
        <time>2024-12-16T11:45:02Z</time>
      </trkpt>
      <trkpt lat="43.64937" lon="1.3792">
        <ele>144</ele>
        <time>2024-12-16T11:45:03Z</time>
      </trkpt>
      <trkpt lat="43.64937" lon="1.3792">
        <ele>144</ele>
        <time>2024-12-16T11:45:04Z</time>
      </trkpt>
      <trkpt lat="43.64935" lon="1.37913">
        <ele>144</ele>
        <time>2024-12-16T11:45:05Z</time>
      </trkpt>
      <trkpt lat="43.64934" lon="1.37909">
        <ele>144</ele>
        <time>2024-12-16T11:45:06Z</time>
      </trkpt>
      <trkpt lat="43.64933" lon="1.37906">
        <ele>144</ele>
        <time>2024-12-16T11:45:07Z</time>
      </trkpt>
      <trkpt lat="43.64932" lon="1.37902">
        <ele>144</ele>
        <time>2024-12-16T11:45:08Z</time>
      </trkpt>
      <trkpt lat="43.64932" lon="1.37902">
        <ele>145</ele>
        <time>2024-12-16T11:45:09Z</time>
      </trkpt>
      <trkpt lat="43.6493" lon="1.37895">
        <ele>145</ele>
        <time>2024-12-16T11:45:10Z</time>
      </trkpt>
      <trkpt lat="43.6493" lon="1.37895">
        <ele>145</ele>
        <time>2024-12-16T11:45:11Z</time>
      </trkpt>
      <trkpt lat="43.64928" lon="1.37888">
        <ele>145</ele>
        <time>2024-12-16T11:45:12Z</time>
      </trkpt>
      <trkpt lat="43.64928" lon="1.37888">
        <ele>145</ele>
        <time>2024-12-16T11:45:13Z</time>
      </trkpt>
      <trkpt lat="43.64926" lon="1.37881">
        <ele>145</ele>
        <time>2024-12-16T11:45:14Z</time>
      </trkpt>
      <trkpt lat="43.64926" lon="1.37878">
        <ele>145</ele>
        <time>2024-12-16T11:45:15Z</time>
      </trkpt>
      <trkpt lat="43.64926" lon="1.37878">
        <ele>145</ele>
        <time>2024-12-16T11:45:16Z</time>
      </trkpt>
      <trkpt lat="43.64924" lon="1.37871">
        <ele>145</ele>
        <time>2024-12-16T11:45:17Z</time>
      </trkpt>
      <trkpt lat="43.64924" lon="1.37871">
        <ele>145</ele>
        <time>2024-12-16T11:45:18Z</time>
      </trkpt>
      <trkpt lat="43.64923" lon="1.37867">
        <ele>145</ele>
        <time>2024-12-16T11:45:19Z</time>
      </trkpt>
      <trkpt lat="43.64921" lon="1.3786">
        <ele>146</ele>
        <time>2024-12-16T11:45:20Z</time>
      </trkpt>
      <trkpt lat="43.64921" lon="1.3786">
        <ele>146</ele>
        <time>2024-12-16T11:45:21Z</time>
      </trkpt>
      <trkpt lat="43.6492" lon="1.37857">
        <ele>146</ele>
        <time>2024-12-16T11:45:22Z</time>
      </trkpt>
      <trkpt lat="43.6492" lon="1.37853">
        <ele>146</ele>
        <time>2024-12-16T11:45:23Z</time>
      </trkpt>
      <trkpt lat="43.64918" lon="1.37845">
        <ele>146</ele>
        <time>2024-12-16T11:45:24Z</time>
      </trkpt>
      <trkpt lat="43.64918" lon="1.37845">
        <ele>146</ele>
        <time>2024-12-16T11:45:25Z</time>
      </trkpt>
    </trkseg>
  </trk>
</gpx>